Back to main page

Alchemy table:

Filters
AIR EARTH WATER FIRE MUD SEA DUST RAIN LAVA STEAM
ENERGY PRESS STONE OCEAN FLOOD BRICK WIND EARTHQ WALL OBSIDIN
PLANT GUNPWDR SAND EXPLOSN TOBACCO SWAMP GEYSER COAL DIAMOND ATMSPHE
GLASS MOSS CLOUD FOG GRASS METAL RUST RING STEEL GRENADE
ELECTRC SKY SUN BULLET WAVE STORM SOUND FIREWRK DEW BOILER
BLADE LIFE HORIZON VULCANO HEAT GARBAGE TREE CLAY TSUNAMI DRKGLAS
CABBAGE TNPLT WHEAT ASH CARROT BEACH CACTUS DESERT RADITON FLOUR
KNIFE HURRCAN COMPASS ISLE ARCHIP GLASSES BOTTLE BULB ATMCBMB POT
MNTAIN ALCOHOL RIVER BREAD SNDCLCK TIME ALARM CANABIS GUN OXYGEN
PAPER RAINBOW PAINT SALT BARREL WHISKEY TEQUILA SNDSTRM CLOTH FLAG
VACUUM VIRUS BLCKMTR BLCKHOL PLASMA CHAIN SHIT GOLD LENS MCRSCP
PRISM SMOKE PIPE REEDPIP MUSIC MONEY BLOCK BLCKCHN BROOM FROST
ICE FRIDGE MIRROR GRPHITE PENCIL BOOK BATTERY PAINTNG FLSHLGH CALCLTR
ATOM BITCOIN CABLE HILL KITE HAMMER TILING STOOL SEAWEED GAS
BUBBLES SODA PICKAX PEAT NFT GOLEM BACTERI PETRID KETTLE SEED
GRAPE SUNFLWR WIRE OIL SALAD STRING PIANO CELL OZONE CRUDE
PLASTIC SCISSOR DRUM GASOLIN SYRINGE BACKPAK TSHIRT MARKER LIMSTON CEMENT
CONCRTE BUILDNG LIBRARY SULFUR ALUMINM HOP FLOWER BEER PUB WINE
CLUB SILICON PLANET MOON RICE IQ SCIENCE ENGINE IDEA SPACE
ALIEN BIGBANG CHMPAGN DEATH LIGHT BONE MARS SHELL COIN MUMMY
PALM LINEN APPLE PLYWOOD SWORD THREAD BANANA WLDMACH WINDMIL BULLPRV
COMET AMBER RESIN METORIT CHESS HANGDRM VAPE FORK FOAM EXTINGS
FOREST NECKLAC MANURE BEETRT DINOSAR SAFE MILL MUG MUSHRMS COFFBNS
COFFEE

Blue lines were last attempted before new elements were added (Mar 9, 2022). Yellow lines were tried after that.

# First Tried Daring Soul 1 2 3 4 Result Total Crafts Aether Cost
285833 2022-Oct-05 16:46:38 nbgro.wam EARTH MNTAIN PRESS RIVER - 1 1720000
285832 2022-Oct-05 16:46:03 nbgro.wam EARTH PRESS RIVER WATER - 1 1090000
285830 2022-Oct-04 17:01:23 br2ay.wam EARTH PRESS SEA SEAWEED - 1 1480000
285829 2022-Oct-04 15:05:22 ehrbq.wam ENERGY HILL RAIN WATER - 1 1510000
285828 2022-Oct-04 15:04:34 ehrbq.wam ENERGY MNTAIN RAIN WATER - 1 730000
285827 2022-Oct-04 02:03:14 phbb4.wam EARTH ENERGY MNTAIN WATER - 1 700000
285826 2022-Oct-04 01:59:20 phbb4.wam ATMSPHE EARTH ELECTRC WATER - 1 1570000
285825 2022-Oct-04 01:54:50 phbb4.wam CLOUD HEAT ICE PRESS - 1 820000
285824 2022-Oct-04 01:54:36 phbb4.wam CLOUD FROST HEAT PRESS - 1 790000
285820 2022-Oct-03 00:52:45 5qupe.wam LINEN LINEN PLANT PRESS - 1 2320000
285819 2022-Oct-03 00:51:26 5qupe.wam LINEN PLANT PRESS THREAD - 1 3460000
285818 2022-Oct-03 00:50:58 5qupe.wam LINEN LINEN PLANT PLANT - 1 2440000
285817 2022-Oct-03 00:50:34 5qupe.wam PLANT PLANT PRESS THREAD - 1 2560000
285816 2022-Oct-03 00:49:32 5qupe.wam LINEN PLANT PLANT PLANT - 1 1540000
285815 2022-Oct-03 00:49:08 5qupe.wam LINEN PLANT PLANT PRESS - 1 1420000
285814 2022-Oct-03 00:48:45 5qupe.wam LINEN PLANT PRESS PRESS - 1 1300000
285813 2022-Oct-03 00:07:47 5qupe.wam RIVER RIVER RIVER WATER - 1 3100000
285812 2022-Oct-03 00:07:31 5qupe.wam RIVER RIVER WATER WATER - 1 2080000
285810 2022-Oct-02 14:39:31 5qupe.wam CABLE PLANT PLANT PLANT - 1 3610000
285809 2022-Oct-02 14:37:53 5qupe.wam LINEN LINEN LINEN WIRE - 1 5980000
285808 2022-Oct-02 14:32:02 5qupe.wam CABLE LINEN LINEN LINEN - 1 6310000
285805 2022-Oct-02 09:19:39 5qupe.wam KNIFE LINEN PRESS PRESS - 1 4960000
285804 2022-Oct-02 09:19:19 5qupe.wam KNIFE LINEN LINEN PRESS - 1 5980000
285803 2022-Oct-02 09:18:55 5qupe.wam KNIFE LINEN LINEN LINEN - 1 7000000
285801 2022-Oct-02 03:39:09 phbb4.wam PRESS SEA SEAWEED STONE - 1 1570000
285800 2022-Oct-02 00:13:14 ehrbq.wam HILL RAIN STORM WATER - 1 2200000
285799 2022-Oct-02 00:12:56 ehrbq.wam MNTAIN RAIN STORM WATER - 1 1420000
285797 2022-Oct-01 12:57:20 ljrb.wam DUST EARTH STEAM WATER - 1 100000
285795 2022-Oct-01 09:56:50 5qupe.wam KNIFE LINEN PLANT PLANT - 1 5200000
285794 2022-Oct-01 09:54:58 5qupe.wam KNIFE PLANT PRESS PRESS - 1 4060000
285793 2022-Oct-01 09:54:22 5qupe.wam KNIFE PLANT PLANT PRESS - 1 4180000
285792 2022-Oct-01 06:51:11 pu2aw.wam AIR LIMSTON MILL WATER - 1 7240000
285791 2022-Oct-01 06:46:59 pu2aw.wam AIR MILL STONE WATER - 1 2560000
285789 2022-Oct-01 03:35:33 br2ay.wam AIR CLOUD EARTH HEAT - 1 370000
285788 2022-Oct-01 03:28:47 br2ay.wam CLOUD EARTH PRESS WATER - 1 370000
285787 2022-Oct-01 03:26:26 br2ay.wam EARTH ELECTRC PRESS WATER - 1 1480000
285786 2022-Oct-01 03:25:39 br2ay.wam EARTH PRESS STORM WATER - 1 790000
285785 2022-Oct-01 03:23:04 br2ay.wam AIR CLOUD PRESS STORM - 1 1090000
285784 2022-Oct-01 03:20:32 br2ay.wam AIR ELECTRC PRESS STORM - 1 2200000
285783 2022-Oct-01 03:18:21 br2ay.wam AIR ELECTRC PRESS RAIN - 1 1510000
285782 2022-Oct-01 03:16:19 br2ay.wam ELECTRC ENERGY PRESS RAIN - 1 1540000
285781 2022-Sep-29 23:12:21 lpqye.wam COFFEE EARTH RAIN WATER - 1 4570000
285780 2022-Sep-29 23:08:20 i.lr2.wam AIR AIR AIR CLOUD - 1 340000
285778 2022-Sep-29 22:53:56 lpqye.wam COFFBNS EARTH RAIN WATER - 2 1030000
285777 2022-Sep-29 21:37:33 nbgro.wam ELECTRC ELECTRC ENERGY PLASMA - 1 3610000
285776 2022-Sep-29 21:36:17 nbgro.wam CLOUD ENERGY PLASMA PRESS - 1 1120000
285775 2022-Sep-29 21:14:14 ehrbq.wam COFFBNS KETTLE MUG WATER - 1 6610000
285774 2022-Sep-29 21:13:14 gpfay.wam COFFBNS HEAT MUG WATER COFFEE 1 4510000
285773 2022-Sep-29 21:11:22 gpfay.wam ENERGY MANURE PLANT SUN - 1 1720000
285772 2022-Sep-29 21:10:50 ehrbq.wam EARTH MANURE RAIN WATER COFFBNS 1 970000
285769 2022-Sep-29 21:08:44 ehrbq.wam EARTH MANURE RAIN RAIN - 1 1000000
285768 2022-Sep-28 20:59:44 nbgro.wam CLOUD ENERGY PLASMA SKY - 1 1660000
285751 2022-Sep-22 04:48:31 s5jng.c.wam EARTH FIRE GARBAGE LAVA - 1 100000
285747 2022-Sep-20 21:09:26 ghhfw.wam AIR FIRE NECKLAC WATER - 1 1630000
285746 2022-Sep-20 21:08:23 ghhfw.wam AIR ARCHIP FIRE WATER - 1 2080000
285743 2022-Sep-19 23:12:26 ehrbq.wam AIR ELECTRC ENERGY SKY - 1 2050000
285741 2022-Sep-19 17:59:11 gpfay.wam DEW ENERGY SUN TREE - 1 2080000
285739 2022-Sep-19 12:18:57 5qupe.wam MANURE SEED SUN SUN - 1 3340000
285738 2022-Sep-19 10:32:07 yaius.wam DEW ENERGY SEED TREE - 1 2680000
285737 2022-Sep-19 10:31:39 cnbba.wam ENERGY RAIN SEED TREE - 1 2080000
285735 2022-Sep-19 09:30:40 ifaay.wam EARTH FOG SUN TREE - 1 1780000
285729 2022-Sep-14 00:02:25 nbgro.wam CLOUD ENERGY STORM STORM - 1 1810000
285727 2022-Sep-13 01:06:20 cnbba.wam DEW SEED SEED TREE - 1 3850000
285725 2022-Sep-12 16:47:02 .lgba.wam ENERGY GARBAGE MNTAIN WALL - 1 1060000
285722 2022-Sep-11 23:13:21 cnbba.wam MNTAIN PLANT RAIN RAIN - 1 880000
285721 2022-Sep-11 23:13:08 cnbba.wam MNTAIN RAIN RAIN TREE - 1 1510000
285720 2022-Sep-11 06:45:19 k4td2.wam ALCOHOL BARREL RICE WATER - 1 5200000
285718 2022-Sep-11 00:11:45 propi1111111 EARTH FLOOD GARBAGE WATER - 1 220000
285717 2022-Sep-10 22:03:19 cnbba.wam HILL MANURE PLANT RAIN - 1 2530000
285716 2022-Sep-10 22:00:00 cnbba.wam HILL RAIN RAIN TREE - 1 2290000
285708 2022-Sep-10 15:37:10 5qupe.wam CANABIS LINEN PLANT THREAD - 1 4810000
285707 2022-Sep-10 15:36:19 5qupe.wam ENERGY LINEN LINEN THREAD - 1 4360000
285706 2022-Sep-10 15:35:31 5qupe.wam ENERGY ENERGY LINEN THREAD - 1 3340000
285705 2022-Sep-10 15:34:49 5qupe.wam ENERGY LINEN PRESS THREAD - 1 3340000
285703 2022-Sep-10 04:06:04 4nkr.wam CACTUS CACTUS PRESS PRESS - 1 2800000
285702 2022-Sep-10 04:05:48 4nkr.wam CACTUS PRESS PRESS PRESS - 1 1480000
285698 2022-Sep-09 06:51:20 br2ay.wam ENERGY NECKLAC PLANT PLANT - 1 1960000
285696 2022-Sep-09 01:12:00 gpfay.wam ENERGY MANURE SEED SUN - 1 2770000
285695 2022-Sep-09 01:08:33 5qupe.wam BOILER HEAT SEED SEED - 1 3220000
285694 2022-Sep-09 01:08:06 5qupe.wam BOILER SEED SEED SEED - 1 4390000
285693 2022-Sep-09 01:03:22 5qupe.wam MANURE MANURE SEED SUN - 1 3640000
285692 2022-Sep-09 01:02:34 5qupe.wam MANURE SEED SUN TREE - 2 3520000
285690 2022-Sep-09 01:00:17 i.lr2.wam PLASMA RAIN SKY STORM - 1 2080000
285688 2022-Sep-09 00:53:24 i.lr2.wam ATMSPHE ELECTRC RAIN RAIN - 1 1630000
285687 2022-Sep-09 00:48:31 i.lr2.wam ELECTRC PLASMA SKY STORM - 1 3460000
285686 2022-Sep-09 00:42:09 i.lr2.wam ELECTRC PLASMA RAIN STORM - 1 2920000
285685 2022-Sep-09 00:36:43 5qupe.wam ENERGY ENERGY LINEN LINEN - 1 2200000
285684 2022-Sep-09 00:26:33 5qupe.wam FOAM PRESS STEAM WATER - 1 2920000
285683 2022-Sep-09 00:26:19 5qupe.wam BUBBLES PRESS STEAM WATER - 1 1060000
285682 2022-Sep-09 00:24:53 5qupe.wam HILL PRESS STEAM WATER - 1 1510000
285681 2022-Sep-09 00:23:42 5qupe.wam MNTAIN PRESS STEAM WATER - 1 730000
285679 2022-Sep-08 23:41:42 ehrbq.wam FOREST MANURE MNTAIN SUN - 1 3850000
285678 2022-Sep-08 23:40:57 i.lr2.wam DEW FOREST RAIN SUN MUSHRMS 1 2980000
285677 2022-Sep-08 23:40:42 ehrbq.wam FOREST MNTAIN RAIN SUN - 1 2980000
285675 2022-Sep-08 23:21:09 ijar.wam BACTERI DEW FOREST SUN - 1 3520000
285674 2022-Sep-08 23:20:49 ijar.wam DEW FOREST LIFE SUN - 1 3220000
285673 2022-Sep-08 23:20:23 ijar.wam DEW FOREST PLANT SUN - 1 3100000
285672 2022-Sep-08 22:53:30 i.lr2.wam FOREST GRASS PLANT RAIN - 1 2140000
285671 2022-Sep-08 22:50:40 i.lr2.wam GRASS RAIN SUN WATER - 1 910000
285670 2022-Sep-08 22:48:57 vampireofwax BACTERI RAIN SEED SUN - 1 2440000
285669 2022-Sep-08 22:46:43 i.lr2.wam GRASS MANURE SUN WATER - 1 1780000
285668 2022-Sep-08 22:45:49 ijar.wam MOSS PEAT SEED SUN - 1 3370000
285666 2022-Sep-08 22:43:50 ijar.wam BACTERI FOREST MOSS SUN - 1 3160000
285665 2022-Sep-08 22:43:35 ijar.wam FOREST MOSS PLANT SUN - 1 2740000
285664 2022-Sep-08 22:42:45 ijar.wam FOREST MOSS SUN WATER - 1 2590000
285663 2022-Sep-08 22:40:58 ijar.wam FOREST PLANT STONE SUN - 1 2560000
285661 2022-Sep-08 22:40:25 5qupe.wam LIFE SEED SEED SUN - 1 3310000
285660 2022-Sep-08 22:40:24 i.lr2.wam FOREST GRASS SUN WATER - 1 2560000
285659 2022-Sep-08 22:38:31 i.lr2.wam GRASS PEAT RAIN SUN - 1 2170000
285658 2022-Sep-08 22:38:23 ijar.wam BACTERI FOREST SEED SUN - 1 4090000
285656 2022-Sep-08 22:36:19 i.lr2.wam GRASS MANURE RAIN SUN - 1 1810000
285654 2022-Sep-08 22:35:10 i.lr2.wam FOREST GRASS RAIN SUN - 1 2590000
285653 2022-Sep-08 22:34:30 5qupe.wam EARTH MANURE MANURE SUN - 1 2440000
285652 2022-Sep-08 22:33:58 ijar.wam MANURE PEAT SEED SUN - 1 4000000
285651 2022-Sep-08 22:33:57 5qupe.wam FOREST FOREST LIFE SUN - 1 4270000
285650 2022-Sep-08 22:33:36 5qupe.wam FOREST FOREST PLANT SUN - 1 4150000
285649 2022-Sep-08 22:32:14 5qupe.wam FOREST PLANT SEED SUN - 2 3670000
285646 2022-Sep-08 22:18:42 qz2qw.wam FOREST MANURE PEAT SUN - 1 4480000
285645 2022-Sep-08 22:17:56 5qupe.wam EARTH FOREST GRASS SUN - 1 2560000
285644 2022-Sep-08 22:16:24 gpfay.wam EARTH FOREST SEED SUN - 1 3520000
285643 2022-Sep-08 22:15:08 gpfay.wam FOREST MANURE SEED SUN - 1 4420000
285641 2022-Sep-08 22:12:42 i.lr2.wam FOREST RAIN RAIN SUN - 2 2380000
285640 2022-Sep-08 22:08:05 ijar.wam BACTERI PEAT PLANT SUN - 1 2620000
285639 2022-Sep-08 22:07:42 ijar.wam MANURE PEAT PLANT SUN - 1 2950000
285637 2022-Sep-08 22:06:49 vampireofwax BACTERI RAIN SUN TREE - 1 2020000
285636 2022-Sep-08 22:04:11 ijar.wam FOREST PEAT SEED SUN - 1 4780000
285632 2022-Sep-08 21:58:24 ijar.wam BACTERI EARTH PEAT SUN - 1 2470000
285631 2022-Sep-08 21:56:22 ijar.wam LIFE LIFE PEAT SUN - 1 2440000
285630 2022-Sep-08 21:55:49 ijar.wam LIFE MANURE PEAT SUN - 1 3070000
285629 2022-Sep-08 21:55:12 gpfay.wam ENERGY FLOOD SEED SUN - 1 2020000
285628 2022-Sep-08 21:52:16 ijar.wam BACTERI FOREST PEAT SUN - 2 4150000
285626 2022-Sep-08 21:51:31 ijar.wam FOREST PEAT PLANT SUN - 1 3730000
285625 2022-Sep-08 21:50:27 gpfay.wam FLOOD MANURE SEED SUN - 1 2890000
285624 2022-Sep-08 21:48:57 gpfay.wam DEW SEED SUN TREE - 1 3250000
285623 2022-Sep-08 21:47:24 vampireofwax BACTERI PEAT RAIN SUN - 1 2500000
285622 2022-Sep-08 21:46:47 nbgro.wam DEW LIFE PEAT SUN - 1 2800000
285621 2022-Sep-08 21:46:15 gpfay.wam MANURE RAIN SUN TREE - 1 2350000
285618 2022-Sep-08 21:44:16 ehrbq.wam EARTH FOREST SUN SWAMP - 1 2560000
285616 2022-Sep-08 21:39:54 fosay.wam FOREST GRASS MANURE SUN - 1 3460000
285615 2022-Sep-08 21:38:40 ehrbq.wam FOREST LIFE SUN SWAMP - 2 2830000
285614 2022-Sep-08 21:36:29 ehrbq.wam FOREST MANURE SUN SWAMP - 1 3460000
285613 2022-Sep-08 21:36:18 dz2aw.wam DEW EARTH FOREST SUN - 1 2950000
285612 2022-Sep-08 21:35:51 ehrbq.wam LIFE MANURE SUN SWAMP - 1 2050000
285611 2022-Sep-08 21:32:18 ijar.wam FOREST GARBAGE SUN WATER - 1 2350000
285610 2022-Sep-08 21:31:46 nbgro.wam FOREST PEAT RAIN SUN - 1 3610000
285609 2022-Sep-08 21:30:28 ijar.wam FOREST SUN WATER WATER - 1 2320000
285608 2022-Sep-08 21:27:49 ijar.wam BACTERI MANURE PLANT SUN - 1 2260000
285607 2022-Sep-08 21:26:50 ijar.wam BACTERI BACTERI MANURE SUN - 1 2680000
285606 2022-Sep-08 21:26:36 ijar.wam BACTERI MANURE MANURE SUN - 1 3010000
285605 2022-Sep-08 21:25:19 gpfay.wam FLOOD FOREST LIFE SUN - 1 2740000
285604 2022-Sep-08 21:24:39 5qupe.wam FOREST FOREST RAIN SUN - 1 4030000
285603 2022-Sep-08 21:23:49 5qupe.wam FOREST FOREST SUN WATER - 1 4000000
285602 2022-Sep-08 21:23:38 ijar.wam FOREST LIFE MUD SUN - 1 2620000
285601 2022-Sep-08 21:23:25 gpfay.wam FLOOD FOREST PLANT SUN - 1 2620000
285598 2022-Sep-08 21:22:12 ehrbq.wam GRASS LIFE MANURE SUN - 1 2050000
285597 2022-Sep-08 21:22:07 ijar.wam FOREST LIFE PLANT SUN - 1 2740000
285596 2022-Sep-08 21:21:34 gpfay.wam FLOOD FOREST MANURE SUN - 1 3370000
285595 2022-Sep-08 21:21:24 ijar.wam BACTERI FOREST LIFE SUN - 1 3160000
285594 2022-Sep-08 21:19:53 ijar.wam BACTERI FOREST MUD SUN - 1 2920000
285593 2022-Sep-08 21:19:22 ehrbq.wam DEW LIFE MANURE SUN - 1 2440000
285592 2022-Sep-08 21:19:16 nanibahaniwx FOREST SEED SUN WATER - 1 3520000
285591 2022-Sep-08 21:18:39 ijar.wam BACTERI EARTH FOREST SUN - 1 2890000
285590 2022-Sep-08 21:18:22 kingofcrypto BACTERI SEED SUN WATER - 1 2410000
285589 2022-Sep-08 21:18:00 im2qy.wam BACTERI FOREST RAIN SUN - 1 2920000
285588 2022-Sep-08 21:17:25 ijar.wam FOREST MANURE PLANT SUN - 1 3370000
285587 2022-Sep-08 21:16:25 ijar.wam FOREST PEAT SUN WATER - 2 3580000
285585 2022-Sep-08 21:15:17 4nkr.wam LIFE PEAT RAIN SUN - 1 2200000
285583 2022-Sep-08 21:14:03 qdypk.wam FOREST RAIN SHIT SUN - 1 7750000
285581 2022-Sep-08 21:13:58 ijar.wam BACTERI BACTERI FOREST SUN - 1 3460000
285580 2022-Sep-08 21:13:44 gpfay.wam DEW FOREST MANURE SUN - 2 3850000
285579 2022-Sep-08 21:13:38 ijar.wam FOREST LIFE LIFE SUN - 1 2860000
285578 2022-Sep-08 21:13:06 4nkr.wam GRASS MANURE SUN SWAMP - 1 2020000
285576 2022-Sep-08 21:12:08 ehrbq.wam AIR FOREST MANURE SUN - 1 3220000
285575 2022-Sep-08 21:11:34 ehrbq.wam ENERGY FOREST MANURE SUN - 1 3250000
285573 2022-Sep-08 21:11:23 4nkr.wam MANURE PEAT RAIN SUN - 1 2830000
285572 2022-Sep-08 21:10:49 5qupe.wam EARTH FOREST LIFE SUN - 1 2590000
285570 2022-Sep-08 21:10:48 vampireofwax BACTERI FOREST SUN WATER - 2 2890000
285569 2022-Sep-08 21:10:43 gpfay.wam FOREST RAIN SEED SUN - 1 3550000
285568 2022-Sep-08 21:10:03 4nkr.wam MANURE PEAT SUN WATER - 1 2800000
285567 2022-Sep-08 21:09:39 gpfay.wam FOREST RAIN SUN WATER - 1 2350000
285566 2022-Sep-08 21:09:30 ijar.wam BACTERI LIFE PEAT SUN - 1 2740000
285565 2022-Sep-08 21:09:08 kingofcrypto BACTERI BACTERI PLANT SUN - 1 1930000
285564 2022-Sep-08 21:08:56 ijar.wam FOREST LIFE PEAT SUN - 1 3850000
285562 2022-Sep-08 21:08:34 ijar.wam BACTERI LIFE MANURE SUN - 1 2380000
285561 2022-Sep-08 21:08:30 1puqy.wam MANURE SUN WATER WATER - 1 1540000
285559 2022-Sep-08 21:07:43 4nkr.wam PEAT SUN SWAMP WATER - 1 2140000
285557 2022-Sep-08 21:07:38 gpfay.wam FOREST PLANT RAIN SUN - 2 2500000
285555 2022-Sep-08 21:07:28 4nkr.wam PEAT RAIN SUN SWAMP - 1 2170000
285554 2022-Sep-08 21:07:18 ijar.wam FOREST LIFE MANURE SUN - 2 3490000
285552 2022-Sep-08 21:06:45 gpfay.wam FOREST PLANT SUN WATER - 2 2470000
285551 2022-Sep-08 21:06:29 kingofcrypto BACTERI PLANT SUN WATER - 1 1360000
285550 2022-Sep-08 21:06:18 5qupe.wam EARTH FOREST RAIN SUN - 1 2350000
285547 2022-Sep-08 21:05:47 5qupe.wam EARTH FOREST MANURE SUN - 1 3220000
285543 2022-Sep-08 21:04:51 5qupe.wam EARTH FOREST FOREST SUN - 1 4000000
285542 2022-Sep-08 21:04:23 1puqy.wam LIFE MANURE RAIN SUN - 1 1840000
285541 2022-Sep-08 21:04:19 5qupe.wam EARTH EARTH FOREST SUN - 1 2320000
285540 2022-Sep-08 21:04:15 ijar.wam BACTERI EARTH MANURE SUN - 1 2110000
285538 2022-Sep-08 21:04:12 vampireofwax BACTERI SUN TREE WATER - 1 1990000
285537 2022-Sep-08 21:03:47 ijar.wam BACTERI FOREST MANURE SUN - 1 3790000
285536 2022-Sep-08 21:03:33 gpfay.wam FOREST LIFE SUN WATER - 2 2590000
285534 2022-Sep-08 21:03:25 ijar.wam BACTERI EARTH SUN WATER - 1 1210000
285533 2022-Sep-08 21:03:14 nbgro.wam BACTERI PEAT SUN WATER - 1 2470000
285532 2022-Sep-08 21:03:06 ijar.wam BACTERI MANURE SUN WATER - 1 2110000
285531 2022-Sep-08 21:01:52 ehrbq.wam FOREST MANURE RAIN SUN - 3 3250000
285529 2022-Sep-08 20:30:05 1q.ay.wam CELL FOREST GRASS RAIN - 1 7750000
285522 2022-Sep-08 06:31:52 1f4aw.wam ENGINE GOLD METAL PAINT - 1 44680000
285521 2022-Sep-08 06:29:57 1f4aw.wam ENGINE GASOLIN IDEA MONEY - 1 86110000
285520 2022-Sep-08 06:26:22 1f4aw.wam ENGINE GASOLIN HANGDRM MONEY - 1 115630000
285518 2022-Sep-07 17:06:12 1q.ay.wam CELL FOREST GRASS WATER - 1 7720000
285517 2022-Sep-07 16:58:44 qz2qw.wam FIRE MILL SEED SUN - 1 4270000
285516 2022-Sep-07 02:05:50 1q.ay.wam EARTH MILL SEED SUN - 1 4270000
285515 2022-Sep-07 02:03:15 1q.ay.wam MILL PLANT SEED SUN - 1 4420000
285514 2022-Sep-07 01:26:41 1q.ay.wam ENGINE EXPLOSN MONEY MOON - 1 80140000
285504 2022-Sep-06 11:03:24 helphycrypto FOREST PLANT RAIN TREE - 1 2680000
285500 2022-Sep-05 01:58:53 1puqy.wam FORK LINEN LINEN THREAD - 1 5380000
285499 2022-Sep-05 01:56:54 1puqy.wam FORK LINEN THREAD THREAD - 1 6520000
285498 2022-Sep-05 01:52:37 1puqy.wam FORK PRESS THREAD THREAD - 1 5500000
285497 2022-Sep-05 01:51:08 1puqy.wam FORK THREAD THREAD THREAD - 1 7660000
285496 2022-Sep-05 01:35:21 1puqy.wam ELECTRC PRESS STORM STORM - 1 2920000
285494 2022-Sep-05 01:29:05 1puqy.wam ENERGY SOUND STORM STORM - 2 2320000
285493 2022-Sep-05 01:28:27 1puqy.wam ELECTRC SOUND STORM STORM - 1 3700000
285492 2022-Sep-05 01:25:28 1puqy.wam ATMSPHE ELECTRC PRESS PRESS - 1 1630000
285491 2022-Sep-05 01:24:43 1puqy.wam ELECTRC PRESS PRESS RAIN - 1 1540000
285490 2022-Sep-05 01:23:30 1puqy.wam ELECTRC PRESS PRESS STORM - 1 2230000
285489 2022-Sep-05 01:18:09 1puqy.wam ATMSPHE ELECTRC ELECTRC PRESS - 1 3010000
285488 2022-Sep-05 01:16:31 1puqy.wam ELECTRC ELECTRC PRESS STORM - 1 3610000
285487 2022-Sep-05 01:14:34 1puqy.wam ATMSPHE ELECTRC ELECTRC SOUND - 1 3790000
285486 2022-Sep-05 01:12:32 1puqy.wam ELECTRC ELECTRC RAIN SOUND - 1 3700000
285485 2022-Sep-05 01:10:18 1puqy.wam CLOUD ELECTRC ENERGY SOUND - 1 2590000
285483 2022-Sep-05 01:02:13 1puqy.wam AIR ELECTRC ELECTRC ENERGY - 1 2890000
285482 2022-Sep-05 01:01:01 1puqy.wam ELECTRC ELECTRC ENERGY SKY - 1 3460000
285481 2022-Sep-05 00:59:24 1puqy.wam ELECTRC ELECTRC ENERGY RAIN - 1 2920000
285480 2022-Sep-05 00:57:00 1puqy.wam ATMSPHE ELECTRC ELECTRC ENERGY - 1 3010000
285479 2022-Sep-05 00:45:13 vampireofwax RIVER STONE STONE WATER - 1 1240000
285477 2022-Sep-04 20:00:02 br2ay.wam ENERGY LIFE OCEAN SEAWEED - 1 1870000
285476 2022-Sep-04 17:43:12 b1cru.wam KETTLE MUG MUG WATER - 1 9130000
285475 2022-Sep-04 17:27:36 qz2qw.wam FIRE LIFE PLANT SEED - 1 1660000
285471 2022-Sep-04 12:32:48 4nkr.wam ENERGY FIRE PLANT PLANT - 1 370000
285470 2022-Sep-04 12:31:45 4nkr.wam ENERGY PLANT PLANT TREE - 1 1150000
285465 2022-Sep-04 08:53:34 vampireofwax MANURE SUN TREE WATER - 1 2320000
285464 2022-Sep-04 00:52:04 5qupe.wam MANURE PLANT SUN SUN - 1 2290000
285462 2022-Sep-03 18:03:52 saterlendwax EARTH FORK RESIN WATER - 1 3490000
285461 2022-Sep-03 18:03:36 saterlendwax AMBER EARTH FORK WATER - 1 10150000
285460 2022-Sep-03 18:03:17 saterlendwax FORK PRESS RAIN RESIN - 1 3550000
285459 2022-Sep-03 17:31:00 ijar.wam EARTH MANURE MANURE SEED - 1 3040000
285458 2022-Sep-03 16:43:37 nbgro.wam ENERGY SEED SEED SEED - 1 3670000
285456 2022-Sep-02 15:52:23 n1.ee.wam ENERGY ENERGY ENERGY GUNPWDR - 1 250000
285455 2022-Sep-02 15:51:25 n1.ee.wam DUST FIRE GUNPWDR WATER - 1 190000
285454 2022-Sep-02 15:41:52 5qupe.wam EARTHQ ENERGY RIVER WATER - 1 1180000
285453 2022-Sep-02 15:40:43 5qupe.wam ENERGY RIVER STONE WATER - 1 1180000
285452 2022-Sep-02 15:39:25 5qupe.wam FOREST GRASS GRASS PLANT - 1 2350000
285449 2022-Sep-02 00:26:05 ehrbq.wam MANURE PLANT SAND SEED - 1 2740000
285448 2022-Sep-02 00:25:07 ehrbq.wam PEAT PLANT SAND SEED - 1 3100000
285446 2022-Sep-02 00:20:40 ehrbq.wam EARTH ENERGY MANURE SEED - 1 2170000
285444 2022-Sep-01 23:13:24 tdfay.wam ENERGY ENERGY PEAT SEED - 1 2560000
285442 2022-Sep-01 23:11:56 tdfay.wam ENERGY PEAT PLANT SEED - 1 2680000
285441 2022-Sep-01 22:20:57 tdfay.wam ENERGY LIFE SEED TREE - 1 2320000
285438 2022-Sep-01 21:48:43 ge3r2.wam ENERGY HILL RIVER TIME - 1 7210000
285437 2022-Sep-01 21:44:02 1puqy.wam ENERGY PLANT SEED SEED - 1 2620000
285435 2022-Sep-01 21:40:32 tdfay.wam EARTH ENERGY SEED TREE - 1 2050000
285434 2022-Sep-01 21:36:32 1puqy.wam ENERGY MILL PLANT SEED - 1 3850000
285432 2022-Sep-01 21:35:15 1puqy.wam ENERGY ENERGY MILL SEED - 1 3730000
285430 2022-Sep-01 21:32:25 ge3r2.wam HEAT HILL PLANT PLANT - 1 1780000
285429 2022-Sep-01 21:28:03 ge3r2.wam HILL SEED TREE WATER - 1 3430000
285424 2022-Sep-01 21:18:11 tdfay.wam ENERGY ENERGY MANURE SEED - 1 2200000
285419 2022-Sep-01 21:10:24 propi1111111 AIR FIRE WATER WIND - 1 160000
285418 2022-Sep-01 21:08:44 propi1111111 EARTH FIRE GARBAGE LIFE - 1 340000
285417 2022-Sep-01 21:03:09 5qupe.wam ENERGY RIVER RIVER WATER - 1 2110000
285413 2022-Sep-01 20:56:33 ijar.wam CLAY PAINT PRESS PRESS - 1 3520000
285412 2022-Sep-01 20:56:27 4nkr.wam CLAY CLAY ENERGY PAINT - 1 4120000
285411 2022-Sep-01 20:56:16 tdfay.wam CLAY ENERGY PAINT WATER MUG 1 3490000
285409 2022-Sep-01 20:56:12 ijar.wam CLAY PAINT PRESS WATER - 1 3490000
285404 2022-Sep-01 20:54:52 4nkr.wam CLAY EARTH EARTH PAINT - 1 3460000
285403 2022-Sep-01 20:54:36 ehrbq.wam CLAY HEAT PAINT PAINT - 1 6280000
285401 2022-Sep-01 20:54:07 4nkr.wam CLAY PAINT SUN WATER - 1 4060000
285398 2022-Sep-01 20:53:56 ijar.wam CLAY PAINT WATER WATER - 1 3460000
285395 2022-Sep-01 20:53:30 ijar.wam CLAY CLAY PAINT WATER - 2 4090000
285391 2022-Sep-01 20:52:56 ehrbq.wam FIRE PAINT PRESS WATER - 1 2860000
285384 2022-Sep-01 20:51:54 4nkr.wam CLAY CLAY PAINT PRESS - 2 4120000
285380 2022-Sep-01 20:51:31 ijar.wam CLAY FIRE FIRE PAINT - 3 3460000
285379 2022-Sep-01 20:51:14 4nkr.wam BOILER CLAY CLAY PAINT - 1 4840000
285374 2022-Sep-01 20:50:18 5qupe.wam CLAY CLAY CLAY PAINT - 1 4720000
285371 2022-Sep-01 18:54:10 4nkr.wam ENERGY ENERGY HORIZON STORM - 1 2350000
285370 2022-Sep-01 18:54:00 4nkr.wam HORIZON RAIN RAIN STORM - 1 2350000
285369 2022-Sep-01 18:51:35 4nkr.wam ENERGY HORIZON RAIN STORM - 1 2350000
285368 2022-Sep-01 11:53:10 1puqy.wam LIFE MANURE MANURE RAIN - 1 2140000
285367 2022-Sep-01 11:51:54 1puqy.wam LIFE MANURE MANURE WATER - 1 2110000
285366 2022-Sep-01 11:50:40 1puqy.wam LIFE MANURE MANURE MANURE - 1 3010000
285364 2022-Sep-01 11:47:18 1puqy.wam FOREST GRASS LIFE MANURE - 1 3130000
285363 2022-Sep-01 11:46:32 1puqy.wam GRASS LIFE MANURE WATER - 1 1450000
285362 2022-Sep-01 11:44:02 1puqy.wam GRASS LIFE MANURE RAIN - 1 1480000
285359 2022-Aug-31 19:21:17 ghhfw.wam ATMSPHE HEAT PLANT WATER - 1 340000
285358 2022-Aug-31 09:02:09 vampireofwax LINEN LINEN MILL PRESS - 1 4600000
285357 2022-Aug-31 04:50:28 1f4aw.wam ENGINE GASOLIN IQ MONEY - 1 80080000
285356 2022-Aug-31 03:44:39 ijar.wam EARTH SEED SEED TREE - 1 3220000
285355 2022-Aug-31 03:43:15 ijar.wam EARTH EARTH SEED TREE - 1 2020000
285353 2022-Aug-30 23:05:26 smartces1234 EARTH MANURE RAIN SUN - 2 1570000
285352 2022-Aug-30 15:04:59 lpqye.wam MILL MILL MILL MILL - 1 9760000
285351 2022-Aug-30 06:55:58 br2ay.wam ENERGY MANURE PLANT RAIN - 1 1150000
285350 2022-Aug-30 06:51:01 br2ay.wam HILL RAIN SUN TREE - 1 2860000
285345 2022-Aug-29 20:24:28 vampireofwax LINEN MILL WATER WATER - 1 3520000
285344 2022-Aug-29 20:20:05 vampireofwax LINEN LINEN MILL WATER - 1 4570000
285343 2022-Aug-29 20:17:45 nbgro.wam ELECTRC ELECTRC ELECTRC RAIN - 1 4300000
285341 2022-Aug-29 19:39:15 mikevikingmc FIRE FIRE HEAT MUD - 1 100000
285340 2022-Aug-29 19:29:10 ijar.wam EARTH MILL PLANT SEED - 1 3820000
285339 2022-Aug-29 15:24:53 42lra.wam LIMSTON PRESS PRESS SEA - 1 4900000
285338 2022-Aug-29 15:16:51 42lra.wam LIMSTON PRESS SEA SEA - 1 4900000
285337 2022-Aug-29 15:06:35 vampireofwax EARTH MILL PLANT WATER - 1 2620000
285336 2022-Aug-29 15:03:59 vampireofwax MILL PLANT SUN WATER - 1 3220000
285335 2022-Aug-29 14:55:16 42lra.wam HEAT MANURE TREE WATER - 1 1750000
285334 2022-Aug-29 14:49:33 4nkr.wam LINEN LINEN LINEN MILL - 1 5620000
285333 2022-Aug-29 14:27:15 42lra.wam BACTERI HEAT MILL TREE - 1 3850000
285332 2022-Aug-29 14:23:35 tg4rc.wam CLAY CLAY WHEAT WINDMIL - 1 3070000
285331 2022-Aug-29 14:22:08 cnbba.wam METORIT RIVER RIVER WINDMIL - 1 11080000
285330 2022-Aug-29 14:20:56 4nkr.wam ENERGY TREE TREE WHEAT MILL 1 2440000
285329 2022-Aug-29 14:20:28 jf5b2.wam STONE STONE WHEAT WIND - 1 1150000
285328 2022-Aug-29 14:20:27 rplanetrobot WALL WHEAT WIND WIND - 1 1420000
285327 2022-Aug-29 14:19:53 kingofcrypto BRICK BRICK WHEAT WINDMIL - 1 1990000
285325 2022-Aug-29 14:18:21 ijar.wam PRESS PRESS RIVER WHEAT - 1 1930000
285322 2022-Aug-29 14:17:09 ijar.wam PRESS PRESS WATER WHEAT - 1 910000
285321 2022-Aug-29 14:16:24 lv5b.wam WALL WALL WHEAT WINDMIL - 1 2470000
285320 2022-Aug-29 14:15:08 ijar.wam FLOUR WHEAT WINDMIL WINDMIL - 1 5260000
285319 2022-Aug-29 14:14:21 cnbba.wam RIVER WHEAT WINDMIL WINDMIL - 1 3790000
285315 2022-Aug-29 14:11:58 ijar.wam FLOUR STONE STONE WHEAT - 1 3520000
285314 2022-Aug-29 14:11:53 4nkr.wam WHEAT WIND WINDMIL WINDMIL - 3 2890000
285312 2022-Aug-29 14:10:55 tdfay.wam TREE TREE WHEAT WINDMIL - 1 3370000
285309 2022-Aug-29 14:09:34 ijar.wam PRESS PRESS STONE WHEAT - 1 1000000
285308 2022-Aug-29 14:09:10 cnbba.wam AIR AIR WHEAT WINDMIL - 1 1810000
285307 2022-Aug-29 14:09:03 tdfay.wam TREE WHEAT WINDMIL WINDMIL - 1 3550000
285306 2022-Aug-29 14:08:58 4nkr.wam ENERGY METAL METAL WHEAT - 2 2200000
285305 2022-Aug-29 14:08:46 ijar.wam STONE WHEAT WINDMIL WINDMIL - 2 2860000
285303 2022-Aug-29 14:07:34 tdfay.wam RIVER RIVER WHEAT WINDMIL - 2 3850000
285302 2022-Aug-29 14:06:44 4nkr.wam ENERGY STONE WHEAT WHEAT - 1 1780000
285301 2022-Aug-29 14:06:40 cnbba.wam ENERGY WHEAT WINDMIL WINDMIL - 1 2800000
285300 2022-Aug-29 14:05:58 rprqy.wam BRICK WHEAT WIND WIND - 1 1180000
285299 2022-Aug-29 14:05:45 tdfay.wam RIVER TREE TREE WHEAT - 1 3430000
285298 2022-Aug-29 14:05:20 tdfay.wam RIVER RIVER TREE WHEAT - 1 3670000
285297 2022-Aug-29 14:04:40 rprqy.wam BRICK BRICK WHEAT WIND - 1 1150000
285293 2022-Aug-28 10:06:28 1puqy.wam PENCIL STONE STONE STONE - 1 5590000
285288 2022-Aug-28 09:55:47 1puqy.wam FIRE MUD SAND STONE - 1 610000
285279 2022-Aug-26 13:50:08 hp43e.c.wam CLOUD ENERGY PRESS VULCANO - 1 880000
285278 2022-Aug-26 10:04:03 hh2qw.wam CLOUD ELECTRC STORM WATER - 1 2470000
285277 2022-Aug-26 06:06:08 nbgro.wam CLOUD ELECTRC PLASMA SKY - 1 3040000
285276 2022-Aug-25 21:24:15 ehrbq.wam ATMSPHE ELECTRC ENERGY RAIN - 1 1630000
285275 2022-Aug-25 21:23:22 ehrbq.wam ATMSPHE ELECTRC ENERGY WATER - 1 1600000
285274 2022-Aug-25 21:22:41 ehrbq.wam ELECTRC ENERGY SKY WATER - 1 2050000
285273 2022-Aug-25 21:21:40 ehrbq.wam ELECTRC ENERGY STORM WATER - 1 2200000
285272 2022-Aug-25 21:20:41 ehrbq.wam CLOUD ENERGY STORM WATER - 1 1090000
285271 2022-Aug-25 21:18:47 ehrbq.wam ELECTRC RAIN STORM WATER - 1 2200000
285270 2022-Aug-25 21:17:58 ehrbq.wam CLOUD ELECTRC RAIN WATER - 1 1780000
285263 2022-Aug-24 07:37:51 hh2qw.wam CLOUD ELECTRC ENERGY WATER - 1 1780000
285262 2022-Aug-24 05:48:52 1f4aw.wam BEACH DESERT HILL HORIZON - 1 6910000
285261 2022-Aug-24 04:16:59 nbgro.wam CLAY GLASS HEAT STONE - 1 1270000
285259 2022-Aug-24 00:39:46 gpfay.wam CLAY EARTH HEAT STONE - 1 790000
285258 2022-Aug-24 00:39:11 gpfay.wam CLAY EARTH FIRE STONE - 1 760000
285257 2022-Aug-23 20:45:17 vampireofwax AIR GLASS GLASS HEAT - 1 1030000
285256 2022-Aug-23 20:41:15 vampireofwax GLASS GLASS HEAT KNIFE - 1 4840000
285255 2022-Aug-23 20:29:37 vampireofwax GLASS GLASS HEAT HEAT - 1 1060000
285253 2022-Aug-23 20:27:53 vampireofwax FIRE GLASS GLASS PRESS - 1 1030000
285247 2022-Aug-23 13:55:21 hgfqq.wam RIVER STONE STONE WALL - 1 1570000
285246 2022-Aug-23 13:37:07 hgfqq.wam ENERGY FLOUR WHEAT WINDMIL - 1 4330000
285245 2022-Aug-23 13:13:39 hgfqq.wam DEATH METORIT PLANET RAIN - 1 21070000
285244 2022-Aug-23 12:43:46 kingofcrypto ENERGY ENERGY ENERGY LINEN - 1 1180000
285242 2022-Aug-23 11:44:33 vampireofwax GLASS GLASS HEAT WATER - 1 1030000
285241 2022-Aug-23 11:43:42 vampireofwax FIRE GLASS GLASS GLASS - 1 1480000
285240 2022-Aug-23 11:41:29 vampireofwax FIRE FIRE GLASS GLASS - 1 1000000
285239 2022-Aug-23 11:39:22 vampireofwax FIRE GLASS GLASS WATER - 1 1000000
285236 2022-Aug-23 06:54:11 1puqy.wam ELECTRC SKY STORM STORM - 1 3460000
285235 2022-Aug-23 05:06:16 1puqy.wam ELECTRC STORM STORM WIND - 1 3010000
285234 2022-Aug-23 05:05:28 1puqy.wam ELECTRC STORM WIND WIND - 1 2410000
285232 2022-Aug-22 23:54:45 1f4aw.wam CLUB ENGINE GASOLIN MONEY - 1 123820000
285231 2022-Aug-22 22:17:10 irosfearwax1 CLAY RUST SAND WATER - 1 1810000
285230 2022-Aug-22 21:31:27 irosfearwax1 CLAY CLAY CLAY GLASS - 1 2410000
285229 2022-Aug-22 21:28:16 irosfearwax1 CLAY CLAY GLASS GLASS - 1 2260000
285228 2022-Aug-22 21:24:41 irosfearwax1 CLAY CLAY GLASS WATER - 1 1780000
285227 2022-Aug-22 21:22:17 irosfearwax1 CLAY CLAY FIRE GLASS - 1 1780000
285226 2022-Aug-22 21:20:46 irosfearwax1 CLAY CLAY GLASS HEAT - 1 1810000
285224 2022-Aug-22 17:12:51 b1cru.wam FOREST FOREST NECKLAC NECKLAC - 1 6580000
285222 2022-Aug-22 10:59:59 ehrbq.wam ENERGY WALL WHEAT WINDMIL - 1 2170000
285221 2022-Aug-22 10:59:26 ehrbq.wam STONE WALL WHEAT WINDMIL - 1 2230000
285220 2022-Aug-22 10:56:29 ehrbq.wam BRICK WALL WALL WINDMIL - 1 1750000
285219 2022-Aug-22 10:20:52 kingofcrypto BRICK ENERGY STONE WINDMIL - 1 1210000
285218 2022-Aug-22 10:18:52 kingofcrypto BRICK BRICK STONE WINDMIL - 1 1270000
285217 2022-Aug-22 09:42:27 vampireofwax CLOUD ICE RAIN WATER - 1 790000
285216 2022-Aug-21 22:35:56 5qupe.wam EARTH ELECTRC PRESS WIND - 1 1600000
285214 2022-Aug-21 21:31:50 ehrbq.wam EARTH ELECTRC SOUND WIND - 1 2380000
285213 2022-Aug-21 21:08:51 nanibahaniwx CLOUD FIRE STORM WATER - 1 1060000
285212 2022-Aug-21 21:01:59 nanibahaniwx CLOUD EARTH FIRE STORM - 1 1060000
285211 2022-Aug-21 21:01:21 nanibahaniwx CLOUD EARTH FIRE WIND - 1 460000
285210 2022-Aug-21 20:26:51 l.ion RICE WHEAT WIND WINDMIL - 1 3760000
285209 2022-Aug-21 19:52:08 vampireofwax LIFE MNTAIN RIVER STONE - 1 2050000
285208 2022-Aug-21 19:43:15 vampireofwax MNTAIN MNTAIN RIVER STONE - 1 2410000
285207 2022-Aug-21 18:59:44 kingofcrypto CLOUD HEAT HEAT HEAT - 1 430000
285206 2022-Aug-21 16:53:14 5qupe.wam EARTHQ RIVER RIVER RIVER - 1 3190000
285204 2022-Aug-21 15:38:01 u55qy.wam EARTHQ RAINBOW RIVER WATER - 1 3910000
285202 2022-Aug-21 11:26:45 ehrbq.wam ELECTRC HEAT RAIN STORM - 1 2230000
285201 2022-Aug-21 11:24:45 ehrbq.wam AIR EARTH ELECTRC HEAT - 1 1480000
285200 2022-Aug-21 11:23:28 ehrbq.wam AIR ELECTRC HEAT RAIN - 1 1510000
285196 2022-Aug-21 11:08:17 gpfay.wam ELECTRC ELECTRC ELECTRC SKY - 1 4840000
285195 2022-Aug-21 11:06:40 gpfay.wam ELECTRC ELECTRC EXPLOSN EXPLOSN - 1 3460000
285193 2022-Aug-21 07:13:34 nbgro.wam CLOUD ELECTRC EXPLOSN PLASMA - 1 2770000
285191 2022-Aug-21 05:37:03 1f4aw.wam COIN GAS GAS IDEA - 1 48190000
285190 2022-Aug-21 05:26:59 nbgro.wam PRESS TREE WATER WIND - 1 970000
285188 2022-Aug-21 05:13:52 nbgro.wam ENERGY TREE WATER WIND - 1 970000
285187 2022-Aug-21 03:38:40 hsvqw.wam CLAY COAL ENERGY MUD - 1 1000000
285185 2022-Aug-20 21:32:27 1f4aw.wam BLCKCHN BLOCK COIN GAS - 1 29620000
285184 2022-Aug-20 20:20:53 gpfay.wam ELECTRC ENERGY EXPLOSN STORM - 1 2500000
285183 2022-Aug-20 19:26:45 vampireofwax CLOUD STORM STORM STORM - 1 2500000
285182 2022-Aug-20 18:29:53 42lra.wam FOAM HILL STONE WATER - 1 4360000
285181 2022-Aug-20 18:22:51 42lra.wam FOAM MNTAIN STONE WATER - 1 3580000
285180 2022-Aug-20 17:04:28 vampireofwax CLOUD CLOUD ENERGY STORM - 1 1390000
285179 2022-Aug-20 16:51:03 1f4aw.wam BITCOIN CHMPAGN COIN ENGINE - 1 64540000
285178 2022-Aug-20 16:49:51 yjdqu.wam LIFE MNTAIN PLANT WATER - 1 1090000
285174 2022-Aug-20 06:33:46 zimgladstops FOG HILL MNTAIN RIVER - 1 3460000
285173 2022-Aug-20 06:30:33 zimgladstops FOG HILL RIVER STEAM - 1 2860000
285172 2022-Aug-20 03:45:32 u55qy.wam ARCHIP RIVER STONE STONE - 1 3280000
285171 2022-Aug-20 03:11:52 hsvqw.wam CLAY CLAY COAL ENERGY - 1 1600000
285170 2022-Aug-20 03:02:03 hsvqw.wam CLAY CLAY CLAY COAL - 1 2200000
285169 2022-Aug-20 02:53:27 1puqy.wam ENERGY LIFE MANURE WATER - 1 1240000
285168 2022-Aug-20 01:09:05 ge3r2.wam ENERGY LIFE SEA SEAWEED - 1 1750000
285166 2022-Aug-20 00:51:49 db1rc.wam DEW FOREST MANURE MANURE - 1 4150000
285165 2022-Aug-20 00:46:52 ge3r2.wam EARTH FOREST MANURE SWAMP - 1 2860000
285164 2022-Aug-20 00:37:45 ge3r2.wam EARTH EARTH MANURE MANURE - 1 1840000
285163 2022-Aug-20 00:32:52 ge3r2.wam EARTH MANURE PEAT WATER - 1 2200000
285162 2022-Aug-19 23:17:57 1puqy.wam LIFE LIFE LIFE MANURE - 1 1750000
285161 2022-Aug-19 23:14:22 1puqy.wam LIFE LIFE MANURE RAIN - 1 1510000
285160 2022-Aug-19 23:07:57 1puqy.wam LIFE LIFE MANURE WATER - 1 1480000
285157 2022-Aug-19 22:40:27 1puqy.wam MANURE WATER WATER WATER - 1 940000
285156 2022-Aug-19 20:42:21 ehrbq.wam EARTH FOREST FOREST LIFE - 1 3670000
285154 2022-Aug-19 20:40:20 ehrbq.wam BACTERI BACTERI FOREST MANURE - 1 3760000
285153 2022-Aug-19 20:39:49 ehrbq.wam BACTERI BACTERI FOREST LIFE - 1 3130000
285152 2022-Aug-19 20:35:08 ehrbq.wam HEAT PLASTIC PRESS PRESS - 1 2110000
285151 2022-Aug-19 20:34:29 ehrbq.wam HEAT PRESS PRESS RICE - 1 1960000
285150 2022-Aug-19 19:40:45 42lra.wam PRESS STONE WATER WINDMIL - 1 1120000
285149 2022-Aug-19 19:27:58 4nkr.wam AIR METAL PRESS STONE - 1 820000
285148 2022-Aug-19 19:27:28 4nkr.wam EARTH METAL PRESS STONE - 1 820000
285146 2022-Aug-19 19:25:59 4nkr.wam METAL PRESS STONE WATER - 1 820000
285145 2022-Aug-19 19:11:23 kingofcrypto FOREST GRASS MANURE TREE - 1 3640000
285144 2022-Aug-19 19:07:52 42lra.wam ENERGY STONE STONE WINDMIL - 1 1210000
285143 2022-Aug-19 19:04:51 lv5b.wam AIR HEAT SEED SEED - 1 2470000
285142 2022-Aug-19 19:04:28 42lra.wam STONE STONE WATER WINDMIL - 1 1180000
285141 2022-Aug-19 15:02:09 nanibahaniwx FIRE LIFE PLANT WATER - 1 460000
285140 2022-Aug-19 15:01:27 nanibahaniwx FIRE PLANT SUN WATER - 1 790000
285139 2022-Aug-19 14:53:52 nanibahaniwx EARTH FIRE TREE WATER - 1 820000
285138 2022-Aug-19 14:12:44 lv5b.wam AIR HEAT SEED WATER - 1 1270000
285137 2022-Aug-19 14:10:34 lv5b.wam AIR HEAT HEAT SEED - 1 1300000
285136 2022-Aug-19 14:08:47 lv5b.wam AIR FIRE FIRE SEED - 1 1240000
285135 2022-Aug-19 13:54:04 lv5b.wam FIRE PLANT SEED WATER - 1 1390000
285134 2022-Aug-19 13:17:08 lv5b.wam FIRE FIRE SEED WATER - 1 1240000
285133 2022-Aug-19 12:44:18 lv5b.wam FIRE FIRE PLANT SEED - 1 1390000
285132 2022-Aug-19 11:59:46 hgfqq.wam FOG FOREST KNIFE RAIN - 1 5920000
285129 2022-Aug-19 11:29:45 ehrbq.wam PEAT PLANT SEED TREE - 1 3430000
285128 2022-Aug-19 11:28:27 ehrbq.wam MANURE PEAT PLANT SEED - 1 3550000
285127 2022-Aug-19 11:26:58 ehrbq.wam MANURE SAND SEED VULCANO - 1 3070000
285126 2022-Aug-19 11:25:57 ehrbq.wam MANURE PLANT SAND VULCANO - 1 2020000
285125 2022-Aug-19 11:02:47 5qupe.wam EARTH FOREST GRASS PLANT - 1 2110000
285124 2022-Aug-19 11:00:15 5qupe.wam FOREST LIFE MANURE PLANT - 1 3040000
285123 2022-Aug-19 10:59:51 5qupe.wam FOREST LIFE MANURE SEED - 1 4090000
285122 2022-Aug-19 09:47:52 ehrbq.wam MANURE MNTAIN PLANT SEED - 1 2920000
285121 2022-Aug-19 09:46:39 ehrbq.wam MANURE MUD PLANT SEED - 1 2320000
285120 2022-Aug-19 09:45:39 ehrbq.wam ENERGY MANURE PLANT SEED - 1 2320000
285119 2022-Aug-19 08:07:58 5qupe.wam EARTH FOREST RAIN SEED - 1 2950000
285118 2022-Aug-19 06:15:03 ge3r2.wam FOREST LIFE MANURE PEAT - 1 4150000
285117 2022-Aug-19 06:09:09 ge3r2.wam WATER WHEAT WIND WINDMIL - 1 1930000
285116 2022-Aug-19 06:06:27 ge3r2.wam RIVER STONE WHEAT WINDMIL - 1 2920000
285115 2022-Aug-19 06:04:57 1f4aw.wam CLUB ENGINE MONEY NFT - 1 181930000
285114 2022-Aug-19 06:03:21 ge3r2.wam RIVER TILING WIND WINDMIL - 1 3490000
285113 2022-Aug-19 06:01:27 ge3r2.wam BRICK RIVER TILING WINDMIL - 1 3460000
285112 2022-Aug-19 05:58:28 1f4aw.wam BITCOIN ENGINE GOLD MONEY - 1 95860000
285110 2022-Aug-19 05:51:03 tg4rc.wam MANURE PLANT PLANT SEED - 1 2440000
285109 2022-Aug-19 05:44:38 1f4aw.wam CLUB ENGINE MONEY RESIN - 1 125110000
285108 2022-Aug-19 05:42:29 1f4aw.wam BATTERY ENGINE PAINT PLASTIC - 1 27880000
285107 2022-Aug-19 03:34:52 1puqy.wam LIFE MANURE RAIN RAIN - 2 1270000
285106 2022-Aug-19 03:16:21 1puqy.wam LIFE MANURE RAIN WATER - 1 1240000
285105 2022-Aug-19 03:04:26 1puqy.wam LIFE MANURE SHIT WATER - 1 6610000
285104 2022-Aug-19 03:00:40 1puqy.wam LIFE MANURE WATER WATER - 1 1210000
285103 2022-Aug-19 02:56:10 1f4aw.wam COIN ENGINE MONEY MOON - 2 104470000
285100 2022-Aug-19 00:49:05 br2ay.wam RIVER STONE TILING WINDMIL - 1 3460000
285099 2022-Aug-19 00:42:39 gpfay.wam FLOOD FOREST MANURE PLANT - 1 2920000
285098 2022-Aug-19 00:22:52 gpfay.wam BOILER CLAY GLASS PRESS - 1 1930000
285097 2022-Aug-19 00:21:35 gpfay.wam BOILER CLAY GLASS HEAT - 1 1930000
285096 2022-Aug-19 00:21:34 phbb4.wam DEW EARTH FOREST MANURE - 1 3250000
285094 2022-Aug-19 00:18:59 gpfay.wam BOILER CLAY FIRE GLASS - 1 1900000
285092 2022-Aug-19 00:17:27 5qupe.wam EARTH HEAT MANURE PLANT - 1 1120000
285091 2022-Aug-19 00:17:26 gpfay.wam BOILER CLAY GLASS WATER - 1 1900000
285089 2022-Aug-19 00:16:32 phbb4.wam FOREST MANURE TREE WATER - 1 3400000
285087 2022-Aug-19 00:16:04 phbb4.wam FOREST HEAT MANURE WATER - 1 2650000
285084 2022-Aug-19 00:14:28 5qupe.wam MANURE PLANT PLANT SUN - 1 1840000
285083 2022-Aug-19 00:13:51 5qupe.wam MANURE PLANT PLANT RAIN - 2 1270000
285082 2022-Aug-19 00:13:15 5qupe.wam MANURE PLANT PLANT PLANT - 1 1390000
285079 2022-Aug-19 00:10:52 5qupe.wam LIFE MANURE PLANT RAIN - 1 1390000
285078 2022-Aug-19 00:10:21 5qupe.wam LIFE MANURE PLANT PLANT - 1 1510000
285075 2022-Aug-19 00:08:38 5qupe.wam LIFE LIFE MANURE PLANT - 1 1630000
285072 2022-Aug-19 00:05:23 5qupe.wam EARTH MANURE PLANT PLANT - 1 1240000
285071 2022-Aug-19 00:04:58 5qupe.wam EARTH MANURE MANURE PLANT - 1 1990000
285069 2022-Aug-19 00:03:09 5qupe.wam EARTH LIFE MANURE PLANT - 1 1360000
285068 2022-Aug-19 00:02:27 5qupe.wam EARTH EARTH MANURE PLANT - 1 1090000
285067 2022-Aug-18 23:41:03 tdfay.wam ENERGY RIVER RIVER TREE - 1 2890000
285066 2022-Aug-18 23:38:46 tdfay.wam ENERGY RIVER RIVER WINDMIL - 1 3070000
285065 2022-Aug-18 23:38:05 1puqy.wam ENERGY FOREST MANURE RAIN - 1 2680000
285064 2022-Aug-18 23:36:03 1puqy.wam FOREST MANURE RAIN WATER - 1 2650000
285063 2022-Aug-18 23:20:41 5qupe.wam CHAIN CHAIN PLANT PLANT - 1 2380000
285062 2022-Aug-18 23:20:27 5qupe.wam CHAIN PLANT PLANT PLANT - 1 1510000
285061 2022-Aug-18 23:19:21 kingofcrypto EARTH MANURE MANURE WATER - 1 1840000
285060 2022-Aug-18 22:43:10 42lra.wam BACTERI HEAT TREE WATER - 1 1420000
285059 2022-Aug-18 22:35:04 5qupe.wam MANURE SEED SEED WATER - 1 3340000
285058 2022-Aug-18 22:34:28 5qupe.wam MANURE SEED SEED SUN - 1 3940000
285056 2022-Aug-18 22:32:10 5qupe.wam HEAT MANURE PLANT SEED - 1 2320000
285055 2022-Aug-18 22:31:21 5qupe.wam HEAT LIFE MANURE SEED - 1 2440000
285054 2022-Aug-18 22:30:46 5qupe.wam EARTH MANURE SEED SEED - 1 3340000
285053 2022-Aug-18 22:25:21 5qupe.wam EARTH EARTH MANURE SEED - 1 2140000
285052 2022-Aug-18 22:16:28 1puqy.wam FOREST LIFE MANURE RAIN - 2 2920000
285051 2022-Aug-18 22:13:14 5qupe.wam MANURE PLANT SEED SEED - 1 3490000
285050 2022-Aug-18 22:11:08 5qupe.wam MANURE PLANT RAIN SEED - 1 2320000
285049 2022-Aug-18 22:06:41 5qupe.wam LIFE MANURE SEED WATER - 1 2410000
285048 2022-Aug-18 22:06:16 5qupe.wam LIFE MANURE SEED SUN - 1 3010000
285047 2022-Aug-18 22:05:41 5qupe.wam LIFE MANURE RAIN SEED - 1 2440000
285046 2022-Aug-18 22:04:50 5qupe.wam LIFE MANURE PLANT SEED - 1 2560000
285045 2022-Aug-18 22:04:16 5qupe.wam HEAT MANURE SEED SUN - 2 2770000
285044 2022-Aug-18 21:59:01 5qupe.wam EARTH HEAT MANURE SEED - 1 2170000
285043 2022-Aug-18 21:58:17 5qupe.wam EARTH LIFE MANURE SEED - 1 2410000
285042 2022-Aug-18 21:49:58 1puqy.wam HEAT LIFE MANURE RAIN - 1 1270000
285041 2022-Aug-18 21:42:28 nanibahaniwx CLOUD EARTH ELECTRC METAL - 1 2410000
285040 2022-Aug-18 21:42:10 5qupe.wam PRESS STONE WINDMIL WINDMIL - 1 2080000
285039 2022-Aug-18 21:41:51 5qupe.wam STONE STONE STONE WINDMIL - 1 1270000
285038 2022-Aug-18 21:41:38 5qupe.wam WHEAT WINDMIL WINDMIL WINDMIL - 1 3730000
285037 2022-Aug-18 21:39:34 5qupe.wam PRESS WINDMIL WINDMIL WINDMIL - 1 2950000
285036 2022-Aug-18 21:39:17 irosfearwax1 DEW FOREST RADITON RAIN - 1 4810000
285035 2022-Aug-18 21:33:57 5qupe.wam FOREST MANURE PLANT PLANT - 1 2920000
285034 2022-Aug-18 21:32:59 5qupe.wam EARTH FOREST MANURE RAIN - 1 2650000
285033 2022-Aug-18 21:32:21 5qupe.wam EARTH EARTH FOREST MANURE - 1 2620000
285032 2022-Aug-18 21:25:03 5qupe.wam ELECTRC EXPLOSN RAIN RAIN - 1 1810000
285031 2022-Aug-18 21:24:41 5qupe.wam ELECTRC ENERGY RAIN RAIN - 1 1540000
285030 2022-Aug-18 21:24:14 5qupe.wam ELECTRC ENERGY EXPLOSN RAIN - 1 1810000
285029 2022-Aug-18 21:23:21 5qupe.wam ELECTRC ENERGY ENERGY RAIN - 1 1540000
285026 2022-Aug-18 19:36:34 kingofcrypto BACTERI MANURE PLANT WATER - 1 1660000
285025 2022-Aug-18 19:26:45 1f4aw.wam BONE DEATH DINOSAR METORIT - 1 70270000
285024 2022-Aug-18 19:24:11 tdfay.wam EARTH LIFE MOSS PEAT - 1 1840000
285023 2022-Aug-18 19:21:34 kingofcrypto BACTERI BACTERI PLANT WATER - 1 1330000
285022 2022-Aug-18 19:21:02 tdfay.wam LIFE MOSS MOSS PEAT - 1 2110000
285021 2022-Aug-18 19:20:37 tdfay.wam LIFE MOSS PEAT WATER - 1 1840000
285020 2022-Aug-18 19:18:46 tdfay.wam FOREST MOSS PEAT PEAT - 1 4510000
285019 2022-Aug-18 19:16:50 gpfay.wam MNTAIN RAIN RAINBOW RIVER - 1 4480000
285018 2022-Aug-18 19:16:10 tdfay.wam ENERGY FOREST MOSS PEAT - 1 3280000
285017 2022-Aug-18 19:16:09 ehrbq.wam ATMSPHE CLOUD ENERGY PLASMA - 1 1210000
285016 2022-Aug-18 19:14:34 tdfay.wam FOREST MOSS PEAT PLANT - 1 3400000
285015 2022-Aug-18 19:12:57 ehrbq.wam ATMSPHE ATOM CLOUD ELECTRC - 1 4840000
285014 2022-Aug-18 19:11:57 gpfay.wam CLOUD MNTAIN RAIN RIVER - 1 2020000
285012 2022-Aug-18 19:10:39 1f4aw.wam BITCOIN COIN ENGINE SAFE - 1 79120000
285010 2022-Aug-18 19:09:46 gpfay.wam FLOOD FLOOD MNTAIN RIVER - 1 1990000
285009 2022-Aug-18 19:09:26 vampireofwax EARTH MOSS PEAT WATER - 1 1570000
285008 2022-Aug-18 19:08:23 gpfay.wam ENERGY ENERGY MNTAIN RIVER - 1 1750000
285007 2022-Aug-18 19:07:56 gpfay.wam ENERGY MNTAIN RAIN RIVER - 1 1750000
285006 2022-Aug-18 19:04:17 vampireofwax FOREST MOSS PEAT WATER - 1 3250000
285004 2022-Aug-18 19:02:28 tdfay.wam FOREST MOSS MOSS PEAT - 1 3520000
285003 2022-Aug-18 19:00:33 tdfay.wam FOREST LIFE MOSS PEAT - 1 3520000
285002 2022-Aug-18 18:55:08 gpfay.wam RAIN WALL WALL WATER - 1 730000
285001 2022-Aug-18 18:53:47 gpfay.wam RAIN RAIN WALL WATER - 1 430000
285000 2022-Aug-18 18:53:02 gpfay.wam RAIN WALL WATER WATER - 1 400000
284998 2022-Aug-18 18:46:03 dz2aw.wam EARTH ELECTRC KITE WIRE - 1 8920000
284997 2022-Aug-18 18:41:41 ge3r2.wam DEATH DINOSAR METORIT PLANET - 1 59380000
284996 2022-Aug-18 18:34:59 ge3r2.wam FOREST MANURE PEAT WATER - 1 3880000
284994 2022-Aug-18 18:32:13 gpfay.wam PRESS TNPLT TNPLT WATER - 1 1630000
284993 2022-Aug-18 18:31:37 gpfay.wam PRESS TNPLT WATER WATER - 1 850000
284992 2022-Aug-18 18:29:40 gpfay.wam PRESS PRESS TNPLT WATER - 1 880000
284991 2022-Aug-18 18:29:10 gpfay.wam HEAT PRESS TNPLT TNPLT - 1 1660000
284990 2022-Aug-18 18:26:51 gpfay.wam FIRE FIRE STEEL WATER - 1 1000000
284989 2022-Aug-18 18:24:51 gpfay.wam FIRE FIRE METAL WATER - 1 700000
284988 2022-Aug-18 18:23:38 gpfay.wam PRESS STEEL WATER WATER - 1 1030000
284985 2022-Aug-18 18:20:45 gpfay.wam FIRE FIRE FIRE STEEL - 1 1000000
284983 2022-Aug-18 18:11:47 gpfay.wam FLOOD FOREST MANURE SEED - 1 3970000
284982 2022-Aug-18 18:10:27 dz2aw.wam BACTERI FOREST MANURE TREE - 1 3970000
284981 2022-Aug-18 18:06:03 tdfay.wam FOREST MANURE MOSS WATER - 1 2890000
284980 2022-Aug-18 18:04:40 gpfay.wam ENGINE ENGINE ENGINE ENGINE - 1 78280000
284979 2022-Aug-18 18:03:50 tdfay.wam FOREST LIFE MANURE MOSS - 1 3160000
284978 2022-Aug-18 17:54:51 br2ay.wam FOREST MANURE SUN WATER - 2 3220000
284977 2022-Aug-18 17:54:34 ijar.wam BITCOIN ENGINE MOON NFT - 1 106330000
284976 2022-Aug-18 17:54:27 gpfay.wam EARTH FLOOD FOREST SEED - 1 3070000
284975 2022-Aug-18 17:53:33 gpfay.wam EARTH FLOOD FOREST PLANT - 1 2020000
284974 2022-Aug-18 17:53:21 ijar.wam ENGINE GASOLIN METAL MONEY - 1 65050000
284973 2022-Aug-18 17:53:16 tdfay.wam FOREST MOSS WATER WATER - 1 1990000
284972 2022-Aug-18 17:52:51 ijar.wam ENGINE METAL MONEY MONEY - 1 107620000
284971 2022-Aug-18 17:51:03 ijar.wam ENGINE METAL MONEY SCIENCE - 1 98830000
284970 2022-Aug-18 17:49:45 tdfay.wam FOREST LIFE MOSS WATER - 1 2260000
284968 2022-Aug-18 17:44:47 ijar.wam BACTERI EARTH FOREST MANURE - 2 3190000
284967 2022-Aug-18 17:44:03 ijar.wam FOREST MANURE MANURE PLANT - 1 3670000
284966 2022-Aug-18 17:43:39 ijar.wam BACTERI FOREST MANURE MANURE - 1 4090000
284965 2022-Aug-18 17:42:57 ifaay.wam EARTH MANURE RAIN TREE - 1 1750000
284964 2022-Aug-18 17:42:05 gpfay.wam DEW MANURE SEED SUN - 1 3370000
284963 2022-Aug-18 17:39:29 gpfay.wam DEW MANURE PLANT SUN - 1 2320000
284960 2022-Aug-18 17:34:47 gpfay.wam MANURE PLANT SEED SUN - 2 2890000
284959 2022-Aug-18 17:24:46 gpfay.wam EARTH MANURE SEED SUN - 1 2740000
284958 2022-Aug-18 17:15:56 tdfay.wam GOLD METAL METAL STEEL SAFE 1 23950000
284957 2022-Aug-18 17:14:56 gpfay.wam DEW EARTH MANURE SEED - 1 2770000
284956 2022-Aug-18 17:12:33 gpfay.wam DEW EARTH MANURE PLANT - 1 1720000
284953 2022-Aug-18 17:06:34 gpfay.wam MANURE PLANT RAIN RAIN - 1 1150000
284952 2022-Aug-18 17:06:03 tdfay.wam COIN METAL METAL MONEY - 2 69670000
284951 2022-Aug-18 17:04:52 gpfay.wam MANURE RAIN SEED WATER - 1 2170000
284950 2022-Aug-18 17:00:45 gpfay.wam EARTH MANURE PLANT RAIN - 1 1120000
284949 2022-Aug-18 16:55:03 ehrbq.wam EARTH FOREST LIFE MUD - 1 2020000
284946 2022-Aug-18 16:47:29 gpfay.wam FOREST MANURE PLANT RAIN - 1 2800000
284945 2022-Aug-18 16:46:34 dyqqy.wam CELL FOREST MANURE WATER - 1 8380000
284944 2022-Aug-18 16:45:27 gpfay.wam FOREST MANURE RAIN SEED - 1 3850000
284942 2022-Aug-18 16:42:27 gpfay.wam DEW DEW MANURE SEED - 1 3400000
284940 2022-Aug-18 16:41:34 gpfay.wam DEW DEW MANURE PLANT - 1 2350000
284939 2022-Aug-18 16:39:09 gpfay.wam MANURE RAIN RAIN SEED - 1 2200000
284938 2022-Aug-18 16:39:05 ijar.wam COIN METAL METAL RING - 1 27850000
284937 2022-Aug-18 16:38:56 ehrbq.wam BACTERI FOREST LIFE LIFE - 1 2830000
284936 2022-Aug-18 16:38:28 ehrbq.wam BACTERI FOREST FOREST LIFE - 1 4240000
284935 2022-Aug-18 16:38:22 ijar.wam COIN METAL METAL METAL - 1 26650000
284934 2022-Aug-18 16:37:33 ijar.wam CALCLTR COIN METAL METAL - 1 32200000
284933 2022-Aug-18 16:37:14 gpfay.wam DEW FOREST MANURE SEED - 1 4450000
284932 2022-Aug-18 16:36:31 ijar.wam COIN METAL METAL STEEL - 1 26950000
284931 2022-Aug-18 16:35:10 gpfay.wam DEW FOREST MANURE PLANT - 1 3400000
284930 2022-Aug-18 16:34:22 ijar.wam COIN DIAMOND METAL METAL - 1 26380000
284929 2022-Aug-18 16:33:22 4pdqw.wam MANURE MANURE MANURE MANURE - 2 3640000
284928 2022-Aug-18 16:29:04 vampireofwax BACTERI MANURE TREE WATER - 1 2290000
284927 2022-Aug-18 16:25:14 gpfay.wam BONE BONE LIFE SYRINGE DINOSAR 1 38350000
284926 2022-Aug-18 16:19:27 gpfay.wam MANURE SEED WATER WATER - 1 2140000
284925 2022-Aug-18 16:18:08 nanibahaniwx EARTH FOREST MANURE WATER - 1 2620000
284924 2022-Aug-18 16:17:11 nbgro.wam LIFE MANURE PEAT WATER - 1 2470000
284923 2022-Aug-18 16:15:52 nanibahaniwx FOREST GRASS MANURE WATER - 1 2860000
284922 2022-Aug-18 16:12:16 nbgro.wam BACTERI MANURE PEAT WATER - 1 2770000
284921 2022-Aug-18 16:10:51 gpfay.wam FOREST MANURE WATER WATER - 1 2620000
284920 2022-Aug-18 16:10:04 ijar.wam ENGINE MONEY MONEY MONEY - 1 150640000
284919 2022-Aug-18 16:08:10 tg4rc.wam FOG FOREST MANURE RAIN - 1 3010000
284918 2022-Aug-18 16:04:03 gpfay.wam BONE BONE BONE BONE - 1 66760000
284916 2022-Aug-18 16:01:33 ehrbq.wam MANURE PLANT SEED WATER - 1 2290000
284915 2022-Aug-18 16:00:27 ehrbq.wam MANURE SEED TREE WATER - 1 2920000
284914 2022-Aug-18 15:59:04 h2yre.wam FOREST MANURE SEED WATER - 1 3820000
284913 2022-Aug-18 15:58:20 ehrbq.wam ENERGY MANURE PLANT WATER - 1 1120000
284912 2022-Aug-18 15:57:15 ehrbq.wam MANURE PLANT WATER WATER - 3 1090000
284910 2022-Aug-18 15:55:39 ehrbq.wam EARTH MANURE TREE WATER - 1 1720000
284909 2022-Aug-18 15:54:27 kingofcrypto METAL METAL METAL SCIENCE - 1 36910000
284908 2022-Aug-18 15:51:38 ijar.wam EARTH MANURE SEED WATER BEETRT 1 2140000
284907 2022-Aug-18 15:49:53 ijar.wam MANURE PLANT SUN WATER - 3 1690000
284906 2022-Aug-18 15:47:48 4arr2.wam BONE BONE PETRID SYRINGE - 1 40120000
284905 2022-Aug-18 15:45:58 4arr2.wam BONE BONE CELL LIFE - 1 39430000
284904 2022-Aug-18 15:43:38 b1cru.wam EXPLOSN METAL METAL NECKLAC - 1 3250000
284903 2022-Aug-18 15:42:05 5qupe.wam GOLD GOLD METAL METAL - 1 44620000
284902 2022-Aug-18 15:39:28 vampireofwax MANURE RAIN SEED SUN - 1 2770000
284900 2022-Aug-18 15:37:17 ehrbq.wam EARTH FOREST LIFE MANURE - 1 2890000
284899 2022-Aug-18 15:36:49 4arr2.wam AMBER BONE BONE SYRINGE - 2 47140000
284898 2022-Aug-18 15:35:58 b1cru.wam METAL METAL MONEY MONEY - 1 88720000
284897 2022-Aug-18 15:35:57 ehrbq.wam MANURE PEAT PLANT RAIN - 1 2380000
284896 2022-Aug-18 15:34:50 ehrbq.wam EARTH MANURE RAIN SEED - 1 2170000
284895 2022-Aug-18 15:33:35 b1cru.wam EXPLOSN METAL METAL MONEY - 1 45340000
284894 2022-Aug-18 15:30:20 b1cru.wam EXPLOSN EXPLOSN METAL METAL - 1 1960000
284893 2022-Aug-18 15:28:39 kingofcrypto HAMMER IDEA METAL METAL - 1 25990000
284891 2022-Aug-18 15:27:47 4nkr.wam MANURE PLANT RAIN SUN - 2 1720000
284890 2022-Aug-18 15:25:33 ijar.wam BONE BONE TIME TIME - 1 42820000
284889 2022-Aug-18 15:25:28 vampireofwax HAMMER METAL METAL SCIENCE - 1 39160000
284888 2022-Aug-18 15:25:22 rpiay.wam GOLD METAL METAL MONEY - 1 66670000
284887 2022-Aug-18 15:25:20 ehrbq.wam LIFE MANURE SUN TREE - 1 2590000
284886 2022-Aug-18 15:25:03 5qupe.wam MANURE PLANT RAIN WATER - 1 1120000
284885 2022-Aug-18 15:24:45 ehrbq.wam LIFE MANURE PLANT SUN - 1 1960000
284884 2022-Aug-18 15:22:57 ijar.wam EARTH MANURE SEED TREE - 1 2920000
284883 2022-Aug-18 15:22:56 ehrbq.wam MANURE PLANT PLANT WATER - 3 1240000
284882 2022-Aug-18 15:22:41 br2ay.wam MANURE SEED SUN WATER - 2 2740000
284881 2022-Aug-18 15:22:29 ijar.wam EARTH MANURE PLANT SEED - 2 2290000
284880 2022-Aug-18 15:22:28 ehrbq.wam LIFE MANURE TREE WATER - 1 1990000
284879 2022-Aug-18 15:21:53 ehrbq.wam LIFE MANURE PLANT WATER - 1 1360000
284878 2022-Aug-18 15:21:21 ijar.wam EARTH MANURE SUN TREE - 1 2320000
284877 2022-Aug-18 15:20:35 ijar.wam EARTH MANURE PLANT SUN - 1 1690000
284876 2022-Aug-18 15:20:22 4nkr.wam ALARM METAL METAL MONEY - 1 52210000
284875 2022-Aug-18 15:20:04 br2ay.wam EARTH MANURE SUN WATER - 1 1540000
284874 2022-Aug-18 15:19:20 5qupe.wam ASH EARTH PLANT PLANT - 1 940000
284873 2022-Aug-18 15:19:04 5qupe.wam ASH ASH PLANT PLANT - 1 1540000
284872 2022-Aug-18 15:18:28 ijar.wam EARTH MANURE PLANT WATER - 1 1090000
284871 2022-Aug-18 15:18:15 ehrbq.wam DIAMOND GOLD METAL METAL - 1 23380000
284870 2022-Aug-18 15:17:41 ijar.wam FOREST MANURE PLANT WATER - 1 2770000
284868 2022-Aug-18 15:17:05 ijar.wam FOREST LIFE MANURE WATER - 1 2890000
284867 2022-Aug-18 15:16:44 ijar.wam BACTERI FOREST MANURE WATER - 1 3190000
284866 2022-Aug-18 15:16:17 ijar.wam EARTH FOREST MANURE PLANT - 1 2770000
284865 2022-Aug-18 15:15:22 4nkr.wam ALARM GOLD METAL METAL - 1 30160000
284864 2022-Aug-18 15:13:50 ijar.wam BONE BONE EARTH LIFE - 1 33670000
284862 2022-Aug-18 15:13:28 ehrbq.wam GARBAGE MUD PLANT PLANT - 1 400000
284861 2022-Aug-18 15:13:14 4nkr.wam BACTERI LIFE PLANT PLANT - 1 1180000
284860 2022-Aug-18 15:13:09 vampireofwax BACTERI PLANT PLANT WATER MANURE 1 910000
284859 2022-Aug-18 15:12:48 rpiay.wam GRASS MUD PLANT PLANT - 1 610000
284858 2022-Aug-18 15:12:38 sxyqy.wam BACTERI PLANT PLANT SEAWEED - 1 2290000
284848 2022-Aug-18 15:10:21 lv5b.wam CARROT EARTH PLANT PLANT - 1 550000
284845 2022-Aug-18 15:09:45 4nkr.wam CARROT CARROT PLANT PLANT - 2 760000
284844 2022-Aug-18 15:09:26 ijar.wam COIN GOLD METAL METAL - 1 47620000
284842 2022-Aug-18 15:09:05 ehrbq.wam ENERGY PEAT PLANT PLANT - 1 1630000
284841 2022-Aug-18 15:08:26 ijar.wam ALARM COIN METAL METAL - 1 33160000
284840 2022-Aug-18 15:08:20 rpiay.wam MUD PLANT PLANT SHIT - 1 5770000
284839 2022-Aug-18 15:08:15 ehrbq.wam HEAT PEAT PLANT PLANT - 1 1630000
284837 2022-Aug-18 15:07:45 4nkr.wam GARBAGE GARBAGE PLANT PLANT - 1 400000
284834 2022-Aug-18 15:06:30 ehrbq.wam MUD PLANT PLANT TREE - 1 1150000
284831 2022-Aug-18 15:05:58 ijar.wam AMBER BONE BONE LIFE - 1 42730000
284829 2022-Aug-18 15:05:08 ijar.wam AMBER BONE BONE CELL - 1 48220000
284827 2022-Aug-18 15:04:11 ijar.wam BONE BONE LIFE TIME - 1 38380000
284824 2022-Aug-18 15:03:52 4nkr.wam ALARM ALARM METAL METAL - 1 15700000
284823 2022-Aug-18 15:03:40 ijar.wam BONE BONE LIFE SCIENCE - 1 68560000
284819 2022-Aug-18 05:05:45 u55qy.wam ARCHIP RIVER STONE WATER - 1 3190000
284817 2022-Aug-18 04:54:34 1f4aw.wam BONE BONE METORIT PLANET - 1 47230000
284815 2022-Aug-18 04:39:56 u55qy.wam ARCHIP RAIN RIVER STONE - 1 3220000
284814 2022-Aug-18 04:35:27 1puqy.wam ENERGY ENERGY FLOUR WINDMIL - 1 3550000
284813 2022-Aug-18 04:34:20 1puqy.wam FLOUR PRESS PRESS WINDMIL - 1 3550000
284812 2022-Aug-18 04:25:39 1puqy.wam ENERGY ENERGY WATER WINDMIL - 1 1060000
284810 2022-Aug-18 04:17:57 1puqy.wam PRESS PRESS WATER WINDMIL - 1 1060000
284809 2022-Aug-18 04:16:22 b1cru.wam ATMCBMB DEATH EXPLOSN PLANET - 1 16660000
284807 2022-Aug-18 04:09:09 4pdqw.wam BOILER ENERGY SEED STEAM - 1 2050000
284806 2022-Aug-18 04:05:10 4pdqw.wam BOILER HEAT SEED WATER - 1 2020000
284804 2022-Aug-18 04:02:03 4pdqw.wam BOILER ENERGY SEED WATER - 1 2020000
284802 2022-Aug-18 03:55:09 4pdqw.wam EARTH ENERGY ENERGY SEED - 1 1300000
284801 2022-Aug-18 03:45:40 1puqy.wam ENERGY HEAT PLANT SEED - 1 1450000
284800 2022-Aug-18 03:45:10 1puqy.wam ENERGY FIRE PLANT SEED - 1 1420000
284799 2022-Aug-17 23:55:07 ehrbq.wam AIR PEAT TREE WATER - 1 2080000
284798 2022-Aug-17 23:54:26 ehrbq.wam AIR PEAT PLANT WATER - 1 1450000
284797 2022-Aug-17 23:51:15 ehrbq.wam EARTH FOREST WATER WATER - 1 1720000
284796 2022-Aug-17 23:21:47 zmhb.wam CLOUD RAIN SOUND STORM - 1 1900000
284795 2022-Aug-17 23:20:33 zmhb.wam RAIN SKY SOUND STORM - 1 2170000
284794 2022-Aug-17 21:50:47 nbgro.wam CLOUD ELECTRC EXPLOSN VULCANO - 1 2530000
284793 2022-Aug-17 21:46:47 nbgro.wam CLOUD ELECTRC ELECTRC SOUND - 1 3970000
284792 2022-Aug-17 21:23:09 ehrbq.wam ATMSPHE ELECTRC ENERGY EXPLOSN - 1 1900000
284791 2022-Aug-17 21:22:09 ehrbq.wam ATMSPHE ELECTRC ENERGY ENERGY - 1 1630000
284790 2022-Aug-17 21:13:51 ehrbq.wam ATMSPHE ENERGY PLASMA RAIN - 1 940000
284789 2022-Aug-17 21:13:14 ehrbq.wam ATMSPHE ENERGY ENERGY PLASMA - 1 940000
284788 2022-Aug-17 19:43:26 4nkr.wam ATMSPHE ATMSPHE CLOUD ENERGY - 1 610000
284787 2022-Aug-17 19:42:46 4nkr.wam ATMSPHE CLOUD CLOUD ENERGY - 1 790000
284784 2022-Aug-17 18:50:36 nbgro.wam CLOUD ELECTRC ELECTRC PLASMA - 1 3880000
284783 2022-Aug-17 18:49:45 nbgro.wam CLOUD CLOUD ELECTRC PLASMA - 1 2770000
284782 2022-Aug-17 18:45:40 nbgro.wam CLOUD CLOUD PLASMA PLASMA - 1 2080000
284781 2022-Aug-17 18:41:51 nbgro.wam CLOUD ENERGY PLASMA PLASMA - 1 1810000
284779 2022-Aug-17 18:40:35 nbgro.wam CLOUD CLOUD ENERGY PLASMA - 1 1390000
284778 2022-Aug-17 18:39:35 nbgro.wam CLOUD CLOUD EARTH PLASMA - 1 1360000
284776 2022-Aug-17 16:38:09 4nkr.wam PAPER PRESS PRESS PRESS - 1 490000
284775 2022-Aug-17 16:37:57 4nkr.wam PAPER PAPER PRESS PRESS - 1 820000
284774 2022-Aug-17 16:37:38 4nkr.wam PAPER PAPER PAPER PRESS - 1 1150000
284772 2022-Aug-17 12:44:38 4nkr.wam GRASS GRASS GRASS PRESS - 1 790000
284771 2022-Aug-17 12:44:22 4nkr.wam GRASS GRASS PRESS PRESS - 1 580000
284769 2022-Aug-17 12:23:21 kingofcrypto LINEN LINEN LINEN SCISSOR - 1 8080000
284767 2022-Aug-17 09:36:38 nanibahaniwx CLOUD EARTH ELECTRC WATER - 1 1750000
284766 2022-Aug-17 09:36:12 nanibahaniwx CLOUD EARTH ENERGY WATER - 1 370000
284765 2022-Aug-17 09:30:57 nanibahaniwx FOAM RIVER STONE WATER - 1 3970000
284764 2022-Aug-17 09:26:27 hh2qw.wam CLOUD PRESS RAIN WIND - 1 520000
284763 2022-Aug-17 09:22:21 nanibahaniwx CLOUD CLOUD STORM STORM - 1 2080000
284762 2022-Aug-17 09:22:20 hh2qw.wam ATMSPHE CLOUD PRESS RAIN - 1 520000
284761 2022-Aug-17 09:12:22 nanibahaniwx CLOUD EARTH ENERGY PLASMA - 1 1090000
284760 2022-Aug-17 06:48:51 nanibahaniwx FIRE FIRE FIRE SEED - 1 1240000
284759 2022-Aug-17 06:22:45 nbgro.wam CLOUD ICE PRESS WATER - 1 790000
284758 2022-Aug-17 05:53:44 nbgro.wam CLOUD ICE PRESS RAIN - 1 820000
284757 2022-Aug-17 05:52:57 nbgro.wam CLOUD ENERGY ICE RAIN - 1 820000
284756 2022-Aug-17 05:35:26 nbgro.wam CLOUD CLOUD ENERGY EXPLOSN - 1 970000
284755 2022-Aug-17 04:37:34 1puqy.wam AIR ENERGY SEED SUN - 1 1870000
284754 2022-Aug-17 04:33:05 1puqy.wam ENERGY ENERGY FIRE SEED - 1 1300000
284753 2022-Aug-17 04:26:57 1puqy.wam ENERGY ENERGY PLANT SEED - 1 1450000
284751 2022-Aug-17 04:22:35 1puqy.wam ENERGY SEED TREE WATER - 1 2050000
284749 2022-Aug-17 02:09:45 zmhb.wam CLOUD ENERGY RAIN RAIN - 1 430000
284748 2022-Aug-17 02:08:52 zmhb.wam CLOUD CLOUD RAIN RAIN - 1 700000
284747 2022-Aug-17 01:31:56 4nkr.wam EARTH RAIN SKY STORM - 1 1360000
284746 2022-Aug-17 01:30:24 4nkr.wam CLOUD FIRE RAIN STORM - 1 1090000
284745 2022-Aug-17 01:29:14 4nkr.wam HEAT RAIN SKY STORM - 1 1390000
284744 2022-Aug-17 01:27:44 4nkr.wam FIRE RAIN SKY STORM - 1 1360000
284739 2022-Aug-17 01:07:38 4nkr.wam DUST ENERGY OBSIDIN PRESS - 1 250000
284737 2022-Aug-17 00:46:51 4nkr.wam ASH EARTH HEAT WATER - 1 670000
284736 2022-Aug-17 00:46:33 4nkr.wam ASH EARTH FIRE WATER - 1 640000
284735 2022-Aug-17 00:42:39 1puqy.wam BONE DEATH METORIT PLANET - 1 37720000
284734 2022-Aug-17 00:41:28 4nkr.wam BOILER CLAY TREE WATER - 1 2200000
284733 2022-Aug-17 00:40:34 4nkr.wam CLAY SUN TREE WATER - 1 2050000
284732 2022-Aug-17 00:40:21 4nkr.wam CLAY HEAT TREE WATER - 1 1480000
284729 2022-Aug-17 00:33:41 4nkr.wam STONE STONE STONE TREE - 1 1090000
284728 2022-Aug-17 00:23:16 ijar.wam STONE TILING TREE WINDMIL - 1 3220000
284727 2022-Aug-17 00:22:16 ijar.wam BRICK STONE TILING WINDMIL - 1 2530000
284726 2022-Aug-17 00:20:44 ijar.wam STONE TILING WALL WINDMIL - 1 2770000
284725 2022-Aug-17 00:15:09 ijar.wam ATMCBMB DEATH RADITON RADITON - 1 15430000
284724 2022-Aug-17 00:14:39 ijar.wam ATMCBMB ATMCBMB DEATH RADITON - 1 16360000
284723 2022-Aug-17 00:14:03 ijar.wam ATMCBMB DEATH EXPLOSN RADITON - 1 13300000
284714 2022-Aug-16 22:46:03 1puqy.wam EARTH PLANT PLANT SHIT - 1 5740000
284712 2022-Aug-16 22:14:02 5qupe.wam CHAIN HEAT METAL WLDMACH - 1 3910000
284711 2022-Aug-16 22:12:27 5qupe.wam CHAIN STEEL STEEL WLDMACH - 1 5140000
284710 2022-Aug-16 22:11:57 5qupe.wam CHAIN HEAT STEEL WLDMACH - 1 4210000
284709 2022-Aug-16 22:11:39 5qupe.wam CHAIN HEAT HEAT WLDMACH - 1 3280000
284708 2022-Aug-16 22:07:53 5qupe.wam HEAT LINEN LINEN WLDMACH - 1 4330000
284707 2022-Aug-16 22:06:39 5qupe.wam LINEN PRESS THREAD WLDMACH - 1 5470000
284706 2022-Aug-16 22:06:11 5qupe.wam HEAT PRESS THREAD WLDMACH - 1 4450000
284705 2022-Aug-16 22:04:03 5qupe.wam PRESS PRESS THREAD WLDMACH - 1 4450000
284704 2022-Aug-16 22:02:51 5qupe.wam HEAT STEEL STEEL WLDMACH - 1 4150000
284703 2022-Aug-16 22:02:04 5qupe.wam HEAT HEAT STEEL WLDMACH - 1 3220000
284702 2022-Aug-16 22:01:40 5qupe.wam STEEL STEEL STEEL WLDMACH - 1 5080000
284701 2022-Aug-16 22:01:22 5qupe.wam HEAT METAL METAL WLDMACH - 1 3550000
284700 2022-Aug-16 22:00:52 5qupe.wam METAL METAL METAL WLDMACH - 1 4180000
284697 2022-Aug-16 21:31:53 nbgro.wam CLAY CLAY HEAT LIFE - 1 1600000
284696 2022-Aug-16 21:25:25 nbgro.wam CABBAGE CARROT LIFE WATER - 1 700000
284695 2022-Aug-16 21:19:10 nbgro.wam FOREST LIFE PEAT TREE - 1 4030000
284694 2022-Aug-16 21:17:46 nbgro.wam EARTH LIFE PEAT TREE - 1 2350000
284692 2022-Aug-16 20:48:40 42lra.wam BACTERI PLANT PLANT TIME - 2 5620000
284691 2022-Aug-16 20:48:16 42lra.wam BACTERI EARTH PLANT TIME - 1 5470000
284690 2022-Aug-16 20:18:03 5qupe.wam TILING WALL WIND WINDMIL - 1 2800000
284689 2022-Aug-16 20:17:04 5qupe.wam BRICK TILING WALL WINDMIL - 1 2770000
284688 2022-Aug-16 20:01:09 b1cru.wam AIR BLCKCHN ELECTRC GAS - 1 5650000
284687 2022-Aug-16 17:23:33 j4pbq.wam EARTH MOON RICE STONE - 1 18520000
284685 2022-Aug-16 16:16:53 4nkr.wam CLAY ENERGY MUD PRESS - 1 760000
284684 2022-Aug-16 16:15:30 4nkr.wam CLAY MUD PRESS SUN - 1 1330000
284667 2022-Aug-16 14:37:33 3kl2k.c.wam RIVER STONE STONE TIME - 1 5950000
284666 2022-Aug-16 14:33:35 ehrbq.wam EARTH ELECTRC FIRE RAIN - 1 1480000
284664 2022-Aug-16 14:31:43 ehrbq.wam ELECTRC RAIN STEAM STORM - 1 2230000
284663 2022-Aug-16 14:31:25 ehrbq.wam ELECTRC RAIN SKY STEAM - 1 2080000
284662 2022-Aug-16 14:31:04 ehrbq.wam CLOUD ELECTRC RAIN STEAM - 1 1810000
284661 2022-Aug-16 14:28:21 ehrbq.wam ASH CLAY ENERGY HEAT - 1 1330000
284660 2022-Aug-16 14:27:23 ehrbq.wam ASH CLAY HEAT PRESS - 1 1330000
284659 2022-Aug-16 14:24:09 ehrbq.wam ASH HEAT SAND VULCANO - 1 1600000
284658 2022-Aug-16 14:23:39 ehrbq.wam ASH PRESS VULCANO WATER - 1 1150000
284657 2022-Aug-16 14:23:17 ehrbq.wam ASH HEAT PRESS VULCANO - 1 1180000
284652 2022-Aug-16 14:14:39 ehrbq.wam CLAY FIRE MUD RUST - 1 1390000
284651 2022-Aug-16 14:13:47 3kl2k.c.wam EARTH MNTAIN RAIN STONE - 1 790000
284650 2022-Aug-16 14:07:04 3kl2k.c.wam EARTH MNTAIN RIVER STONE - 1 1780000
284649 2022-Aug-16 13:15:40 emubc.wam FIRE SEED SEED SEED - 1 3640000
284648 2022-Aug-16 12:01:39 1puqy.wam AIR ELECTRC SKY WATER - 1 2020000
284647 2022-Aug-16 12:01:15 1puqy.wam AIR CLOUD ELECTRC WATER - 1 1750000
284646 2022-Aug-16 12:00:52 1puqy.wam AIR ATMSPHE ELECTRC WATER - 1 1570000
284644 2022-Aug-16 11:58:39 1puqy.wam AIR AIR CLOUD ELECTRC - 1 1750000
284641 2022-Aug-16 11:54:47 1puqy.wam AIR AIR ELECTRC RAIN - 1 1480000
284640 2022-Aug-16 11:54:09 1puqy.wam AIR AIR EARTH ELECTRC - 1 1450000
284632 2022-Aug-16 10:03:15 1puqy.wam ELECTRC SKY SKY SKY - 1 3160000
284631 2022-Aug-16 07:48:46 p1qbo.wam DUST EARTH FOREST WATER - 1 1750000
284630 2022-Aug-16 05:14:45 4pdqw.wam PRESS PRESS RESIN RESIN - 1 4900000
284625 2022-Aug-16 04:26:03 ijar.wam CABLE CABLE PRESS PRESS - 1 6340000
284623 2022-Aug-16 04:22:57 ijar.wam PRESS PRESS PRESS STRING - 1 5380000
284622 2022-Aug-16 04:19:53 ijar.wam LINEN LINEN PRESS THREAD - 1 4360000
284619 2022-Aug-16 04:14:37 ijar.wam CANABIS CANABIS CANABIS PRESS - 1 4210000
284618 2022-Aug-16 04:12:02 gpfay.wam BOILER CLAY HEAT HEAT - 1 1480000
284610 2022-Aug-16 01:08:17 1puqy.wam COIN STEEL STEEL STEEL - 1 27550000
284609 2022-Aug-16 01:06:29 1puqy.wam ALARM STEEL STEEL STEEL - 1 10090000
284608 2022-Aug-16 00:45:44 1puqy.wam ALARM CALCLTR METAL METAL - 1 14740000
284607 2022-Aug-16 00:40:15 1puqy.wam ALARM CALCLTR STEEL STEEL - 1 15340000
284606 2022-Aug-16 00:20:27 ehrbq.wam AIR CLAY EARTH WATER - 1 670000
284605 2022-Aug-15 23:45:32 ehrbq.wam FIREWRK RAIN RAIN STORM - 1 2650000
284604 2022-Aug-15 23:43:35 ehrbq.wam AIR EARTH FIREWRK WATER - 1 1870000
284603 2022-Aug-15 23:39:03 cnbba.wam EXTINGS EXTINGS EXTINGS EXTINGS - 1 14200000
284602 2022-Aug-15 23:36:59 ehrbq.wam FIREWRK RAIN RAIN RAIN - 1 1960000
284601 2022-Aug-15 23:36:11 ehrbq.wam CLOUD FIREWRK RAIN SKY - 1 2770000
284597 2022-Aug-15 23:29:27 ehrbq.wam DUST HEAT MUD PRESS - 1 160000
284596 2022-Aug-15 23:20:53 4pdqw.wam ENERGY METAL RIVER WIND - 1 1870000
284595 2022-Aug-15 23:18:52 cnbba.wam CLAY EARTH EARTH FIRE - 1 670000
284594 2022-Aug-15 23:18:03 4pdqw.wam ENERGY METAL WATER WIND - 1 850000
284593 2022-Aug-15 23:17:57 cnbba.wam CLAY EARTH ENERGY FIRE - 1 700000
284592 2022-Aug-15 22:58:33 4pdqw.wam CRUDE CRUDE CRUDE CRUDE - 1 4000000
284591 2022-Aug-15 22:38:20 4nkr.wam DIAMOND ENERGY GOLD HAMMER - 1 25000000
284590 2022-Aug-15 22:31:57 4nkr.wam DIAMOND DIAMOND GOLD GOLD - 1 44080000
284589 2022-Aug-15 22:17:17 4nkr.wam EARTHQ HURRCAN SNDSTRM TSUNAMI - 1 5260000
284588 2022-Aug-15 22:08:56 1puqy.wam CLAY EARTH HEAT MUD - 1 730000
284587 2022-Aug-15 22:08:22 1puqy.wam CLAY EARTH FIRE MUD - 1 700000
284586 2022-Aug-15 22:07:45 cnbba.wam CLAY ENERGY EXTINGS HEAT - 1 4270000
284585 2022-Aug-15 22:07:40 kingofcrypto DUST ELECTRC ICE STORM - 1 2620000
284584 2022-Aug-15 22:05:35 kingofcrypto CLOUD DUST ICE STORM - 1 1510000
284582 2022-Aug-15 22:00:41 42lra.wam EARTH PLANT RAINBOW RAINBOW - 1 5710000
284581 2022-Aug-15 21:54:22 42lra.wam DEW EARTH PAINT SUN - 1 4060000
284580 2022-Aug-15 21:52:26 42lra.wam EARTH PAINT SUN WATER - 1 3430000
284579 2022-Aug-15 21:51:50 cnbba.wam CLAY FIRE STEEL WATER - 1 1630000
284578 2022-Aug-15 21:50:40 1puqy.wam BITCOIN BLCKCHN CALCLTR IDEA - 1 42220000
284577 2022-Aug-15 21:50:39 42lra.wam EARTH PAINT RAIN SUN - 1 3460000
284571 2022-Aug-15 21:31:53 42lra.wam PLANT RAINBOW SUN WATER - 1 3550000
284569 2022-Aug-15 21:30:09 nanibahaniwx AIR AIR ELECTRC ENERGY - 1 1480000
284567 2022-Aug-15 21:17:57 4nkr.wam ENERGY METAL METAL METAL - 1 2050000
284565 2022-Aug-15 21:14:34 4nkr.wam ENERGY METAL PRESS STONE - 1 850000
284562 2022-Aug-15 21:09:28 4nkr.wam ENERGY ENERGY METAL PRESS - 1 790000
284561 2022-Aug-15 21:08:01 4nkr.wam ENERGY ENERGY ENERGY METAL - 1 790000
284560 2022-Aug-15 20:12:45 4nkr.wam BLADE CLAY FIRE GAS - 1 2680000
284559 2022-Aug-15 20:12:21 4nkr.wam BLADE CLAY GAS HEAT - 1 2710000
284558 2022-Aug-15 20:07:21 42lra.wam ATMSPHE ENERGY SOUND STORM - 1 1720000
284557 2022-Aug-15 20:03:21 42lra.wam ATMSPHE ELECTRC SOUND STORM - 1 3100000
284556 2022-Aug-15 19:58:35 42lra.wam CLOUD ENERGY SOUND STORM - 1 1900000
284555 2022-Aug-15 19:55:46 zmhb.wam BACTERI FOREST MOSS PLANT - 1 2710000
284554 2022-Aug-15 19:53:52 42lra.wam ENERGY SKY SOUND STORM - 1 2170000
284553 2022-Aug-15 19:27:38 cnbba.wam CLAY CLAY ENERGY MUD - 1 1360000
284550 2022-Aug-15 18:22:32 t3rek.wam DEW GRASS TREE WATER - 1 1690000
284549 2022-Aug-15 18:19:21 cnbba.wam CLAY COAL FIRE MUD - 1 970000
284548 2022-Aug-15 18:08:21 cnbba.wam HEAT METAL MUD MUD - 1 790000
284547 2022-Aug-15 18:05:45 4nkr.wam CLAY GAS HEAT MUD - 1 1630000
284546 2022-Aug-15 18:04:03 vampireofwax FIRE HAMMER METAL METAL - 1 4270000
284544 2022-Aug-15 18:02:58 4nkr.wam CLAY GAS WATER WATER - 1 1570000
284542 2022-Aug-15 18:02:32 4nkr.wam CLAY GAS PRESS PRESS - 1 1630000
284540 2022-Aug-15 18:00:33 4nkr.wam CLAY FIRE FIRE GAS - 1 1570000
284539 2022-Aug-15 17:59:39 4nkr.wam CLAY GAS HEAT HEAT - 1 1630000
284538 2022-Aug-15 17:59:11 4nkr.wam CLAY GAS PRESS WATER - 2 1600000
284537 2022-Aug-15 17:58:47 4nkr.wam CLAY GAS HEAT PRESS - 1 1630000
284536 2022-Aug-15 17:58:20 4nkr.wam CLAY GAS HEAT WATER - 1 1600000
284535 2022-Aug-15 17:58:02 4nkr.wam CLAY FIRE GAS PRESS - 1 1600000
284534 2022-Aug-15 17:57:39 4nkr.wam CLAY FIRE GAS WATER - 1 1570000
284532 2022-Aug-15 17:28:33 cnbba.wam ENERGY HEAT METAL MUD - 1 790000
284531 2022-Aug-15 17:16:09 yjdqu.wam CLAY COAL HEAT WATER - 1 970000
284530 2022-Aug-15 17:10:04 mzo14.c.wam CLAY EARTH ENERGY MUD - 1 730000
284528 2022-Aug-15 16:12:10 ijar.wam BLADE BLOCK FIRE PRESS - 1 1930000
284527 2022-Aug-15 16:10:41 ijar.wam BLOCK CLAY FIRE WATER - 1 1420000
284526 2022-Aug-15 16:06:26 ijar.wam BLCKCHN CALCLTR GAS IQ - 1 26140000
284524 2022-Aug-15 15:55:20 4nkr.wam ENERGY METAL STONE STONE - 1 910000
284519 2022-Aug-15 15:40:20 4nkr.wam ENERGY RIVER WATER WATER - 1 1090000
284518 2022-Aug-15 15:40:03 4nkr.wam ENERGY ENERGY RIVER WATER - 1 1120000
284517 2022-Aug-15 15:38:46 4nkr.wam RIVER WATER WATER WATER - 1 1060000
284515 2022-Aug-15 15:36:37 4nkr.wam BLOCK CLAY WATER WATER - 1 1420000
284513 2022-Aug-15 15:31:10 4nkr.wam CABBAGE CANABIS CARROT GRASS - 1 2050000
284511 2022-Aug-15 15:29:32 4nkr.wam CABBAGE CARROT EARTH GRASS - 1 670000
284510 2022-Aug-15 15:29:10 4nkr.wam CABBAGE CARROT GRASS WATER - 1 670000
284508 2022-Aug-15 15:25:31 ehrbq.wam GARBAGE STONE STONE STONE - 1 340000
284507 2022-Aug-15 15:24:27 ehrbq.wam GARBAGE PLANT PLANT TREE - 1 1150000
284505 2022-Aug-15 15:23:31 ehrbq.wam GARBAGE PLANT PLANT PLANT - 1 520000
284499 2022-Aug-15 15:15:21 dp4b2.wam CANABIS LINEN STRING THREAD - 1 9910000
284494 2022-Aug-15 15:11:52 ehrbq.wam CABBAGE CABBAGE HEAT PLANT - 1 580000
284493 2022-Aug-15 15:11:26 ehrbq.wam CABBAGE CARROT HEAT PLANT - 1 610000
284492 2022-Aug-15 15:11:10 4nkr.wam NECKLAC NECKLAC NECKLAC NECKLAC - 2 6400000
284491 2022-Aug-15 15:10:44 ehrbq.wam CABBAGE CARROT HEAT PEAT - 1 1720000
284487 2022-Aug-15 15:08:03 4nkr.wam AIR CLAY CLAY FIRE - 1 1300000
284486 2022-Aug-15 15:06:27 4nkr.wam CLOUD CLOUD CLOUD STORM - 1 1660000
284484 2022-Aug-15 15:06:02 b1cru.wam DIAMOND ELECTRC NECKLAC NECKLAC - 1 5020000
284483 2022-Aug-15 15:05:32 4nkr.wam CLOUD CLOUD CLOUD CLOUD - 1 1240000
284481 2022-Aug-15 15:05:17 4nkr.wam MUD RAIN RAIN SEED - 1 1330000
284475 2022-Aug-15 14:58:24 b1cru.wam BLCKCHN BLCKCHN GAS GAS - 1 8440000
284466 2022-Aug-15 14:52:40 4nkr.wam CLAY COAL FIRE PRESS - 1 970000
284462 2022-Aug-15 14:49:14 ehrbq.wam AIR CLAY MUD SAND - 1 1150000
284459 2022-Aug-15 14:47:36 4nkr.wam BOILER CLAY CLAY CLAY - 1 2680000
284454 2022-Aug-15 14:43:09 4nkr.wam LINEN PRESS PRESS PRESS - 1 1180000
284453 2022-Aug-15 14:42:57 4nkr.wam CANABIS PRESS PRESS PRESS - 1 1510000
284450 2022-Aug-15 14:38:57 b1cru.wam DIAMOND EARTH WATER WATER - 1 430000
284447 2022-Aug-15 14:28:45 b1cru.wam DIAMOND DIAMOND DIAMOND DIAMOND NECKLAC 1 1600000
284446 2022-Aug-15 14:11:26 hgfqq.wam FOG FOREST LIFE RAIN - 1 2380000
284444 2022-Aug-15 11:26:05 wzmas.wam FOREST LIFE RAIN SUN - 3 2620000
284443 2022-Aug-15 11:18:39 ehrbq.wam ATMSPHE CLAY PRESS WATER - 1 820000
284441 2022-Aug-15 09:23:16 zmhb.wam HURRCAN RAIN SKY STORM - 1 1870000
284440 2022-Aug-15 03:32:52 nbgro.wam GRASS GRASS LIFE WATER - 1 790000
284439 2022-Aug-15 03:30:15 ijar.wam BACTERI GRASS PEAT PLANT - 1 2260000
284438 2022-Aug-15 03:29:51 ijar.wam BACTERI EARTH GRASS PLANT - 1 1000000
284437 2022-Aug-15 03:27:47 ijar.wam BACTERI PEAT PLANT PLANT - 1 2170000
284436 2022-Aug-15 03:27:23 ijar.wam BACTERI BACTERI PEAT PLANT - 1 2590000
284434 2022-Aug-15 03:26:28 ijar.wam BACTERI BACTERI EARTH PLANT - 1 1330000
284433 2022-Aug-15 03:19:16 ijar.wam LIGHT METAL METAL PLASTIC - 1 12400000
284432 2022-Aug-15 03:18:26 ijar.wam LIGHT METAL PLASTIC TIME - 1 16450000
284431 2022-Aug-15 03:18:02 ijar.wam LIGHT METAL PLASTIC SULFUR - 1 13060000
284428 2022-Aug-15 03:15:16 ijar.wam LIGHT METAL PAINT PLASTIC - 1 14530000
284427 2022-Aug-15 03:06:40 ijar.wam METAL PAINTNG PLASTIC RESIN - 1 16330000
284422 2022-Aug-15 02:23:21 5qupe.wam EXPLOSN STEEL STEEL STEEL - 1 3220000
284421 2022-Aug-15 02:20:38 1puqy.wam CLAY HEAT HURRCAN WATER - 1 1210000
284420 2022-Aug-15 02:20:16 1puqy.wam CLAY FIRE HURRCAN WATER - 1 1180000
284419 2022-Aug-15 02:17:32 5qupe.wam FOAM RIVER WATER WATER - 1 3880000
284418 2022-Aug-15 02:15:45 5qupe.wam RIVER WIND WIND WINDMIL - 1 2260000
284417 2022-Aug-15 02:13:40 1puqy.wam EARTH GRASS LIFE SHIT - 1 5950000
284416 2022-Aug-15 02:11:27 5qupe.wam HEAT HEAT HEAT RICE - 1 1960000
284415 2022-Aug-15 02:10:11 1puqy.wam HEAT PLANT RAIN SHIT - 1 5650000
284414 2022-Aug-15 02:09:41 1puqy.wam HEAT LIFE RAIN SHIT - 1 5770000
284413 2022-Aug-15 02:00:57 gpfay.wam CABBAGE CARROT GARBAGE PLANT - 1 610000
284412 2022-Aug-15 02:00:50 1puqy.wam EARTH GRASS HEAT SHIT - 1 5710000
284411 2022-Aug-15 01:55:22 1puqy.wam EARTH GARBAGE PLANT SHIT - 1 5620000
284410 2022-Aug-15 01:54:58 1puqy.wam EARTH GARBAGE GRASS SHIT - 1 5710000
284409 2022-Aug-15 01:54:53 gpfay.wam FIRE FIRE PRESS STEEL - 1 1030000
284408 2022-Aug-15 01:52:26 1puqy.wam EARTH GARBAGE SHIT WATER - 1 5470000
284407 2022-Aug-15 01:50:21 gpfay.wam HEAT HEAT PRESS TNPLT - 1 910000
284406 2022-Aug-15 01:49:50 gpfay.wam FIRE FIRE PRESS TNPLT - 1 850000
284405 2022-Aug-15 01:48:59 ijar.wam DEATH EARTH EXPLOSN METORIT - 1 15550000
284404 2022-Aug-15 01:39:44 1puqy.wam HAMMER HEAT METAL WLDMACH - 1 5800000
284403 2022-Aug-15 01:38:28 1puqy.wam CHAIN FIRE HAMMER WLDMACH - 1 6130000
284402 2022-Aug-15 01:38:02 1puqy.wam CHAIN HAMMER HEAT WLDMACH - 1 6160000
284400 2022-Aug-15 01:34:03 1puqy.wam CHAIN CHAIN HAMMER WLDMACH - 1 7150000
284399 2022-Aug-15 01:32:22 1puqy.wam CHAIN HAMMER METAL WLDMACH - 1 6790000
284397 2022-Aug-15 01:32:00 1puqy.wam CHAIN HAMMER HEAT METAL - 1 4660000
284396 2022-Aug-15 01:31:21 1puqy.wam CHAIN FIRE HAMMER METAL - 1 4630000
284394 2022-Aug-15 01:23:15 db1rc.wam ELECTRC EXPLOSN SOUND STORM - 1 3280000
284393 2022-Aug-15 01:00:39 5qupe.wam CLAY HEAT SAND SAND - 1 1600000
284392 2022-Aug-15 01:00:23 5qupe.wam CLAY HEAT MUD SAND - 1 1180000
284391 2022-Aug-15 00:59:52 5qupe.wam CLAY FIRE STONE STONE - 1 850000
284390 2022-Aug-15 00:59:26 5qupe.wam CLAY FIRE MUD SAND - 1 1150000
284389 2022-Aug-15 00:58:20 5qupe.wam CLAY MUD WATER WATER - 1 700000
284388 2022-Aug-15 00:57:44 5qupe.wam CLAY MUD MUD WATER - 1 730000
284387 2022-Aug-15 00:54:23 4nkr.wam AIR CLOUD ENERGY TREE - 1 1150000
284386 2022-Aug-15 00:54:05 4nkr.wam AIR ENERGY STORM TREE - 1 1570000
284385 2022-Aug-15 00:53:46 4nkr.wam AIR ATMSPHE ENERGY TREE - 1 970000
284384 2022-Aug-15 00:28:03 ijar.wam CLOUD ELECTRC SKY WATER - 1 2320000
284383 2022-Aug-15 00:24:59 ijar.wam ELECTRC PRESS RAIN SKY - 1 2080000
284382 2022-Aug-15 00:24:22 ijar.wam ELECTRC PRESS SKY STORM - 1 2770000
284381 2022-Aug-15 00:24:03 ijar.wam ELECTRC PRESS PRESS SKY - 1 2080000
284380 2022-Aug-15 00:22:28 ijar.wam ELECTRC EXPLOSN PRESS SKY - 1 2350000
284379 2022-Aug-15 00:22:09 ehrbq.wam ENERGY HORIZON RAIN SKY - 1 2200000
284378 2022-Aug-15 00:21:26 ijar.wam ELECTRC ELECTRC PRESS SKY - 1 3460000
284377 2022-Aug-15 00:20:27 ijar.wam EARTH ELECTRC HEAT SKY - 1 2050000
284376 2022-Aug-15 00:19:32 ijar.wam EARTH ELECTRC PRESS SKY - 1 2050000
284375 2022-Aug-15 00:17:15 ehrbq.wam ENERGY GRASS MOSS PLANT - 1 730000
284374 2022-Aug-15 00:16:52 ijar.wam CLOUD ELECTRC FROST HEAT - 1 2170000
284373 2022-Aug-15 00:16:52 ehrbq.wam GRASS HEAT MOSS PLANT - 1 730000
284372 2022-Aug-15 00:15:51 ijar.wam CLOUD ELECTRC PRESS PRESS - 1 1810000
284371 2022-Aug-15 00:13:15 ehrbq.wam STONE TREE WHEAT WIND - 1 1840000
284370 2022-Aug-15 00:11:57 ehrbq.wam FLOUR STONE TREE WIND - 1 3520000
284369 2022-Aug-15 00:08:58 ijar.wam CLOUD ELECTRC HEAT PRESS - 1 1810000
284368 2022-Aug-15 00:08:34 ijar.wam CLOUD ELECTRC ENERGY HEAT - 1 1810000
284367 2022-Aug-15 00:06:56 ijar.wam ATMSPHE CLOUD ELECTRC PRESS - 1 1900000
284366 2022-Aug-15 00:05:50 ijar.wam CLOUD ELECTRC PRESS RAIN - 1 1810000
284365 2022-Aug-15 00:04:02 ijar.wam CLOUD ELECTRC EXPLOSN PRESS - 1 2080000
284364 2022-Aug-15 00:02:37 ijar.wam CLOUD ELECTRC PRESS SKY - 1 2350000
284363 2022-Aug-15 00:01:26 ijar.wam CLOUD ELECTRC ELECTRC PRESS - 1 3190000
284362 2022-Aug-14 23:59:51 1puqy.wam PRESS PRESS PRESS SHELL - 1 6490000
284361 2022-Aug-14 23:59:45 ijar.wam CLOUD ELECTRC ENERGY PRESS - 1 1810000
284360 2022-Aug-14 23:55:27 5qupe.wam BLADE LINEN LINEN LINEN - 1 4300000
284359 2022-Aug-14 23:53:52 1puqy.wam ALARM MONEY STEEL STEEL - 1 52810000
284357 2022-Aug-14 23:42:34 ehrbq.wam EARTH FOREST LIFE SWAMP - 1 2230000
284356 2022-Aug-14 23:42:08 ehrbq.wam FOREST LIFE MOSS SWAMP - 1 2500000
284355 2022-Aug-14 23:42:08 1puqy.wam AMBER CELL LIFE SCIENCE - 1 50020000
284353 2022-Aug-14 23:16:35 ehrbq.wam ELECTRC ENERGY PLASMA SOUND - 1 3010000
284352 2022-Aug-14 23:13:45 ehrbq.wam ELECTRC ENERGY PLASMA RAIN - 1 2230000
284351 2022-Aug-14 23:11:40 ehrbq.wam ELECTRC ENERGY PLASMA SKY - 1 2770000
284350 2022-Aug-14 23:09:39 4nkr.wam FROST FROST STEAM STEAM - 1 880000
284349 2022-Aug-14 22:59:08 4nkr.wam ATMSPHE FROST HEAT STORM - 1 1300000
284348 2022-Aug-14 22:58:51 4nkr.wam ATMSPHE FROST STEAM STORM - 1 1300000
284347 2022-Aug-14 22:58:33 4nkr.wam ATMSPHE CLOUD FROST HEAT - 1 880000
284346 2022-Aug-14 22:58:17 4nkr.wam ATMSPHE CLOUD FROST STEAM - 1 880000
284344 2022-Aug-14 22:54:17 4nkr.wam FROST SKY STEAM STORM - 1 1750000
284343 2022-Aug-14 22:53:56 4nkr.wam ENERGY FROST SKY STEAM - 2 1060000
284342 2022-Aug-14 22:53:39 4nkr.wam CLOUD FROST SKY STEAM - 1 1330000
284341 2022-Aug-14 22:50:46 4nkr.wam ENERGY FROST STEAM STORM - 1 1210000
284340 2022-Aug-14 22:50:29 4nkr.wam CLOUD ENERGY FROST STEAM - 1 790000
284339 2022-Aug-14 22:48:52 4nkr.wam AIR CLOUD FROST STEAM - 1 760000
284338 2022-Aug-14 22:48:27 4nkr.wam CLOUD EARTH FROST STEAM - 1 760000
284337 2022-Aug-14 22:48:09 4nkr.wam CLOUD FROST STEAM STORM - 1 1480000
284336 2022-Aug-14 22:47:50 4nkr.wam FROST STEAM STORM STORM - 1 1900000
284335 2022-Aug-14 22:47:26 4nkr.wam CLOUD CLOUD FROST STEAM - 1 1060000
284334 2022-Aug-14 22:47:08 4nkr.wam AIR AIR FROST STEAM - 1 460000
284333 2022-Aug-14 22:44:20 4nkr.wam AIR ENERGY FROST HEAT - 1 490000
284332 2022-Aug-14 22:44:04 4nkr.wam ENERGY FROST HEAT STORM - 1 1210000
284331 2022-Aug-14 22:43:39 4nkr.wam CLOUD ENERGY FROST HEAT - 1 790000
284330 2022-Aug-14 22:41:27 4nkr.wam CLOUD CLOUD FROST HEAT - 1 1060000
284329 2022-Aug-14 22:40:10 4nkr.wam CLOUD FROST HEAT STORM - 1 1480000
284328 2022-Aug-14 22:39:57 4nkr.wam AIR EARTH FROST HEAT - 1 460000
284327 2022-Aug-14 22:39:33 4nkr.wam AIR CLOUD FROST HEAT - 1 760000
284326 2022-Aug-14 22:35:44 4nkr.wam AIR EARTH ENERGY SKY - 1 640000
284325 2022-Aug-14 22:32:50 4nkr.wam AIR CLOUD STORM WATER - 1 1060000
284324 2022-Aug-14 22:29:35 4nkr.wam CLOUD CLOUD ENERGY SUN - 1 1270000
284323 2022-Aug-14 22:28:44 4nkr.wam CLOUD CLOUD CLOUD SUN - 1 1540000
284322 2022-Aug-14 22:27:06 4nkr.wam CLOUD RAIN STORM SUN - 1 1690000
284321 2022-Aug-14 22:25:45 4nkr.wam EARTH ENERGY STORM SUN - 1 1390000
284320 2022-Aug-14 22:25:26 4nkr.wam ENERGY ENERGY STORM SUN - 1 1420000
284319 2022-Aug-14 22:19:03 5qupe.wam BLADE PLANT PLANT PLANT - 1 1600000
284318 2022-Aug-14 22:10:40 ehrbq.wam EARTH FOREST GRASS SEED - 1 3160000
284317 2022-Aug-14 22:07:38 1puqy.wam FLOUR PRESS WATER WHEAT - 1 3370000
284316 2022-Aug-14 22:06:02 ehrbq.wam CLAY ENERGY GLASS HEAT - 1 1210000
284315 2022-Aug-14 22:05:14 1puqy.wam FLOUR PRESS PRESS WHEAT - 1 3400000
284314 2022-Aug-14 22:05:04 ehrbq.wam CLAY ENERGY FIRE GLASS - 1 1180000
284313 2022-Aug-14 22:01:58 ehrbq.wam CLAY FIRE GLASS HEAT - 1 1180000
284312 2022-Aug-14 21:59:33 5qupe.wam HAMMER STONE STONE STONE - 1 3220000
284311 2022-Aug-14 21:59:09 5qupe.wam HAMMER HAMMER STONE STONE - 1 6040000
284310 2022-Aug-14 21:55:59 nanibahaniwx EARTH FOREST SEED WATER - 1 2920000
284308 2022-Aug-14 21:55:33 ehrbq.wam DEW FOREST LIFE MOSS - 1 2890000
284305 2022-Aug-14 21:51:41 ehrbq.wam FOREST LIFE LIFE MOSS - 1 2530000
284304 2022-Aug-14 21:50:58 5qupe.wam PICKAX PICKAX STONE STONE - 1 4780000
284303 2022-Aug-14 21:50:23 zmhb.wam FIRE PRESS TREE WATER - 1 850000
284302 2022-Aug-14 21:42:02 nanibahaniwx CLAY HEAT HEAT KNIFE - 1 4540000
284301 2022-Aug-14 21:41:50 5qupe.wam CHAIN CHAIN STEEL STEEL - 1 4000000
284300 2022-Aug-14 21:41:27 5qupe.wam CHAIN STEEL STEEL STEEL - 1 3940000
284299 2022-Aug-14 21:39:22 5qupe.wam PRESS STEEL STEEL THREAD - 1 4180000
284298 2022-Aug-14 21:39:10 5qupe.wam PRESS PRESS STEEL THREAD - 1 3250000
284297 2022-Aug-14 21:38:41 5qupe.wam METAL METAL PRESS THREAD - 1 3580000
284296 2022-Aug-14 21:37:41 ehrbq.wam GARBAGE PEAT PEAT PLANT - 1 2740000
284295 2022-Aug-14 21:37:33 5qupe.wam METAL PRESS PRESS THREAD - 1 2950000
284294 2022-Aug-14 21:36:51 5qupe.wam STEEL STEEL THREAD THREAD - 1 6340000
284293 2022-Aug-14 21:36:27 5qupe.wam STEEL STEEL STEEL THREAD - 1 5110000
284292 2022-Aug-14 21:36:09 5qupe.wam METAL METAL THREAD THREAD - 1 5740000
284291 2022-Aug-14 21:29:29 5qupe.wam CHAIN CHAIN CHAIN LINEN - 1 4150000
284290 2022-Aug-14 21:28:51 5qupe.wam CHAIN CHAIN LINEN LINEN - 1 4180000
284289 2022-Aug-14 21:28:15 5qupe.wam CHAIN CHAIN METAL METAL - 1 3400000
284288 2022-Aug-14 21:27:45 gpfay.wam ELECTRC ELECTRC SOUND STORM - 1 4390000
284287 2022-Aug-14 21:27:16 5qupe.wam CHAIN METAL METAL METAL - 1 3040000
284286 2022-Aug-14 21:15:15 zmhb.wam BACTERI FOREST LIFE SEED - 1 3760000
284285 2022-Aug-14 21:10:27 zmhb.wam BACTERI FOREST LIFE PLANT - 1 2710000
284284 2022-Aug-14 21:09:30 ehrbq.wam CLAY MUD STONE WATER - 1 790000
284283 2022-Aug-14 21:08:20 ehrbq.wam CLAY EARTH STONE WATER - 1 760000
284282 2022-Aug-14 21:07:45 zmhb.wam BACTERI FOREST GRASS LIFE - 1 2800000
284281 2022-Aug-14 21:06:45 ehrbq.wam CLAY ENERGY STONE WATER - 1 790000
284280 2022-Aug-14 21:05:09 ehrbq.wam CLAY ENERGY PRESS STONE - 1 820000
284279 2022-Aug-14 20:48:34 4nkr.wam AIR CLOUD SKY WIND - 1 1030000
284278 2022-Aug-14 20:48:20 4nkr.wam CLOUD ELECTRC SKY WIND - 1 2440000
284277 2022-Aug-14 20:47:56 4nkr.wam CLOUD EARTH SKY WIND - 1 1030000
284276 2022-Aug-14 20:47:40 4nkr.wam CLOUD ICE SKY WIND - 1 1450000
284275 2022-Aug-14 20:36:56 4nkr.wam CLOUD EARTH ICE ICE - 1 1180000
284274 2022-Aug-14 20:36:34 4nkr.wam CLOUD EARTH ENERGY ICE - 1 790000
284273 2022-Aug-14 20:36:03 4nkr.wam CLOUD CLOUD EARTH ICE - 1 1060000
284271 2022-Aug-14 20:25:44 4nkr.wam EARTH RAIN SKY SOUND - 1 1450000
284270 2022-Aug-14 20:25:34 4nkr.wam EARTH EXPLOSN RAIN SKY - 1 940000
284269 2022-Aug-14 20:21:52 4nkr.wam EARTH ENERGY SKY SOUND - 1 1450000
284268 2022-Aug-14 20:21:29 4nkr.wam EARTH ENERGY EXPLOSN SKY - 1 940000
284267 2022-Aug-14 20:18:44 4nkr.wam EARTH ENERGY EXPLOSN STORM - 1 1090000
284266 2022-Aug-14 20:15:33 4nkr.wam EARTH HEAT SKY STORM - 1 1360000
284264 2022-Aug-14 20:14:46 4nkr.wam EARTH EARTH ENERGY SKY - 1 640000
284263 2022-Aug-14 20:14:29 4nkr.wam EARTH ENERGY HEAT SKY - 1 670000
284262 2022-Aug-14 20:07:45 4nkr.wam CLOUD EARTH EARTH ELECTRC - 1 1750000
284259 2022-Aug-14 19:54:57 4nkr.wam CLOUD EARTH HEAT RAIN - 1 400000
284256 2022-Aug-14 19:48:38 4nkr.wam CLOUD EARTH ELECTRC HEAT - 1 1780000
284255 2022-Aug-14 19:48:20 4nkr.wam EARTH ELECTRC HEAT STORM - 1 2200000
284254 2022-Aug-14 19:43:59 4nkr.wam CLOUD EARTH EARTH ENERGY - 1 370000
284253 2022-Aug-14 19:37:01 4nkr.wam EARTH SKY STORM STORM - 1 2050000
284252 2022-Aug-14 19:36:45 4nkr.wam EARTH ENERGY SKY STORM - 1 1360000
284251 2022-Aug-14 19:36:20 4nkr.wam EARTH EARTH SKY STORM - 1 1330000
284250 2022-Aug-14 19:33:57 4nkr.wam CLOUD EARTH EARTH SKY - 1 910000
284249 2022-Aug-14 19:33:39 4nkr.wam CLOUD CLOUD EARTH SKY - 1 1210000
284248 2022-Aug-14 19:31:37 4nkr.wam CLOUD EARTH STORM STORM - 1 1780000
284247 2022-Aug-14 19:31:26 4nkr.wam CLOUD CLOUD EARTH STORM - 1 1360000
284246 2022-Aug-14 19:31:03 4nkr.wam CLOUD EARTH EARTH STORM - 1 1060000
284245 2022-Aug-14 19:27:39 4nkr.wam AIR AIR CLOUD EARTH - 1 340000
284244 2022-Aug-14 19:24:55 ut5aw.wam CELL FOREST RAIN TREE - 1 8290000
284243 2022-Aug-14 19:16:59 ut5aw.wam CELL FOREST PEAT WIND - 1 8860000
284242 2022-Aug-14 19:16:16 ut5aw.wam CELL FOREST RAIN WIND - 1 7630000
284241 2022-Aug-14 19:11:14 ut5aw.wam CELL FOREST PEAT RAIN - 1 8770000
284240 2022-Aug-14 19:10:08 ut5aw.wam CELL EARTH FOREST RAIN - 1 7510000
284239 2022-Aug-14 18:57:59 .rjb.wam FOG HILL RIVER WATER - 1 2830000
284238 2022-Aug-14 18:46:42 vsgb2.wam FOREST GRASS MOSS WATER - 1 2230000
284237 2022-Aug-14 18:46:20 vsgb2.wam FOREST GRASS MOSS RAIN - 1 2260000
284231 2022-Aug-14 17:51:23 ehrbq.wam ELECTRC HORIZON RAIN STORM - 1 3730000
284230 2022-Aug-14 17:49:51 ehrbq.wam ELECTRC HORIZON RAIN SKY - 1 3580000
284229 2022-Aug-14 17:44:56 ehrbq.wam EARTH PLASMA RAIN STORM - 1 1510000
284228 2022-Aug-14 17:43:23 ehrbq.wam AIR CLOUD PLASMA RAIN - 1 1090000
284226 2022-Aug-14 17:32:32 ehrbq.wam CLAY ENERGY FIRE SAND - 1 1150000
284225 2022-Aug-14 17:31:56 ehrbq.wam CLAY ENERGY HEAT SAND - 1 1180000
284224 2022-Aug-14 17:30:15 ehrbq.wam CLAY FIRE PRESS SAND - 1 1150000
284222 2022-Aug-14 17:28:26 4nkr.wam FOREST LIFE LIFE LIFE - 1 2530000
284221 2022-Aug-14 17:27:05 ehrbq.wam CLAY HEAT PRESS SALT - 1 790000
284220 2022-Aug-14 17:24:49 ehrbq.wam CLAY FIRE PRESS SALT - 1 760000
284219 2022-Aug-14 17:17:18 4nkr.wam ATMSPHE ENERGY HEAT MNTAIN - 1 850000
284218 2022-Aug-14 17:17:03 4nkr.wam ATMSPHE EARTH ENERGY HEAT - 1 220000
284217 2022-Aug-14 17:16:38 4nkr.wam CLOUD EARTH ENERGY HEAT - 1 400000
284216 2022-Aug-14 17:16:19 4nkr.wam CLOUD ENERGY HEAT MNTAIN - 1 1030000
284215 2022-Aug-14 17:16:05 4nkr.wam ENERGY HEAT MNTAIN STORM - 1 1450000
284214 2022-Aug-14 17:15:39 4nkr.wam EARTH ENERGY HEAT STORM - 1 820000
284210 2022-Aug-14 16:33:21 5qupe.wam BACTERI BACTERI BACTERI PLANT - 1 1900000
284207 2022-Aug-14 16:30:59 5qupe.wam BACTERI CABBAGE CARROT PLANT - 1 1150000
284206 2022-Aug-14 16:30:12 5qupe.wam BACTERI CABBAGE CARROT LIFE - 1 1270000
284203 2022-Aug-14 16:28:16 5qupe.wam BACTERI BACTERI BACTERI EARTH - 1 1750000
284200 2022-Aug-14 16:26:26 4nkr.wam BACTERI GRASS LIFE WATER - 1 1120000
284199 2022-Aug-14 16:25:38 5qupe.wam BACTERI EARTH FOREST PLANT - 1 2440000
284198 2022-Aug-14 16:25:21 5qupe.wam BACTERI EARTH FOREST LIFE - 1 2560000
284197 2022-Aug-14 16:23:45 ehrbq.wam BLADE CLAY FIRE PRESS - 1 1810000
284196 2022-Aug-14 16:23:22 ehrbq.wam BLADE CLAY HEAT PRESS - 1 1840000
284195 2022-Aug-14 16:22:07 5qupe.wam CHAIN LINEN METAL THREAD - 1 4960000
284194 2022-Aug-14 16:21:52 ehrbq.wam CLAY HEAT KNIFE PRESS - 1 4540000
284193 2022-Aug-14 16:13:26 5qupe.wam FOAM MNTAIN RAINBOW RIVER - 1 7270000
284192 2022-Aug-14 16:12:05 5qupe.wam BLADE THREAD THREAD THREAD - 1 7720000
284191 2022-Aug-14 16:07:39 5qupe.wam EARTH FOREST LIFE LIFE - 2 2260000
284190 2022-Aug-14 16:06:29 4nkr.wam EARTH ENERGY HEAT SEED - 1 1300000
284188 2022-Aug-14 16:02:28 5qupe.wam EARTH EARTH FOREST LIFE - 2 1990000
284187 2022-Aug-14 15:54:49 5qupe.wam HEAT SEED SUN SUN - 1 2470000
284186 2022-Aug-14 15:54:39 5qupe.wam HEAT PLANT SEED SEED - 1 2620000
284185 2022-Aug-14 15:54:09 5qupe.wam HEAT PLANT PLANT SEED - 1 1570000
284184 2022-Aug-14 15:51:45 5qupe.wam EARTH HEAT SEED SEED - 1 2470000
284182 2022-Aug-14 15:43:44 nanibahaniwx AIR EARTH ELECTRC ENERGY - 1 1480000
284181 2022-Aug-14 15:42:56 5qupe.wam HEAT PLANT PRESS SEED - 1 1450000
284180 2022-Aug-14 15:35:23 nanibahaniwx EARTH ENERGY STORM WATER - 1 790000
284179 2022-Aug-14 15:33:34 5qupe.wam HEAT HEAT PRESS SEED - 1 1330000
284176 2022-Aug-14 15:29:44 nanibahaniwx EARTH ELECTRC STORM WATER - 1 2170000
284173 2022-Aug-14 15:11:26 nd3b2.wam EARTH FIRE GARBAGE STEAM - 1 100000
284171 2022-Aug-14 14:45:50 5qupe.wam RING STONE STONE THREAD - 1 4270000
284170 2022-Aug-14 14:45:07 5qupe.wam STONE STONE STONE THREAD - 1 2500000
284169 2022-Aug-14 14:43:28 5qupe.wam CHAIN STONE STONE STONE - 1 1330000
284168 2022-Aug-14 14:43:10 5qupe.wam CHAIN METAL METAL STONE - 1 2470000
284167 2022-Aug-14 14:42:47 5qupe.wam CHAIN METAL STONE STONE - 1 1900000
284166 2022-Aug-14 14:41:00 4nkr.wam AIR CLOUD CLOUD EARTH - 1 640000
284165 2022-Aug-14 14:40:11 4nkr.wam AIR CLOUD EARTH STORM - 1 1060000
284164 2022-Aug-14 14:39:08 5qupe.wam METAL PRESS RING STONE - 1 2680000
284163 2022-Aug-14 14:38:08 5qupe.wam METAL METAL PRESS RING - 1 3250000
284162 2022-Aug-14 14:37:50 5qupe.wam METAL PRESS PRESS RING - 1 2620000
284161 2022-Aug-14 14:36:05 5qupe.wam CHAIN METAL RING STONE - 1 3670000
284160 2022-Aug-14 14:35:21 5qupe.wam CHAIN METAL METAL RING - 1 4240000
284159 2022-Aug-14 14:30:08 5qupe.wam CHAIN PRESS THREAD THREAD - 1 5470000
284158 2022-Aug-14 14:29:20 5qupe.wam CHAIN PRESS PRESS THREAD - 1 3310000
284157 2022-Aug-14 14:23:23 gpfay.wam CANABIS CANABIS THREAD THREAD - 1 7180000
284156 2022-Aug-14 14:22:11 5qupe.wam CHAIN CHAIN CHAIN THREAD - 1 5290000
284155 2022-Aug-14 14:20:50 5qupe.wam CHAIN CHAIN THREAD THREAD - 1 6460000
284153 2022-Aug-14 14:20:40 gpfay.wam CANABIS CANABIS CANABIS THREAD - 1 6370000
284151 2022-Aug-14 14:11:56 gpfay.wam ELECTRC EXPLOSN RAIN STORM - 1 2500000
284150 2022-Aug-14 14:11:33 4nkr.wam WINDMIL WINDMIL WINDMIL WINDMIL - 1 3880000
284147 2022-Aug-14 14:04:46 5qupe.wam DIAMOND METAL RING STONE - 1 3040000
284146 2022-Aug-14 14:03:22 5qupe.wam CHAIN DIAMOND RING STONE - 1 3400000
284145 2022-Aug-14 14:02:08 5qupe.wam DIAMOND RING STONE THREAD - 1 4570000
284144 2022-Aug-14 14:00:49 ehrbq.wam ATMSPHE CLOUD ELECTRC WIND - 1 1990000
284142 2022-Aug-14 13:56:02 5qupe.wam CHAIN DIAMOND RING THREAD - 2 5500000
284141 2022-Aug-14 13:54:07 bhwqy.wam CLOUD CLOUD ELECTRC LIGHT - 1 11110000
284139 2022-Aug-14 13:53:07 ijar.wam LIFE MUD PEAT PLANT - 1 1750000
284138 2022-Aug-14 13:52:57 ehrbq.wam ATMSPHE CLOUD EARTH STORM - 1 1180000
284136 2022-Aug-14 13:51:33 nanibahaniwx STONE TILING WIND WINDMIL - 1 2560000
284135 2022-Aug-14 13:51:29 gpfay.wam FOREST WATER WATER WATER - 1 1720000
284134 2022-Aug-14 13:50:55 ijar.wam LIFE PEAT PEAT PLANT - 1 2980000
284133 2022-Aug-14 13:50:36 ijar.wam LIFE PEAT PLANT PLANT - 1 1870000
284132 2022-Aug-14 13:50:15 ehrbq.wam ATMSPHE EARTH SKY STORM - 1 1450000
284131 2022-Aug-14 13:50:05 gpfay.wam FOREST RAIN RAIN RAIN - 1 1810000
284130 2022-Aug-14 13:49:49 4nkr.wam BOILER CLAY STONE WATER - 1 1510000
284129 2022-Aug-14 13:49:39 4nkr.wam CLAY STONE SUN WATER - 1 1360000
284127 2022-Aug-14 13:45:08 bhwqy.wam ATMSPHE ELECTRC LIGHT SKY - 1 11200000
284126 2022-Aug-14 13:43:14 ijar.wam BOILER CLAY CLAY WATER - 1 2050000
284124 2022-Aug-14 13:42:32 gpfay.wam DEW EARTH LIFE SEED - 1 2140000
284123 2022-Aug-14 13:42:02 ehrbq.wam CLAY FIRE METAL PRESS - 1 1360000
284122 2022-Aug-14 13:41:56 ijar.wam BOILER CLAY CLAY FIRE - 1 2050000
284121 2022-Aug-14 13:41:38 bhwqy.wam ATMSPHE ELECTRC LIGHT STORM - 1 11350000
284120 2022-Aug-14 13:41:32 ijar.wam BOILER CLAY HEAT PRESS - 1 1480000
284119 2022-Aug-14 13:41:03 ijar.wam BOILER CLAY HEAT WATER - 1 1450000
284118 2022-Aug-14 13:40:21 ijar.wam BOILER CLAY CLAY PRESS - 2 2080000
284116 2022-Aug-14 13:40:10 5qupe.wam RING RING RING THREAD - 1 7810000
284114 2022-Aug-14 13:38:10 gpfay.wam DEW EARTH EARTH PLANT - 1 820000
284112 2022-Aug-14 13:33:04 3yk5c.wam CLAY FIRE SUN WATER - 1 1270000
284110 2022-Aug-14 13:28:56 nanibahaniwx CLOTH STONE TILING WIND - 1 5890000
284109 2022-Aug-14 13:25:44 nanibahaniwx STONE TILING WIND WIND - 1 1720000
284108 2022-Aug-14 13:23:23 5qupe.wam DIAMOND DIAMOND THREAD THREAD - 1 5200000
284107 2022-Aug-14 13:20:17 ehrbq.wam CLAY PRESS RESIN WATER - 1 3100000
284105 2022-Aug-14 13:19:31 3yk5c.wam HEAT PLANT SEED TIME - 1 6130000
284103 2022-Aug-14 13:17:04 5qupe.wam METAL METAL METAL THREAD - 1 4210000
284102 2022-Aug-14 13:16:40 5qupe.wam CHAIN CHAIN CHAIN CHAIN - 1 4120000
284101 2022-Aug-14 13:15:13 5qupe.wam DIAMOND METAL RING THREAD - 2 5140000
284100 2022-Aug-14 13:12:52 4nkr.wam ATMSPHE EARTH ENERGY STORM - 1 910000
284099 2022-Aug-14 13:11:33 kingofcrypto CLAY HEAT PLASTIC WATER - 1 2680000
284097 2022-Aug-14 13:10:23 kingofcrypto CLAY FIRE PLASTIC WATER - 1 2650000
284096 2022-Aug-14 13:09:33 5qupe.wam CHAIN DIAMOND METAL RING - 1 3970000
284095 2022-Aug-14 13:08:55 q1pb4.wam ENERGY MNTAIN SOUND WATER - 1 1510000
284094 2022-Aug-14 13:08:50 4nkr.wam ATMSPHE EARTH ENERGY EXPLOSN - 1 490000
284093 2022-Aug-14 13:08:40 5qupe.wam CHAIN DIAMOND RING RING - 1 5170000
284092 2022-Aug-14 13:08:32 4nkr.wam ATMSPHE EARTH ENERGY SOUND - 1 1000000
284091 2022-Aug-14 13:08:21 4nkr.wam ATMSPHE EARTH ENERGY ENERGY - 1 220000
284090 2022-Aug-14 13:08:20 5qupe.wam CHAIN DIAMOND DIAMOND RING - 1 3700000
284088 2022-Aug-14 13:06:44 5qupe.wam DIAMOND DIAMOND DIAMOND RING - 1 3070000
284087 2022-Aug-14 13:06:14 gpfay.wam METAL PRESS WATER WATER - 1 730000
284086 2022-Aug-14 13:05:15 5qupe.wam CHAIN CHAIN CHAIN RING - 1 4960000
284085 2022-Aug-14 13:02:32 3yk5c.wam HEAT SEED TIME TREE - 1 6760000
284084 2022-Aug-14 12:59:46 ehrbq.wam CLAY ENERGY SUN WATER - 1 1300000
284083 2022-Aug-14 12:59:08 5qupe.wam CHAIN RING RING RING - 1 6640000
284082 2022-Aug-14 12:56:45 gpfay.wam DEW FOREST RAIN WATER - 1 2380000
284081 2022-Aug-14 12:56:15 ijar.wam FOREST LIFE PEAT RAIN - 1 3280000
284080 2022-Aug-14 12:54:59 ijar.wam EARTH FOREST LIFE RAIN - 1 2020000
284079 2022-Aug-14 12:53:55 p1qbo.wam BUBBLES FOAM MNTAIN RIVER - 1 5470000
284077 2022-Aug-14 12:52:50 3yk5c.wam PLANT SEED SUN TIME - 1 6700000
284072 2022-Aug-14 12:51:38 ijar.wam EARTH FOREST LIFE WATER - 1 1990000
284070 2022-Aug-14 12:50:03 ijar.wam FOREST LIFE PEAT WATER - 1 3250000
284069 2022-Aug-14 12:49:40 ijar.wam EARTH FOREST PEAT WATER - 1 2980000
284068 2022-Aug-14 12:49:20 ijar.wam EARTH FOREST LIFE PEAT - 1 3250000
284067 2022-Aug-14 12:47:15 4nkr.wam EARTH ENERGY MNTAIN RIVER - 1 1720000
284066 2022-Aug-14 12:46:55 4nkr.wam EARTH MNTAIN RIVER WATER - 1 1690000
284065 2022-Aug-14 12:44:09 4nkr.wam ENERGY GEYSER MNTAIN WATER - 1 880000
284064 2022-Aug-14 12:41:11 gpfay.wam DEW FOREST PLANT WATER - 1 2500000
284063 2022-Aug-14 12:39:28 gpfay.wam DEW EARTH FOREST WATER - 1 2350000
284062 2022-Aug-14 12:37:46 gpfay.wam EARTH FOREST SUN WATER - 1 2320000
284061 2022-Aug-14 12:37:45 vampireofwax EARTH FOREST TREE WATER - 1 2500000
284060 2022-Aug-14 12:36:47 ehrbq.wam FOREST GRASS MOSS SUN - 1 2830000
284059 2022-Aug-14 12:35:38 4nkr.wam CLAY PRESS PRESS SUN - 1 1330000
284057 2022-Aug-14 12:35:19 vampireofwax FOREST TREE WATER WATER - 1 2500000
284055 2022-Aug-14 12:32:59 5qupe.wam FOREST PLANT PLANT PLANT - 1 2170000
284054 2022-Aug-14 12:32:51 db1rc.wam ENERGY FOREST FROST PLANT - 1 2290000
284053 2022-Aug-14 12:31:44 5qupe.wam FOREST FOREST PLANT RAIN - 1 3580000
284052 2022-Aug-14 12:30:57 5qupe.wam FOREST PLANT PLANT WATER - 1 2020000
284051 2022-Aug-14 12:30:32 4nkr.wam CLAY PRESS SUN WATER - 1 1300000
284050 2022-Aug-14 12:29:44 5qupe.wam FOREST PLANT RAIN RAIN - 1 1930000
284049 2022-Aug-14 12:29:21 5qupe.wam FOREST PLANT WATER WATER - 1 1870000
284048 2022-Aug-14 12:27:58 5qupe.wam EARTH FOREST FOREST PLANT - 1 3550000
284047 2022-Aug-14 12:27:26 5qupe.wam FOREST LIFE PLANT PLANT - 1 2290000
284046 2022-Aug-14 12:26:58 5qupe.wam FOREST LIFE LIFE PLANT - 1 2410000
284044 2022-Aug-14 12:26:27 5qupe.wam FOREST PLANT PLANT RAIN - 1 2050000
284042 2022-Aug-14 12:24:56 vampireofwax AIR FOREST TREE WATER - 1 2500000
284041 2022-Aug-14 12:24:29 vampireofwax FOREST OXYGEN TREE WATER - 1 5260000
284040 2022-Aug-14 12:23:05 gpfay.wam DEW EARTH FOREST TREE - 1 3130000
284039 2022-Aug-14 12:20:35 4nkr.wam CANABIS LINEN PLASTIC PRESS - 1 4480000
284038 2022-Aug-14 12:17:56 gpfay.wam DEW EARTH FOREST GRASS - 1 2590000
284037 2022-Aug-14 12:14:19 5qupe.wam FOAM HILL RIVER STONE - 1 5380000
284036 2022-Aug-14 12:13:50 5qupe.wam FOAM MNTAIN RIVER STONE - 1 4600000
284035 2022-Aug-14 12:12:08 4nkr.wam HEAT SEED SEED SUN - 1 3070000
284034 2022-Aug-14 12:11:33 rplanetrobot FLOUR FLOUR PRESS WINDMIL - 1 6010000
284032 2022-Aug-14 12:10:11 5qupe.wam EARTH FOREST PLANT TREE - 1 2650000
284031 2022-Aug-14 12:08:16 4nkr.wam HILL HILL PICKAX PICKAX - 1 7420000
284030 2022-Aug-14 12:07:47 4nkr.wam MNTAIN MNTAIN PICKAX PICKAX - 1 5860000
284029 2022-Aug-14 12:06:09 4nkr.wam HURRCAN METORIT PLANET TSUNAMI - 1 15430000
284027 2022-Aug-14 12:04:35 5qupe.wam EARTH EARTH FOREST PLANT - 1 1870000
284026 2022-Aug-14 12:01:08 5qupe.wam FOREST LIFE PLANT RAIN - 1 2170000
284025 2022-Aug-14 12:00:52 5qupe.wam FOREST LIFE PLANT WATER - 1 2140000
284024 2022-Aug-14 11:59:58 4nkr.wam METAL WIND WIND WINDMIL - 1 1900000
284023 2022-Aug-14 11:59:45 4nkr.wam METAL METAL WIND WINDMIL - 1 2440000
284022 2022-Aug-14 11:59:02 5qupe.wam EARTH FOREST PLANT PLANT - 1 2020000
284021 2022-Aug-14 11:57:46 4nkr.wam BUILDNG STONE WIND WINDMIL - 1 9730000
284020 2022-Aug-14 11:55:23 4nkr.wam ENERGY ENERGY SEED TREE - 3 2080000
284019 2022-Aug-14 11:54:33 5qupe.wam FOAM FOAM MNTAIN RIVER - 1 7330000
284018 2022-Aug-14 11:54:04 5qupe.wam FOAM FOAM HILL RIVER - 1 8110000
284017 2022-Aug-14 11:53:45 5qupe.wam FOAM HILL RIVER WATER - 1 5290000
284016 2022-Aug-14 11:53:29 5qupe.wam FOAM MNTAIN RIVER WATER - 1 4510000
284015 2022-Aug-14 11:53:00 rplanetrobot BOTTLE CLAY PRESS WATER - 1 1240000
284014 2022-Aug-14 11:52:50 4nkr.wam ENERGY SEED SUN TREE - 1 2650000
284013 2022-Aug-14 11:49:22 ifaay.wam BACTERI EARTH FOREST RAIN - 1 2320000
284012 2022-Aug-14 11:47:38 ehrbq.wam FOREST GRASS MOSS PLANT - 1 2380000
284011 2022-Aug-14 11:46:45 ifaay.wam BACTERI EARTH FOG FOREST - 1 2650000
284010 2022-Aug-14 11:45:59 5qupe.wam FOREST LIFE SEED SUN - 1 3790000
284009 2022-Aug-14 11:45:39 ehrbq.wam EARTH FOREST LIFE PLANT - 1 2140000
284008 2022-Aug-14 11:45:23 4nkr.wam ENERGY HILL MNTAIN WATER - 1 2110000
284007 2022-Aug-14 11:43:34 ehrbq.wam FOREST GRASS LIFE WATER - 1 2230000
284006 2022-Aug-14 11:39:34 ehrbq.wam FOREST LIFE MOSS PLANT - 1 2410000
284005 2022-Aug-14 11:39:05 ijar.wam FOAM PRESS PRESS WATER - 1 2920000
284004 2022-Aug-14 11:38:15 ehrbq.wam FOREST GRASS LIFE PLANT - 1 2380000
284003 2022-Aug-14 11:37:51 mxxb4.wam FOAM MNTAIN RIVER SOUND - 1 5320000
284002 2022-Aug-14 11:36:46 4nkr.wam EARTH ENERGY SOUND STORM - 1 1600000
284001 2022-Aug-14 11:36:41 ijar.wam FOAM WATER WATER WATER - 1 2860000
284000 2022-Aug-14 11:36:32 5qupe.wam FOREST PLANT RAIN SEED - 1 3100000
283999 2022-Aug-14 11:36:27 ijar.wam FOAM FOAM WATER WATER - 1 5680000
283998 2022-Aug-14 11:36:02 5qupe.wam EARTH FOREST PLANT SEED - 1 3070000
283997 2022-Aug-14 11:36:02 ijar.wam FLOOD FOAM WALL WATER - 1 3340000
283996 2022-Aug-14 11:35:51 ehrbq.wam EARTH FOREST LIFE MOSS - 1 2260000
283995 2022-Aug-14 11:35:40 rplanetrobot HEAT SEED SEED SEED - 1 3670000
283994 2022-Aug-14 11:35:20 ijar.wam FOAM MNTAIN WALL WATER - 1 3820000
283993 2022-Aug-14 11:34:59 4nkr.wam CLOUD EARTH ENERGY EXPLOSN - 1 670000
283992 2022-Aug-14 11:34:51 5qupe.wam FOREST PLANT RAIN WATER - 1 1900000
283991 2022-Aug-14 11:34:45 ehrbq.wam EARTH FOREST GRASS LIFE - 1 2230000
283990 2022-Aug-14 11:34:17 ijar.wam FLOOD FOAM MNTAIN WATER - 1 3640000
283989 2022-Aug-14 11:34:06 5qupe.wam EARTH FOREST PLANT RAIN - 1 1900000
283988 2022-Aug-14 11:33:52 5qupe.wam EARTH FOREST PLANT WATER - 1 1870000
283987 2022-Aug-14 11:33:46 4nkr.wam CLOUD EARTH ENERGY SOUND - 1 1180000
283986 2022-Aug-14 11:33:33 5qupe.wam EARTH FOREST PLANT SUN - 2 2470000
283985 2022-Aug-14 11:33:03 rplanetrobot HEAT SEED SEED WATER - 1 2470000
283984 2022-Aug-14 11:32:39 ehrbq.wam FOREST FOREST LIFE MOSS - 1 3940000
283983 2022-Aug-14 11:32:14 ehrbq.wam FOREST LIFE MOSS MOSS - 2 2530000
283982 2022-Aug-14 11:32:05 5qupe.wam FOREST PLANT PLANT SUN - 1 2620000
283980 2022-Aug-14 11:29:34 ehrbq.wam FOREST GRASS LIFE MOSS - 1 2500000
283979 2022-Aug-14 11:26:26 4nkr.wam DEW EARTH GRASS TREE FOREST 1 1690000
283977 2022-Aug-14 11:24:56 ehrbq.wam FOAM HILL PRESS WATER - 1 4300000
283976 2022-Aug-14 11:24:17 ijar.wam FLOOD FOAM PRESS WATER - 1 3040000
283975 2022-Aug-14 11:23:50 ijar.wam FOAM PRESS WALL WATER - 1 3220000
283974 2022-Aug-14 11:23:21 ijar.wam BUBBLES FOAM PRESS WATER - 1 3850000
283973 2022-Aug-14 11:22:56 ijar.wam FOAM MNTAIN PRESS WATER - 1 3520000
283972 2022-Aug-14 11:22:56 4nkr.wam CLOUD EARTH ICE STORM - 1 1480000
283971 2022-Aug-14 11:20:46 4nkr.wam CLOUD EARTH ICE SKY - 1 1330000
283970 2022-Aug-14 11:20:34 ijar.wam FOAM PRESS WATER WATER - 1 2890000
283969 2022-Aug-14 11:19:15 4nkr.wam ATMSPHE CLOUD ENERGY ICE - 1 910000
283968 2022-Aug-14 11:14:58 ehrbq.wam FOAM GAS PRESS TNPLT - 1 4570000
283967 2022-Aug-14 11:13:50 vampireofwax FOAM METAL PRESS WATER EXTINGS 1 3550000
283966 2022-Aug-14 11:11:21 ehrbq.wam FOAM PRESS PRESS PRESS - 1 2950000
283965 2022-Aug-14 11:10:13 4nkr.wam STONE WIND WIND WINDMIL - 1 1330000
283964 2022-Aug-14 11:09:29 4nkr.wam PRESS STONE STONE WINDMIL - 1 1210000
283961 2022-Aug-14 11:06:44 kingofcrypto AIR FOAM STEEL WATER - 1 3820000
283960 2022-Aug-14 11:05:22 ehrbq.wam BOTTLE FOAM PRESS STEEL - 1 4390000
283959 2022-Aug-14 11:04:59 4nkr.wam STONE STONE WHEAT WINDMIL - 3 1990000
283958 2022-Aug-14 11:04:53 ehrbq.wam BOTTLE FOAM METAL PRESS - 1 4090000
283957 2022-Aug-14 11:04:43 4nkr.wam STONE STONE WIND WINDMIL - 1 1300000
283955 2022-Aug-14 11:03:16 1puqy.wam ALUMINM FOAM PRESS SMOKE - 1 5290000
283954 2022-Aug-14 11:01:03 ehrbq.wam FOAM PLASTIC PRESS STEEL - 1 5830000
283953 2022-Aug-14 10:59:58 4nkr.wam ENERGY HEAT SEED SUN - 1 1900000
283952 2022-Aug-14 10:59:50 vampireofwax FOAM FOAM PRESS STEEL - 1 6670000
283951 2022-Aug-14 10:59:39 1puqy.wam FIRE FOAM METAL SMOKE - 1 3850000
283950 2022-Aug-14 10:59:02 4nkr.wam ENERGY ENERGY SEED SUN - 1 1900000
283949 2022-Aug-14 10:58:43 1puqy.wam ALUMINM FIRE FOAM SMOKE - 1 5260000
283948 2022-Aug-14 10:56:33 ehrbq.wam FOAM METAL PRESS STEEL - 1 4510000
283947 2022-Aug-14 10:54:38 vampireofwax FOAM PRESS STEEL WATER - 1 3850000
283946 2022-Aug-14 10:53:51 vampireofwax FOAM GAS PRESS STEEL - 1 4750000
283945 2022-Aug-14 10:52:10 kingofcrypto AIR FOAM METAL WATER - 1 3520000
283944 2022-Aug-14 10:50:26 ehrbq.wam FIRE FOAM PRESS STEEL - 1 3850000
283943 2022-Aug-14 10:49:57 ehrbq.wam FOAM PRESS PRESS STEEL - 1 3880000
283942 2022-Aug-14 10:48:17 1puqy.wam ALUMINM FIRE FOAM PRESS - 1 4960000
283941 2022-Aug-14 10:43:33 4nkr.wam FOAM PRESS PRESS SYRINGE - 1 7600000
283940 2022-Aug-14 10:43:28 ehrbq.wam FOAM METAL PRESS PRESS - 1 3580000
283939 2022-Aug-14 10:42:39 1puqy.wam FIRE FIRE FOAM METAL - 1 3520000
283938 2022-Aug-14 10:41:52 ehrbq.wam AIR FOAM METAL PRESS - 1 3550000
283937 2022-Aug-14 10:41:07 4nkr.wam FOAM GAS METAL PRESS - 1 4450000
283936 2022-Aug-14 10:40:10 4nkr.wam AIR AIR FOAM PRESS - 1 2890000
283935 2022-Aug-14 10:38:58 ehrbq.wam FOAM METAL PLASTIC PRESS - 1 5530000
283934 2022-Aug-14 10:34:32 ehrbq.wam FIRE FOAM METAL PRESS - 1 3550000
283933 2022-Aug-14 10:30:27 1puqy.wam OXYGEN PRESS WATER WATER FOAM 1 2830000
283932 2022-Aug-14 10:28:51 4nkr.wam CRUDE METAL OXYGEN PRESS - 1 4480000
283928 2022-Aug-14 04:34:56 5qupe.wam RIVER RIVER RIVER RIVER - 1 4120000
283926 2022-Aug-14 04:24:26 5qupe.wam EARTH PEAT SEED SEED - 1 3700000
283925 2022-Aug-14 04:24:02 5qupe.wam EARTH EARTH PEAT PLANT - 1 1450000
283924 2022-Aug-14 04:23:11 tpar4.wam LIMSTON PRESS SHELL TIME - 1 15910000
283922 2022-Aug-14 03:56:11 ehrbq.wam PEAT PEAT PLANT PLANT - 1 2860000
283921 2022-Aug-14 03:53:41 ehrbq.wam CABBAGE CARROT PEAT PLANT - 1 1840000
283920 2022-Aug-14 03:53:21 jfequ.wam LIGHT PAINTNG PLASTIC PRISM - 1 27220000
283919 2022-Aug-14 03:52:22 ehrbq.wam CABBAGE CARROT PEAT TREE - 1 2470000
283917 2022-Aug-14 03:29:34 ehrbq.wam ALUMINM HEAT PRESS WATER - 1 2170000
283915 2022-Aug-14 00:40:14 ehrbq.wam ASH CLAY HEAT OBSIDIN - 1 1420000
283914 2022-Aug-14 00:38:03 ehrbq.wam CLAY HEAT HEAT OBSIDIN - 1 850000
283913 2022-Aug-14 00:08:19 vsgb2.wam PRESS RAIN SKY STORM - 1 1390000
283912 2022-Aug-14 00:05:18 vsgb2.wam ELECTRC ICE SKY STORM - 1 3160000
283911 2022-Aug-14 00:03:58 vsgb2.wam ICE RAIN SKY STORM - 1 1780000
283910 2022-Aug-14 00:01:25 vsgb2.wam ICE ICE SKY STORM - 1 2170000
283909 2022-Aug-14 00:01:04 vsgb2.wam ICE PRESS SKY STORM - 1 1780000
283908 2022-Aug-13 23:21:56 1puqy.wam AIR ELECTRC FROST STORM - 1 2560000
283907 2022-Aug-13 23:18:22 1puqy.wam AIR ELECTRC ICE STORM - 1 2590000
283906 2022-Aug-13 23:08:37 ehrbq.wam CLAY ENERGY HEAT KNIFE - 1 4540000
283905 2022-Aug-13 23:06:45 ehrbq.wam BLADE CLAY ENERGY HEAT - 1 1840000
283904 2022-Aug-13 23:03:53 4nkr.wam CLOUD ENERGY ICE ICE - 1 1210000
283903 2022-Aug-13 23:02:44 4nkr.wam CLOUD CLOUD ICE ICE - 1 1480000
283902 2022-Aug-13 23:02:05 ehrbq.wam AIR CLAY ENERGY WATER - 1 700000
283901 2022-Aug-13 23:01:44 4nkr.wam CLOUD ICE ICE STORM - 1 1900000
283899 2022-Aug-13 22:59:02 ehrbq.wam CLAY ENERGY WATER WATER - 1 700000
283898 2022-Aug-13 22:58:07 ehrbq.wam CLAY ENERGY ENERGY WATER - 1 730000
283897 2022-Aug-13 22:55:39 ehrbq.wam DEW LIFE TREE TREE - 1 2500000
283896 2022-Aug-13 22:52:51 ehrbq.wam LIFE STONE TREE TREE - 1 1960000
283895 2022-Aug-13 21:48:28 5qupe.wam PEAT PEAT PEAT PEAT - 1 5080000
283894 2022-Aug-13 21:39:22 5qupe.wam CABBAGE CARROT GRASS PLANT - 2 820000
283893 2022-Aug-13 21:38:08 5qupe.wam CABBAGE CARROT PEAT PEAT - 1 2950000
283892 2022-Aug-13 21:36:31 5qupe.wam CABBAGE CARROT EARTH EARTH - 1 430000
283891 2022-Aug-13 21:35:09 5qupe.wam CABBAGE CARROT EARTH LIFE - 1 700000
283890 2022-Aug-13 18:59:32 4nkr.wam METAL PRESS PRESS WATER - 1 760000
283887 2022-Aug-13 16:14:50 5qupe.wam PAINT RAIN SEED SUN - 1 4660000
283886 2022-Aug-13 16:14:10 5qupe.wam PAINT PLANT SUN WATER - 1 3580000
283885 2022-Aug-13 16:12:38 5qupe.wam EARTH PAINT SEED SUN - 1 4630000
283884 2022-Aug-13 16:12:04 5qupe.wam EARTH PAINT PLANT SUN - 1 3580000
283883 2022-Aug-13 16:01:33 5qupe.wam EARTH PAINT SEED SEED - 1 5230000
283882 2022-Aug-13 16:00:28 5qupe.wam EARTH LIFE PAINT SEED - 1 4300000
283881 2022-Aug-13 16:00:04 5qupe.wam EARTH LIFE PAINT PLANT - 1 3250000
283880 2022-Aug-13 15:59:20 5qupe.wam EARTH PAINT PLANT PLANT - 1 3130000
283879 2022-Aug-13 15:58:27 5qupe.wam EARTH PAINT PLANT RAIN - 1 3010000
283878 2022-Aug-13 15:40:26 5qupe.wam LIFE LIFE SEED SEED - 1 2980000
283877 2022-Aug-13 15:39:12 5qupe.wam RAIN SEED SEED WATER - 1 2470000
283876 2022-Aug-13 15:38:33 5qupe.wam LIFE RAIN SEED SEED - 1 2740000
283875 2022-Aug-13 15:37:52 5qupe.wam LIFE SEED SEED WATER - 1 2710000
283874 2022-Aug-13 15:36:56 5qupe.wam PLANT PLANT PLANT SEED - 1 1690000
283873 2022-Aug-13 15:36:26 5qupe.wam PLANT RAIN SEED SEED - 1 2620000
283872 2022-Aug-13 15:35:09 5qupe.wam PLANT PLANT RAIN SEED - 1 1570000
283871 2022-Aug-13 15:34:16 5qupe.wam LIFE PLANT SEED SEED - 1 2860000
283870 2022-Aug-13 15:33:23 5qupe.wam LIFE LIFE RAIN RAIN - 1 640000
283869 2022-Aug-13 15:32:32 5qupe.wam EARTH LIFE SEED SEED - 1 2710000
283868 2022-Aug-13 15:31:29 5qupe.wam EARTH RAIN RAIN WATER - 1 100000
283867 2022-Aug-13 15:30:58 5qupe.wam EARTH RAIN WATER WATER - 1 70000
283866 2022-Aug-13 15:29:59 5qupe.wam EARTH LIFE LIFE RAIN - 1 610000
283865 2022-Aug-13 15:27:55 5qupe.wam EARTH ELECTRC FIRE SKY - 1 2020000
283863 2022-Aug-13 15:24:27 5qupe.wam ELECTRC FIRE SKY TREE - 1 2800000
283862 2022-Aug-13 15:24:16 ehrbq.wam ASH CLAY EARTH FIRE - 1 1270000
283861 2022-Aug-13 15:23:45 ehrbq.wam ASH CLAY EARTH HEAT - 1 1300000
283860 2022-Aug-13 15:21:47 ehrbq.wam ASH CLAY EARTH WATER - 1 1270000
283859 2022-Aug-13 14:47:02 5qupe.wam TREE TREE WINDMIL WINDMIL - 1 3520000
283858 2022-Aug-13 13:19:41 5qupe.wam CANABIS PRESS PRESS THREAD - 1 3670000
283856 2022-Aug-13 13:17:50 5qupe.wam CANABIS LINEN PRESS PRESS - 1 2530000
283855 2022-Aug-13 13:16:49 5qupe.wam CANABIS LINEN PRESS THREAD - 1 4690000
283854 2022-Aug-13 13:09:52 ehrbq.wam FLOUR STONE WATER WHEAT - 1 3430000
283853 2022-Aug-13 13:07:14 ehrbq.wam FLOUR PRESS STONE WIND - 1 2770000
283850 2022-Aug-13 12:45:35 5qupe.wam FLOUR STONE WHEAT WIND - 1 3550000
283849 2022-Aug-13 12:45:17 5qupe.wam FLOUR WHEAT WIND WIND - 2 3580000
283847 2022-Aug-13 12:42:29 5qupe.wam STONE WHEAT WIND WIND - 1 1180000
283846 2022-Aug-13 12:42:08 5qupe.wam FLOUR STONE WIND WIND - 1 2860000
283844 2022-Aug-13 12:41:28 ehrbq.wam ENERGY MUD MUD SAND - 1 580000
283842 2022-Aug-13 12:29:09 5qupe.wam STONE TREE WHEAT WINDMIL - 1 2680000
283841 2022-Aug-13 12:27:45 5qupe.wam STONE WHEAT WHEAT WINDMIL - 1 2710000
283840 2022-Aug-13 12:11:09 4nkr.wam BUILDNG WHEAT WHEAT WINDMIL - 1 11140000
283837 2022-Aug-13 11:38:28 5qupe.wam BLADE CLAY HEAT WATER - 2 1810000
283836 2022-Aug-13 11:38:01 5qupe.wam BLADE CLAY CLAY HEAT - 1 2440000
283835 2022-Aug-13 11:37:35 5qupe.wam BLADE CLAY CLAY CLAY - 1 3040000
283834 2022-Aug-13 11:25:02 5qupe.wam LIFE TREE TREE WATER - 1 1870000
283833 2022-Aug-13 11:24:34 5qupe.wam EARTH PLANT SULFUR TREE - 1 2290000
283832 2022-Aug-13 11:24:15 5qupe.wam EARTH PLANT PRESS SULFUR - 1 1540000
283831 2022-Aug-13 09:37:03 ehrbq.wam CLAY CLAY CLAY ENERGY - 1 1960000
283830 2022-Aug-13 09:34:14 ehrbq.wam BRICK CLAY FIRE PRESS - 1 790000
283829 2022-Aug-13 09:33:39 ehrbq.wam BRICK CLAY ENERGY FIRE - 1 790000
283826 2022-Aug-13 05:51:23 gpfay.wam RIVER RIVER WALL WALL - 1 2740000
283825 2022-Aug-13 05:30:38 gpfay.wam RIVER WALL WALL WALL - 1 2050000
283824 2022-Aug-13 05:29:08 gpfay.wam WALL WALL WALL WATER - 1 1030000
283823 2022-Aug-13 05:26:23 gpfay.wam RAIN RAIN WALL WALL - 1 760000
283822 2022-Aug-13 05:25:26 gpfay.wam RAIN WALL WALL WALL - 1 1060000
283821 2022-Aug-13 04:52:02 gpfay.wam MNTAIN RAIN RIVER WALL - 1 2050000
283820 2022-Aug-13 04:31:38 gpfay.wam FIRE MUD MUD STONE - 1 190000
283819 2022-Aug-13 04:12:08 gpfay.wam CLAY GLASS PRESS WATER - 1 1180000
283818 2022-Aug-13 04:10:46 gpfay.wam BOILER CLAY FIRE PRESS - 1 1450000
283817 2022-Aug-13 04:09:45 gpfay.wam BOILER CLAY FIRE FIRE - 1 1420000
283816 2022-Aug-13 04:06:57 gpfay.wam CLAY FIRE FIRE GLASS - 1 1150000
283815 2022-Aug-13 04:05:22 gpfay.wam CLAY FIRE GLASS PRESS - 1 1180000
283813 2022-Aug-13 04:03:16 gpfay.wam CLAY FIRE GLASS WATER - 1 1150000
283812 2022-Aug-13 04:02:01 gpfay.wam CLAY FIRE PRESS STONE - 1 790000
283811 2022-Aug-13 03:55:26 vsgb2.wam CLAY DUST HEAT HEAT - 1 760000
283810 2022-Aug-13 03:38:11 gpfay.wam BOILER CLAY PRESS PRESS - 1 1480000
283809 2022-Aug-12 23:42:15 vsgb2.wam CLAY CLAY DUST HEAT - 1 1360000
283808 2022-Aug-12 22:57:50 bovbc.wam GRASS HEAT SHIT SHIT - 1 11110000
283807 2022-Aug-12 22:52:17 bovbc.wam BACTERI GRASS SHIT SHIT - 1 11650000
283804 2022-Aug-12 20:42:15 cnbba.wam EARTH HEAT STEEL WATER - 2 1030000
283802 2022-Aug-12 20:21:16 nanibahaniwx BRICK CLAY COAL FIRE - 1 1030000
283801 2022-Aug-12 20:20:29 nanibahaniwx CLAY COAL FIRE FIRE - 1 940000
283799 2022-Aug-12 19:23:41 vsgb2.wam CLAY EARTH HEAT HEAT - 1 730000
283798 2022-Aug-12 18:18:01 nbgro.wam BUILDNG PRESS PRESS WINDMIL - 1 9580000
283797 2022-Aug-12 18:07:07 vsgb2.wam ASH CLAY HEAT WATER - 1 1300000
283796 2022-Aug-12 17:59:19 vsgb2.wam CLAY DUST HEAT WATER - 1 730000
283794 2022-Aug-12 17:17:17 cnbba.wam FOG PLANT RAIN TREE - 1 1360000
283790 2022-Aug-12 16:38:46 u55qy.wam COAL GASOLIN PRESS RESIN - 1 3850000
283789 2022-Aug-12 16:36:33 u55qy.wam COAL FIRE GASOLIN RESIN - 1 3820000
283788 2022-Aug-12 15:00:45 l.ion GRASS GRASS MOSS TREE - 1 1570000
283787 2022-Aug-12 14:50:20 l.ion EARTH HILL TREE TREE - 1 3010000
283785 2022-Aug-12 13:41:51 oywb2.wam EXPLOSN METORIT PLANET TSUNAMI - 2 15220000
283784 2022-Aug-12 12:48:22 nbgro.wam CLOUD EARTH ELECTRC PRESS - 1 1780000
283783 2022-Aug-12 12:47:58 nbgro.wam CLOUD CLOUD ELECTRC PRESS - 1 2080000
283782 2022-Aug-12 12:33:39 1puqy.wam ALIEN ATMCBMB METORIT VIRUS - 1 27910000
283781 2022-Aug-12 12:15:08 ijar.wam ELECTRC KITE METAL SKY - 1 7360000
283780 2022-Aug-12 12:14:27 ijar.wam ELECTRC KITE METAL STORM - 1 7510000
283779 2022-Aug-12 12:03:02 rpiay.wam CLOUD ELECTRC KITE METAL - 1 7090000
283777 2022-Aug-12 11:59:38 rpiay.wam CLAY FIRE HEAT KNIFE - 1 4510000
283776 2022-Aug-12 11:49:59 ijar.wam BLADE PRESS THREAD THREAD - 1 5560000
283775 2022-Aug-12 11:49:38 ijar.wam BLADE PRESS PRESS THREAD - 1 3400000
283774 2022-Aug-12 11:46:41 ijar.wam PLANT PRESS THREAD THREAD - 1 4600000
283773 2022-Aug-12 11:45:52 ijar.wam PLANT PRESS PRESS THREAD - 1 2440000
283772 2022-Aug-12 11:44:09 dyqqy.wam MOSS PEAT TREE TREE - 1 3130000
283771 2022-Aug-12 11:34:51 ijar.wam CLAY COAL FIRE WATER - 1 940000
283770 2022-Aug-12 11:34:15 ehrbq.wam ATMSPHE ENERGY ENERGY SKY - 1 790000
283769 2022-Aug-12 11:33:28 ijar.wam EARTH ELECTRC ENERGY SKY - 1 2050000
283768 2022-Aug-12 11:33:16 ehrbq.wam ATMSPHE ENERGY ENERGY STORM - 1 940000
283767 2022-Aug-12 11:29:34 nbgro.wam ATMSPHE CLOUD ELECTRC EXPLOSN - 1 2170000
283766 2022-Aug-12 11:21:16 ehrbq.wam ENERGY SKY STORM STORM - 1 2080000
283765 2022-Aug-12 11:17:29 ehrbq.wam AIR ENERGY STORM STORM - 1 1510000
283764 2022-Aug-12 11:10:17 ehrbq.wam ENERGY ENERGY RAIN RAIN - 1 160000
283763 2022-Aug-12 11:08:59 ehrbq.wam ENERGY ENERGY SKY SKY - 1 1240000
283762 2022-Aug-12 11:02:28 5qupe.wam TREE TREE TREE WATER - 1 2380000
283761 2022-Aug-12 11:01:44 5qupe.wam RAIN TREE TREE WATER - 1 1630000
283760 2022-Aug-12 11:01:25 5qupe.wam PLANT TREE TREE WATER - 1 1750000
283758 2022-Aug-12 10:55:08 ehrbq.wam PALM PLANT RAIN TREE - 1 2830000
283757 2022-Aug-12 10:48:50 5qupe.wam EARTH PALM SUN TREE - 1 3250000
283756 2022-Aug-12 10:48:09 5qupe.wam EARTH PALM RAIN TREE - 1 2680000
283755 2022-Aug-12 10:46:33 5qupe.wam FOG LIFE TREE TREE - 1 2230000
283754 2022-Aug-12 10:45:59 5qupe.wam LIFE PALM RAIN TREE - 1 2950000
283753 2022-Aug-12 10:44:28 5qupe.wam PLANT RAIN TREE TREE - 2 1780000
283752 2022-Aug-12 10:42:46 5qupe.wam PALM PALM RAIN SUN - 1 4330000
283751 2022-Aug-12 10:42:14 5qupe.wam PALM PALM RAIN RAIN - 1 3760000
283750 2022-Aug-12 10:38:56 gpfay.wam ENERGY PRESS PRESS THREAD - 1 2320000
283749 2022-Aug-12 10:36:46 gpfay.wam ENERGY ENERGY PRESS THREAD - 1 2320000
283748 2022-Aug-12 10:35:08 5qupe.wam FOG FOG TREE TREE - 1 2320000
283747 2022-Aug-12 10:33:15 5qupe.wam FOG PLANT PLANT TREE - 1 1480000
283746 2022-Aug-12 10:32:47 gpfay.wam ENERGY ENERGY ENERGY THREAD - 1 2320000
283745 2022-Aug-12 10:32:26 5qupe.wam EARTH FOG TREE TREE - 1 1960000
283744 2022-Aug-12 10:31:56 5qupe.wam FOG PLANT TREE TREE - 1 2110000
283743 2022-Aug-12 10:28:23 ehrbq.wam CLOUD ENERGY ENERGY SKY - 1 970000
283742 2022-Aug-12 10:28:05 ehrbq.wam CLOUD ENERGY ICE WATER - 1 790000
283739 2022-Aug-12 10:22:34 ehrbq.wam ENERGY ENERGY RAIN STORM - 1 850000
283737 2022-Aug-12 10:19:47 ehrbq.wam ENERGY RAIN RAIN STORM - 1 850000
283736 2022-Aug-12 10:18:11 ehrbq.wam ENERGY RAIN STORM STORM - 1 1540000
283735 2022-Aug-12 10:16:15 ehrbq.wam AIR EARTH ENERGY STORM - 1 790000
283732 2022-Aug-12 10:14:21 ehrbq.wam AIR ENERGY RAIN STORM - 1 820000
283731 2022-Aug-12 10:12:11 ehrbq.wam AIR ENERGY PRESS STORM - 1 820000
283730 2022-Aug-12 10:11:17 ehrbq.wam AIR PRESS RAIN STORM - 1 820000
283729 2022-Aug-12 10:08:03 ehrbq.wam FOG MNTAIN PRESS WATER - 1 1060000
283727 2022-Aug-12 10:02:56 5qupe.wam EARTHQ HILL MNTAIN WATER - 1 2170000
283725 2022-Aug-12 10:00:50 5qupe.wam EARTHQ MNTAIN WATER WATER - 1 760000
283724 2022-Aug-12 09:59:05 5qupe.wam ENERGY MNTAIN WATER WATER - 1 700000
283723 2022-Aug-12 09:58:45 5qupe.wam HILL MNTAIN WATER WATER - 1 2080000
283722 2022-Aug-12 09:55:51 5qupe.wam EARTHQ MNTAIN RIVER RIVER - 1 2800000
283721 2022-Aug-12 09:54:38 5qupe.wam EARTHQ RIVER STONE WATER - 1 1240000
283720 2022-Aug-12 09:52:53 5qupe.wam EARTHQ HILL MNTAIN RIVER - 2 3190000
283719 2022-Aug-12 09:52:25 5qupe.wam EARTHQ HILL RIVER WATER - 1 2560000
283717 2022-Aug-12 09:48:44 ehrbq.wam CLOUD ENERGY RAIN WATER - 1 400000
283716 2022-Aug-12 09:48:04 ehrbq.wam CLOUD ENERGY RAIN TREE - 1 1180000
283715 2022-Aug-12 09:46:34 ehrbq.wam CLOUD ENERGY FIREWRK RAIN - 1 2230000
283712 2022-Aug-12 09:42:02 5qupe.wam EARTHQ RIVER WATER WATER - 1 1150000
283711 2022-Aug-12 09:40:20 ehrbq.wam AIR MUD PRESS WATER - 1 100000
283709 2022-Aug-12 09:39:27 rpiay.wam BACTERI MUD PLANT SHIT - 1 6190000
283707 2022-Aug-12 09:38:20 ehrbq.wam ENERGY HEAT MUD WATER - 1 130000
283706 2022-Aug-12 09:37:33 ehrbq.wam ENERGY FIRE MUD WATER - 1 100000
283705 2022-Aug-12 09:36:50 ehrbq.wam ENERGY FIRE HEAT MUD - 1 130000
283704 2022-Aug-12 09:36:32 ehrbq.wam CLAY ENERGY HEAT MUD - 2 760000
283703 2022-Aug-12 09:34:57 kingofcrypto CLAY FIRE FIRE PLASTIC - 1 2650000
283702 2022-Aug-12 09:34:04 ehrbq.wam AIR CLAY ENERGY HEAT - 1 730000
283701 2022-Aug-12 09:32:57 ehrbq.wam AIR CLAY EARTH HEAT - 1 700000
283700 2022-Aug-12 09:31:45 rpiay.wam CLAY FIRE FIRE KNIFE - 1 4480000
283699 2022-Aug-12 09:29:47 ehrbq.wam AIR PRESS SODA WATER - 1 1840000
283698 2022-Aug-12 09:28:38 ehrbq.wam AIR PRESS TNPLT WATER - 1 850000
283697 2022-Aug-12 09:28:38 5qupe.wam EARTH EARTH LIFE SUN - 1 910000
283696 2022-Aug-12 09:28:02 5qupe.wam EARTH LIFE LIFE SUN - 1 1180000
283695 2022-Aug-12 09:27:57 ehrbq.wam AIR METAL PRESS WATER - 1 730000
283694 2022-Aug-12 09:27:45 rpiay.wam CLAY CLAY FIRE KNIFE - 1 5110000
283693 2022-Aug-12 09:27:20 ehrbq.wam AIR PRESS STEEL WATER - 1 1030000
283692 2022-Aug-12 09:26:51 5qupe.wam HEAT HEAT LIFE SUN - 1 970000
283691 2022-Aug-12 09:26:08 5qupe.wam HEAT LIFE RAIN SUN - 1 970000
283690 2022-Aug-12 09:25:47 5qupe.wam HEAT LIFE SUN WATER - 1 940000
283689 2022-Aug-12 09:24:48 5qupe.wam LIFE RAIN SUN WATER - 1 940000
283688 2022-Aug-12 09:24:26 rpiay.wam CLAY FIRE KNIFE PAINT - 1 7270000
283687 2022-Aug-12 09:17:47 5qupe.wam EARTH EARTH HEAT SEED - 1 1270000
283686 2022-Aug-12 09:17:03 5qupe.wam EARTH HEAT HEAT SEED - 1 1300000
283685 2022-Aug-12 09:16:43 5qupe.wam EARTH LIFE LIFE SEED - 1 1780000
283684 2022-Aug-12 09:16:22 5qupe.wam HEAT HEAT LIFE SEED - 1 1570000
283683 2022-Aug-12 09:15:38 5qupe.wam HEAT HEAT PLANT SEED - 1 1450000
283682 2022-Aug-12 09:15:20 5qupe.wam HEAT HEAT SEED SUN - 1 1900000
283681 2022-Aug-12 09:14:51 5qupe.wam HEAT LIFE LIFE PLANT - 1 760000
283680 2022-Aug-12 09:14:17 5qupe.wam HEAT LIFE LIFE SEED - 1 1810000
283676 2022-Aug-12 09:12:13 5qupe.wam LIFE LIFE PLANT SEED - 1 1930000
283675 2022-Aug-12 09:11:40 5qupe.wam LIFE LIFE RAIN SEED - 1 1810000
283673 2022-Aug-12 09:09:50 5qupe.wam LIFE LIFE SEED WATER - 2 1780000
283672 2022-Aug-12 09:02:27 5qupe.wam LIFE RAIN RAIN SEED - 1 1570000
283671 2022-Aug-12 09:01:56 5qupe.wam LIFE PLANT RAIN RAIN - 1 520000
283670 2022-Aug-12 09:01:09 5qupe.wam HEAT LIFE SEED SUN - 2 2140000
283669 2022-Aug-12 09:00:50 5qupe.wam HEAT LIFE SEED WATER - 2 1540000
283668 2022-Aug-12 09:00:25 5qupe.wam HEAT RAIN SEED WATER - 2 1300000
283667 2022-Aug-12 08:58:49 5qupe.wam HEAT RAIN SEED SUN - 1 1900000
283666 2022-Aug-12 08:58:23 5qupe.wam HEAT PLANT SEED SUN - 1 2020000
283665 2022-Aug-12 08:57:55 5qupe.wam HEAT LIFE PLANT SEED - 1 1690000
283664 2022-Aug-12 08:57:32 zmhb.wam HEAT PRESS TNPLT WATER - 1 880000
283663 2022-Aug-12 08:57:31 5qupe.wam HEAT LIFE PLANT SUN - 1 1090000
283662 2022-Aug-12 08:56:39 5qupe.wam EARTH HEAT LIFE SEED - 1 1540000
283661 2022-Aug-12 08:38:03 5qupe.wam HILL RAINBOW RIVER WATER - 1 5230000
283660 2022-Aug-12 08:36:49 5qupe.wam MNTAIN RAINBOW RIVER WATER - 2 4450000
283659 2022-Aug-12 08:36:26 5qupe.wam RAINBOW RIVER WATER WATER - 1 3820000
283658 2022-Aug-12 08:10:31 gpfay.wam HEAT PRESS STEEL WATER FORK 1 1060000
283657 2022-Aug-12 08:08:11 5qupe.wam FIRE PRESS TNPLT TNPLT - 1 1630000
283656 2022-Aug-12 08:07:57 5qupe.wam FIRE PRESS STEEL STEEL - 1 1990000
283655 2022-Aug-12 08:07:34 5qupe.wam FIRE PRESS PRESS TNPLT - 1 880000
283654 2022-Aug-12 08:07:13 5qupe.wam FIRE PRESS PRESS STEEL - 1 1060000
283650 2022-Aug-12 07:22:38 5qupe.wam FIRE TNPLT TNPLT WATER - 1 1600000
283649 2022-Aug-12 07:22:13 5qupe.wam FIRE STEEL STEEL WATER - 1 1960000
283648 2022-Aug-12 07:21:37 5qupe.wam FIRE METAL TNPLT WATER - 1 1480000
283647 2022-Aug-12 07:21:23 5qupe.wam FIRE METAL STEEL WATER - 1 1660000
283646 2022-Aug-12 07:20:39 5qupe.wam FIRE METAL METAL WATER - 1 1360000
283641 2022-Aug-12 07:03:51 5qupe.wam METAL STEEL STEEL TNPLT - 1 3400000
283640 2022-Aug-12 07:03:39 5qupe.wam METAL STEEL TNPLT TNPLT - 1 3220000
283639 2022-Aug-12 07:03:04 5qupe.wam METAL METAL STEEL TNPLT - 1 3100000
283638 2022-Aug-12 07:02:19 5qupe.wam METAL PRESS STEEL STEEL - 1 2650000
283637 2022-Aug-12 07:01:56 5qupe.wam METAL METAL PRESS STEEL - 1 2350000
283636 2022-Aug-12 04:29:16 vsgb2.wam CLOUD ELECTRC ICE PRESS - 1 2200000
283635 2022-Aug-12 04:27:51 vsgb2.wam CLOUD ELECTRC ICE ICE - 1 2590000
283634 2022-Aug-12 04:25:34 nbgro.wam HEAT PRESS PRESS TNPLT - 1 910000
283633 2022-Aug-12 04:15:50 u55qy.wam BOTTLE COAL GASOLIN RESIN - 1 4360000
283632 2022-Aug-12 03:13:57 5qupe.wam METAL METAL PRESS TNPLT - 1 2170000
283630 2022-Aug-12 03:05:01 5qupe.wam HAMMER METAL METAL METAL - 2 4930000
283629 2022-Aug-12 02:02:15 ijar.wam BATTERY RESIN TNPLT WIRE - 1 9520000
283628 2022-Aug-12 02:01:51 ijar.wam BATTERY GLASS RESIN WIRE - 1 9220000
283627 2022-Aug-12 02:01:22 ijar.wam BATTERY METAL RESIN WIRE - 1 9400000
283626 2022-Aug-12 02:00:56 5qupe.wam BATTERY SMOKE SMOKE WIRE VAPE 1 7000000
283625 2022-Aug-12 01:58:49 5qupe.wam BATTERY GLASS GLASS WIRE - 1 7300000
283624 2022-Aug-12 01:58:26 5qupe.wam BATTERY METAL METAL WIRE - 1 7660000
283623 2022-Aug-12 01:57:57 5qupe.wam BATTERY TNPLT TNPLT WIRE - 1 7900000
283622 2022-Aug-12 01:56:29 1puqy.wam BATTERY RESIN STEAM WIRE - 1 8770000
283621 2022-Aug-12 01:54:14 1puqy.wam BATTERY RESIN VACUUM WIRE - 1 9970000
283620 2022-Aug-12 01:51:56 5qupe.wam BATTERY CLOUD FOG WIRE - 1 7000000
283619 2022-Aug-12 01:51:26 ijar.wam BATTERY SMOKE STEEL WIRE - 1 7630000
283618 2022-Aug-12 01:50:46 ijar.wam BATTERY CLOUD STEEL WIRE - 1 7600000
283616 2022-Aug-12 01:48:50 5qupe.wam BATTERY FOG SMOKE WIRE - 1 7030000
283615 2022-Aug-12 01:46:27 1puqy.wam BATTERY PLASTIC RESIN WIRE - 1 10720000
283614 2022-Aug-12 01:42:52 5qupe.wam BATTERY FOG TNPLT WIRE - 1 7480000
283613 2022-Aug-12 01:40:15 5qupe.wam BATTERY FOG GLASS WIRE - 1 7180000
283612 2022-Aug-12 01:38:40 1puqy.wam BATTERY CLOUD STEAM WIRE - 2 6670000
283611 2022-Aug-12 01:32:32 ijar.wam BATTERY CLOUD LIFE WIRE - 1 6910000
283610 2022-Aug-12 01:30:20 tvsba.wam BATTERY HEAT STEEL WIRE - 1 7330000
283609 2022-Aug-12 01:27:08 ijar.wam BATTERY CLOUD WATER WIRE - 1 6640000
283608 2022-Aug-12 01:26:14 ijar.wam ALUMINM BATTERY CLOUD WIRE - 1 8710000
283607 2022-Aug-12 01:25:51 ijar.wam BATTERY CLOUD SMOKE WIRE - 1 6970000
283606 2022-Aug-12 00:57:45 5qupe.wam BATTERY PRESS STEAM WIRE - 1 6400000
283605 2022-Aug-12 00:49:39 beefstick123 ALUMINM BATTERY TNPLT WIRE - 1 9190000
283604 2022-Aug-12 00:48:03 beefstick123 BATTERY METAL TNPLT WIRE - 1 7780000
283603 2022-Aug-12 00:47:39 beefstick123 ALUMINM BATTERY METAL WIRE - 1 9070000
283602 2022-Aug-12 00:42:50 ijar.wam BATTERY BOILER ELECTRC WIRE - 1 8500000
283601 2022-Aug-11 23:55:08 1puqy.wam BATTERY SMOKE WATER WIRE - 1 6670000
283600 2022-Aug-11 23:51:15 4nkr.wam EARTH PEAT TREE TREE - 1 2860000
283599 2022-Aug-11 23:47:04 ijar.wam AIR BATTERY PLASTIC WIRE - 1 8320000
283598 2022-Aug-11 23:46:28 ijar.wam AIR BATTERY TNPLT WIRE - 1 7120000
283597 2022-Aug-11 23:44:56 ijar.wam AIR BATTERY METAL WIRE - 1 7000000
283596 2022-Aug-11 23:43:02 ijar.wam BATTERY TNPLT WATER WIRE - 1 7120000
283595 2022-Aug-11 23:39:05 ijar.wam BATTERY CLOUD TOBACCO WIRE - 1 6970000
283594 2022-Aug-11 23:24:25 ehrbq.wam ALUMINM BATTERY DRKGLAS WIRE - 1 8680000
283593 2022-Aug-11 23:22:07 ehrbq.wam ALUMINM BATTERY FOG WIRE - 1 8770000
283592 2022-Aug-11 23:17:51 ijar.wam BATTERY BOILER PLASTIC WIRE - 1 9070000
283591 2022-Aug-11 23:17:13 ijar.wam BATTERY BOILER WATER WIRE - 1 7090000
283590 2022-Aug-11 23:16:38 ijar.wam BATTERY BOILER SMOKE WIRE - 1 7420000
283589 2022-Aug-11 23:16:13 ijar.wam BATTERY BOILER CANABIS WIRE - 1 8470000
283588 2022-Aug-11 23:15:33 ijar.wam BATTERY BOILER CLOUD WIRE - 1 7390000
283587 2022-Aug-11 23:07:44 nbgro.wam BATTERY HEAT VACUUM WIRE - 1 7600000
283586 2022-Aug-11 23:02:10 nbgro.wam BATTERY BATTERY HEAT WIRE - 1 9880000
283585 2022-Aug-11 22:59:22 nanibahaniwx ALUMINM BATTERY STEAM WIRE - 1 8440000
283584 2022-Aug-11 22:50:50 nbgro.wam BATTERY BOILER TNPLT WIRE - 1 7870000
283582 2022-Aug-11 22:37:38 nbgro.wam BATTERY GAS TNPLT WIRE - 1 8020000
283580 2022-Aug-11 22:11:01 5qupe.wam ALUMINM BATTERY TOBACCO WIRE - 1 8740000
283579 2022-Aug-11 22:09:26 5qupe.wam BATTERY GLASS TOBACCO WIRE - 1 7150000
283578 2022-Aug-11 22:08:50 5qupe.wam BATTERY GLASS STEAM WIRE - 1 6850000
283577 2022-Aug-11 22:06:38 5qupe.wam ALUMINM BATTERY CANABIS WIRE - 1 9790000
283576 2022-Aug-11 22:01:34 ifaay.wam ALCOHOL BATTERY CANABIS WIRE - 1 7900000
283575 2022-Aug-11 21:54:46 5qupe.wam BATTERY FOG METAL WIRE - 1 7360000
283574 2022-Aug-11 21:52:13 vsgb2.wam BATTERY RESIN SMOKE WIRE - 1 9070000
283573 2022-Aug-11 21:50:43 nbgro.wam ATOM BATTERY HEAT WIRE - 1 9340000
283572 2022-Aug-11 21:46:20 lv5b.wam BATTERY PLASTIC TNPLT WIRE - 1 9100000
283571 2022-Aug-11 21:45:40 gpfay.wam BATTERY FOG RESIN WIRE - 1 9100000
283569 2022-Aug-11 21:43:46 beefstick123 ALUMINM BATTERY HEAT WIRE - 2 8440000
283567 2022-Aug-11 21:42:45 ijar.wam BATTERY STEAM VACUUM WIRE - 1 7600000
283566 2022-Aug-11 21:42:15 ijar.wam BATTERY SMOKE VACUUM WIRE - 1 7900000
283565 2022-Aug-11 21:41:46 5qupe.wam BATTERY FOG STEAM WIRE - 1 6730000
283564 2022-Aug-11 21:41:43 ijar.wam BATTERY CLOUD VACUUM WIRE - 1 7870000
283563 2022-Aug-11 21:41:39 hpirm.wam BATTERY CANABIS GAS WIRE - 1 8620000
283562 2022-Aug-11 21:41:03 5qupe.wam BATTERY SMOKE STEAM WIRE - 1 6700000
283561 2022-Aug-11 21:39:26 ijar.wam BATTERY PLASTIC VACUUM WIRE - 1 9550000
283560 2022-Aug-11 21:36:50 5qupe.wam BATTERY ENERGY HEAT WIRE - 1 6400000
283559 2022-Aug-11 21:35:46 beefstick123 BATTERY TNPLT TOBACCO WIRE - 1 7450000
283558 2022-Aug-11 21:35:28 beefstick123 BATTERY CANABIS TNPLT WIRE - 1 8500000
283557 2022-Aug-11 21:35:15 lv5b.wam BATTERY STEAM WATER WIRE - 1 6370000
283555 2022-Aug-11 21:33:52 5qupe.wam BATTERY METAL STEAM WIRE - 2 7030000
283554 2022-Aug-11 21:32:40 beefstick123 BATTERY CANABIS METAL WIRE - 1 8380000
283553 2022-Aug-11 21:31:14 beefstick123 BATTERY METAL TOBACCO WIRE - 1 7330000
283551 2022-Aug-11 21:26:59 ijar.wam AMBER GOLD HAMMER PRESS - 1 33670000
283550 2022-Aug-11 21:25:52 5qupe.wam BATTERY GLASS HEAT WIRE - 1 6850000
283549 2022-Aug-11 21:25:25 5qupe.wam BATTERY ELECTRC GLASS WIRE - 1 8230000
283548 2022-Aug-11 21:25:11 5qupe.wam BATTERY CANABIS GLASS WIRE - 1 8200000
283547 2022-Aug-11 21:24:56 nbgro.wam BATTERY TNPLT VACUUM WIRE - 1 8350000
283545 2022-Aug-11 21:24:16 ijar.wam BATTERY DRKGLAS SMOKE WIRE - 1 6940000
283544 2022-Aug-11 21:23:49 ijar.wam BATTERY CLOUD DRKGLAS WIRE - 1 6910000
283542 2022-Aug-11 21:20:51 nbgro.wam BATTERY HEAT WATER WIRE - 1 6370000
283540 2022-Aug-11 21:20:03 5qupe.wam BATTERY CANABIS FOG WIRE - 2 8080000
283538 2022-Aug-11 21:19:56 ijar.wam BATTERY ENERGY PLASTIC WIRE - 1 8350000
283537 2022-Aug-11 21:19:38 ehrbq.wam BATTERY FOG HEAT WIRE - 1 6730000
283536 2022-Aug-11 21:18:57 gpfay.wam BATTERY FOG TOBACCO WIRE - 1 7030000
283535 2022-Aug-11 21:18:50 ijar.wam BATTERY FOG PLASTIC WIRE - 2 8680000
283534 2022-Aug-11 21:17:17 gpfay.wam BATTERY ELECTRC FOG WIRE - 1 8110000
283532 2022-Aug-11 21:16:57 nbgro.wam ALUMINM BATTERY ELECTRC WIRE - 1 9820000
283530 2022-Aug-11 21:15:45 ijar.wam DIAMOND GOLD GOLD PRESS - 1 43720000
283529 2022-Aug-11 21:14:39 5qupe.wam BATTERY ELECTRC METAL WIRE - 2 8410000
283528 2022-Aug-11 21:13:56 ijar.wam AMBER DIAMOND GOLD HAMMER - 1 34030000
283526 2022-Aug-11 21:13:09 ijar.wam AMBER DIAMOND GOLD PRESS - 1 31150000
283524 2022-Aug-11 21:12:47 gpfay.wam BATTERY CLOUD ELECTRC WIRE - 2 8050000
283523 2022-Aug-11 21:12:07 ijar.wam DIAMOND GOLD HAMMER PRESS - 1 25000000
283522 2022-Aug-11 21:11:58 beefstick123 BATTERY HEAT OIL WIRE - 1 11140000
283521 2022-Aug-11 21:11:27 5qupe.wam BATTERY ELECTRC PLASTIC WIRE - 1 9730000
283520 2022-Aug-11 21:10:14 kingofcrypto BATTERY ELECTRC SMOKE WIRE - 2 8080000
283519 2022-Aug-11 21:10:07 ehrbq.wam BATTERY FIRE PLASTIC WIRE - 1 8320000
283517 2022-Aug-11 21:08:40 ijar.wam BATTERY SMOKE TOBACCO WIRE - 2 7000000
283515 2022-Aug-11 21:07:56 gpfay.wam BATTERY ELECTRC WATER WIRE - 1 7750000
283514 2022-Aug-11 21:06:58 ijar.wam BATTERY CLOUD METAL WIRE - 1 7300000
283513 2022-Aug-11 21:06:55 5qupe.wam BATTERY CANABIS TOBACCO WIRE - 1 8050000
283510 2022-Aug-11 21:04:10 sxyqy.wam BATTERY STEAM TNPLT WIRE - 1 7150000
283509 2022-Aug-11 21:04:08 nbgro.wam BATTERY ELECTRC STEAM WIRE - 1 7780000
283508 2022-Aug-11 21:04:04 ehrbq.wam BATTERY HEAT TOBACCO WIRE - 1 6700000
283505 2022-Aug-11 21:02:38 ijar.wam BATTERY CANABIS SMOKE WIRE - 2 8050000
283503 2022-Aug-11 21:01:32 ijar.wam BATTERY CANABIS CLOUD WIRE - 2 8020000
283500 2022-Aug-11 21:00:26 4nkr.wam BATTERY HEAT RESIN WIRE - 1 8770000
283498 2022-Aug-11 20:59:31 ehrbq.wam BATTERY HEAT PLASTIC WIRE - 1 8350000
283497 2022-Aug-11 20:59:21 ijar.wam BATTERY CLOUD TNPLT WIRE - 1 7420000
283496 2022-Aug-11 20:59:15 kingofcrypto BATTERY METAL SMOKE WIRE - 2 7330000
283495 2022-Aug-11 20:58:58 5qupe.wam BATTERY CANABIS HEAT WIRE - 3 7750000
283494 2022-Aug-11 20:58:56 gpfay.wam BATTERY CANABIS STEAM WIRE - 1 7750000
283492 2022-Aug-11 20:58:46 ijar.wam BATTERY SMOKE TNPLT WIRE - 1 7450000
283491 2022-Aug-11 20:58:28 4nkr.wam BATTERY PLASTIC WATER WIRE - 2 8320000
283490 2022-Aug-11 20:58:04 5qupe.wam BATTERY HEAT STEAM WIRE - 2 6400000
283489 2022-Aug-11 20:58:03 ijar.wam BATTERY CLOUD PLASTIC WIRE - 1 8620000
283487 2022-Aug-11 20:57:33 ijar.wam BATTERY PLASTIC SMOKE WIRE - 2 8650000
283486 2022-Aug-11 20:57:23 4nkr.wam BATTERY ELECTRC TOBACCO WIRE - 1 8080000
283485 2022-Aug-11 20:57:13 5qupe.wam BATTERY HEAT SMOKE WIRE - 2 6700000
283484 2022-Aug-11 20:55:59 4nkr.wam BATTERY CANABIS ELECTRC WIRE - 3 9130000
283481 2022-Aug-11 15:47:02 ehrbq.wam CLAY FIRE RESIN WATER - 1 3070000
283480 2022-Aug-11 15:46:40 ehrbq.wam CLAY HEAT RESIN WATER - 1 3100000
283479 2022-Aug-11 15:45:40 ehrbq.wam CLAY ENERGY HEAT RESIN - 1 3130000
283478 2022-Aug-11 15:45:23 ehrbq.wam CLAY ENERGY FIRE RESIN - 1 3100000
283477 2022-Aug-11 02:25:55 1puqy.wam BLCKCHN CALCLTR GAS IDEA - 1 32170000
283469 2022-Aug-10 23:40:17 1puqy.wam ATMSPHE ELECTRC HEAT RAIN - 1 1630000
283468 2022-Aug-10 23:37:04 1puqy.wam ATMSPHE CLOUD ELECTRC HEAT - 1 1900000
283466 2022-Aug-10 23:25:32 1puqy.wam CLOUD ELECTRC PRESS STORM - 1 2500000
283464 2022-Aug-10 11:16:45 ehrbq.wam FLOOD HILL MNTAIN WALL - 1 2560000
283463 2022-Aug-10 11:14:53 ehrbq.wam HILL MNTAIN WALL WATER - 1 2410000
283462 2022-Aug-10 09:00:26 zmhb.wam RAIN SOUND SOUND SOUND - 1 2500000
283461 2022-Aug-10 08:58:58 zmhb.wam RAIN RAIN SOUND SOUND - 1 1720000
283460 2022-Aug-10 08:58:38 zmhb.wam RAIN RAIN RAIN SOUND - 1 940000
283459 2022-Aug-10 08:53:21 zmhb.wam ELECTRC ENERGY RAIN SOUND - 1 2320000
283458 2022-Aug-10 05:03:29 zmhb.wam CLOUD RAIN SKY SOUND - 1 1750000
283457 2022-Aug-10 02:44:58 ijar.wam FLOOD MNTAIN WALL WATER - 1 1150000
283456 2022-Aug-10 02:43:23 ijar.wam FLOOD MNTAIN PRESS PRESS - 1 880000
283455 2022-Aug-10 02:41:04 ijar.wam BUBBLES FLOOD MNTAIN RIVER - 1 2800000
283454 2022-Aug-10 02:40:44 ijar.wam FLOOD MNTAIN PRESS RIVER - 1 1870000
283453 2022-Aug-10 02:40:24 ijar.wam FLOOD MNTAIN RIVER WATER - 1 1840000
283452 2022-Aug-10 02:35:57 ijar.wam PRESS RIVER WALL WATER - 1 1420000
283451 2022-Aug-10 02:35:27 ijar.wam BUBBLES RIVER WALL WATER - 1 2350000
283450 2022-Aug-10 02:21:14 ijar.wam BLCKCHN BLCKCHN COIN GAS - 1 32170000
283449 2022-Aug-10 02:09:50 ijar.wam BOILER CLAY PRESS WATER - 1 1450000
283448 2022-Aug-10 02:09:27 ijar.wam BOILER CLAY FIRE WATER - 1 1420000
283447 2022-Aug-10 02:05:39 1puqy.wam HAMMER THREAD THREAD THREAD - 1 9520000
283446 2022-Aug-10 02:03:03 5qupe.wam BUBBLES BUBBLES GAS TNPLT - 1 3640000
283445 2022-Aug-10 02:00:58 ijar.wam AMBER BONE LIFE SYRINGE - 1 30730000
283444 2022-Aug-10 02:00:31 ijar.wam AMBER BONE CELL LIFE - 1 31810000
283443 2022-Aug-10 01:59:56 5qupe.wam BUBBLES GAS TNPLT WATER - 1 2680000
283442 2022-Aug-10 01:58:53 5qupe.wam BUBBLES METAL PRESS TNPLT - 1 2470000
283441 2022-Aug-10 01:57:41 5qupe.wam BUBBLES BUBBLES TNPLT WATER - 1 2740000
283440 2022-Aug-10 01:53:57 ijar.wam LIFE MUSIC TIME TIME - 1 22480000
283439 2022-Aug-10 01:53:57 5qupe.wam BUBBLES BUBBLES PRESS TNPLT - 1 2770000
283438 2022-Aug-10 01:53:27 5qupe.wam BUBBLES PRESS PRESS TNPLT - 1 1840000
283437 2022-Aug-10 01:50:47 ijar.wam BATTERY LIFE MUSIC TIME - 1 21280000
283436 2022-Aug-10 01:45:13 5qupe.wam BOTTLE BUBBLES METAL WATER - 1 2200000
283435 2022-Aug-10 01:44:46 5qupe.wam BOTTLE BUBBLES BUBBLES METAL - 1 3160000
283434 2022-Aug-10 01:43:07 5qupe.wam BOTTLE BUBBLES METAL PRESS - 1 2230000
283433 2022-Aug-10 01:42:02 ijar.wam BACTERI BACTERI PEAT PEAT - 1 3700000
283432 2022-Aug-10 01:40:32 ijar.wam BACTERI LIFE PEAT PLANT - 1 2290000
283431 2022-Aug-10 01:39:14 ijar.wam BACTERI EARTH LIFE PEAT - 1 2140000
283430 2022-Aug-10 01:38:52 ijar.wam BACTERI EARTH PEAT PLANT - 1 2020000
283429 2022-Aug-10 01:33:15 ijar.wam CABBAGE CARROT LIFE PEAT - 1 1960000
283428 2022-Aug-10 00:07:35 1puqy.wam CLOTH THREAD THREAD THREAD - 1 10900000
283427 2022-Aug-10 00:04:03 1puqy.wam CABBAGE CARROT EARTH GARBAGE - 1 460000
283425 2022-Aug-10 00:03:13 5qupe.wam BOTTLE BUBBLES GAS GAS - 1 3340000
283423 2022-Aug-10 00:01:56 5qupe.wam AIR BOTTLE BUBBLES GAS - 1 2440000
283422 2022-Aug-10 00:01:27 1puqy.wam CABBAGE EARTH GARBAGE PLANT - 1 400000
283421 2022-Aug-10 00:01:16 5qupe.wam AIR BOTTLE BUBBLES PRESS - 1 1570000
283420 2022-Aug-10 00:00:57 1puqy.wam CARROT EARTH GARBAGE PLANT - 1 430000
283419 2022-Aug-10 00:00:45 5qupe.wam AIR BOTTLE BUBBLES WATER - 1 1540000
283418 2022-Aug-09 23:59:32 5qupe.wam BOTTLE BUBBLES BUBBLES BUBBLES - 1 3460000
283417 2022-Aug-09 23:59:10 5qupe.wam BOTTLE BUBBLES BUBBLES GAS - 1 3400000
283416 2022-Aug-09 23:57:59 5qupe.wam BOTTLE BUBBLES BUBBLES PRESS - 1 2530000
283415 2022-Aug-09 23:57:03 5qupe.wam BOTTLE BUBBLES BUBBLES WATER - 1 2500000
283414 2022-Aug-09 23:55:53 5qupe.wam BOTTLE BUBBLES GAS WATER - 1 2440000
283413 2022-Aug-09 23:55:26 1puqy.wam EARTH GARBAGE PLANT TREE - 1 1000000
283411 2022-Aug-09 23:47:39 1puqy.wam ENERGY RIVER TREE WINDMIL - 1 2830000
283410 2022-Aug-09 21:39:19 5qupe.wam METORIT METORIT METORIT METORIT - 2 32200000
283409 2022-Aug-09 21:37:56 5qupe.wam EXPLOSN EXPLOSN EXPLOSN METORIT - 1 8980000
283408 2022-Aug-09 20:11:50 ijar.wam LIGHT METAL PLASTIC RESIN - 1 14140000
283407 2022-Aug-09 20:08:46 ijar.wam LIGHT PAINTNG PLASTIC RESIN - 1 24730000
283406 2022-Aug-09 20:07:27 ijar.wam LENS LIGHT PLASTIC RESIN - 1 14500000
283405 2022-Aug-09 19:20:56 ijar.wam HAMMER METAL SCIENCE SOUND - 1 39310000
283404 2022-Aug-09 19:20:41 vampireofwax HAMMER METAL MUSIC SCIENCE HANGDRM 1 51250000
283403 2022-Aug-09 19:19:28 mxxb4.wam ALUMINM HAMMER SCIENCE SOUND - 1 40720000
283400 2022-Aug-09 19:18:37 gpfay.wam ENERGY HAMMER SCIENCE STEEL - 1 38830000
283399 2022-Aug-09 19:18:20 ijar.wam HAMMER MUSIC SCIENCE STEEL - 2 51550000
283398 2022-Aug-09 19:17:37 nbgro.wam HAMMER SCIENCE SOUND STEEL - 2 39610000
283397 2022-Aug-09 18:56:27 nbgro.wam AIR SOUND SOUND STEEL - 1 2620000
283396 2022-Aug-09 16:22:16 .2frc.wam BIGBANG METORIT METORIT PLANET - 1 69070000
283395 2022-Aug-09 12:04:26 1puqy.wam SEED SEED SEED TREE - 1 4420000
283393 2022-Aug-09 11:17:43 ehrbq.wam CLAY FIRE KNIFE WATER - 1 4480000
283392 2022-Aug-09 11:17:14 ehrbq.wam BLADE CLAY FIRE WATER - 2 1780000
283389 2022-Aug-09 07:40:39 1puqy.wam MNTAIN MNTAIN MNTAIN TREE - 1 2710000
283388 2022-Aug-09 07:27:09 beefstick123 HILL RIVER STONE TIME - 1 7270000
283387 2022-Aug-09 07:24:22 beefstick123 RIVER STONE TIME WIND - 1 5980000
283386 2022-Aug-09 07:21:56 beefstick123 MNTAIN RIVER STONE WIND - 1 1900000
283383 2022-Aug-09 07:14:28 zmhb.wam GRASS PLANT RAIN TREE - 1 1240000
283382 2022-Aug-09 07:13:26 beefstick123 HILL RIVER STONE WIND - 1 2680000
283381 2022-Aug-09 07:05:21 beefstick123 GEYSER HILL RIVER STONE - 1 2740000
283380 2022-Aug-09 07:03:13 beefstick123 GEYSER MNTAIN RIVER STONE - 1 1960000
283379 2022-Aug-09 06:45:17 zmhb.wam BOTTLE CLAY HEAT TNPLT - 1 2020000
283367 2022-Aug-09 02:11:27 1puqy.wam CLAY HEAT KNIFE WATER - 1 4510000
283366 2022-Aug-09 02:04:27 1puqy.wam MNTAIN RIVER STONE WALL - 1 2110000
283365 2022-Aug-09 01:57:39 1puqy.wam MNTAIN RIVER RIVER WALL - 1 3040000
283361 2022-Aug-09 00:30:52 5qupe.wam AIR BUBBLES GAS GAS - 1 2800000
283360 2022-Aug-09 00:28:45 5qupe.wam AIR AIR AIR BUBBLES - 1 1000000
283359 2022-Aug-09 00:27:57 u55qy.wam BUBBLES COAL GASOLIN RESIN - 1 4780000
283358 2022-Aug-09 00:27:49 5qupe.wam AIR AIR BUBBLES BUBBLES - 1 1960000
283357 2022-Aug-09 00:27:20 5qupe.wam AIR AIR BUBBLES GAS - 1 1900000
283356 2022-Aug-09 00:26:03 5qupe.wam AIR AIR BUBBLES PRESS - 1 1030000
283355 2022-Aug-09 00:24:58 5qupe.wam GAS GAS GAS PRESS - 1 2770000
283354 2022-Aug-09 00:24:33 5qupe.wam BUBBLES GAS GAS PRESS - 1 2830000
283353 2022-Aug-09 00:24:08 5qupe.wam BUBBLES GAS PRESS PRESS - 1 1960000
283352 2022-Aug-09 00:23:03 5qupe.wam GAS GAS PRESS PRESS - 1 1900000
283351 2022-Aug-09 00:22:39 5qupe.wam GAS GAS WATER WATER - 1 1840000
283350 2022-Aug-09 00:17:28 zmhb.wam EXPLOSN MNTAIN PRESS WATER - 1 1000000
283349 2022-Aug-09 00:14:35 zmhb.wam GEYSER MNTAIN PRESS WATER - 1 880000
283348 2022-Aug-09 00:13:59 5qupe.wam AIR BUBBLES BUBBLES BUBBLES - 1 2920000
283347 2022-Aug-09 00:13:21 5qupe.wam AIR BUBBLES BUBBLES GAS - 1 2860000
283345 2022-Aug-09 00:09:51 5qupe.wam AIR AIR GAS WATER - 1 940000
283344 2022-Aug-09 00:09:28 5qupe.wam AIR AIR GAS PRESS - 2 970000
283343 2022-Aug-09 00:08:39 5qupe.wam AIR GAS GAS WATER - 1 1840000
283342 2022-Aug-09 00:04:57 5qupe.wam BUBBLES PRESS PRESS WATER - 1 1060000
283341 2022-Aug-09 00:04:05 5qupe.wam AIR BUBBLES GAS PRESS - 1 1930000
283340 2022-Aug-09 00:03:13 5qupe.wam AIR BUBBLES BUBBLES PRESS - 1 1990000
283339 2022-Aug-09 00:01:46 5qupe.wam AIR BUBBLES PRESS PRESS - 1 1060000
283338 2022-Aug-09 00:01:27 zmhb.wam EARTHQ EXPLOSN METORIT PLANET - 1 14260000
283337 2022-Aug-09 00:00:59 5qupe.wam AIR GAS PRESS PRESS - 1 1000000
283336 2022-Aug-09 00:00:16 5qupe.wam AIR GAS WATER WATER - 1 940000
283335 2022-Aug-08 23:59:40 5qupe.wam AIR GAS PRESS WATER - 1 970000
283334 2022-Aug-08 23:58:33 5qupe.wam GAS WATER WATER WATER - 1 940000
283333 2022-Aug-08 23:52:32 5qupe.wam BUBBLES MNTAIN RIVER RIVER - 1 3670000
283332 2022-Aug-08 23:51:39 5qupe.wam BUBBLES MNTAIN RIVER STONE - 1 2740000
283331 2022-Aug-08 23:51:02 5qupe.wam MNTAIN RAIN RIVER RIVER - 1 2740000
283330 2022-Aug-08 23:50:32 5qupe.wam BUBBLES MNTAIN RAIN RIVER - 1 2680000
283329 2022-Aug-08 22:50:55 nanibahaniwx STONE TREE WIND WIND - 1 1150000
283326 2022-Aug-08 20:51:14 ehrbq.wam HILL MNTAIN STONE WATER - 1 2170000
283323 2022-Aug-08 20:08:28 zmhb.wam ATMCBMB EXPLOSN METORIT PLANET - 1 17530000
283321 2022-Aug-08 17:52:02 nbgro.wam AIR RESIN SOUND STEEL - 1 4210000
283320 2022-Aug-08 17:34:56 nbgro.wam AIR PRESS SOUND STEEL - 1 1840000
283319 2022-Aug-08 15:57:28 5qupe.wam EXPLOSN METORIT METORIT PLANET - 1 22210000
283318 2022-Aug-08 15:09:34 henriquemelo OBSIDIN PRESS PRESS STEAM - 1 250000
283317 2022-Aug-08 14:35:44 nbgro.wam PRESS PRESS SOUND STEEL - 1 1870000
283316 2022-Aug-08 14:29:34 5qupe.wam ATMCBMB EARTHQ METORIT TSUNAMI - 1 12580000
283315 2022-Aug-08 14:27:10 5qupe.wam ATMCBMB METORIT PLANET TSUNAMI - 1 18280000
283314 2022-Aug-08 14:26:45 5qupe.wam ATMCBMB EARTHQ METORIT PLANET - 1 17320000
283313 2022-Aug-08 14:22:55 5qupe.wam EARTHQ METORIT PLANET TSUNAMI - 1 15010000
283312 2022-Aug-08 14:18:59 mxxb4.wam MNTAIN RIVER SOUND WAVE - 1 2890000
283310 2022-Aug-08 11:44:03 ehrbq.wam CLAY ENERGY FIRE HEAT - 1 730000
283309 2022-Aug-08 11:23:23 ehrbq.wam GAS PRESS TNPLT WATER - 1 1750000
283308 2022-Aug-08 11:20:46 ehrbq.wam EARTH ELECTRC SKY TREE - 1 2800000
283307 2022-Aug-08 11:16:43 ehrbq.wam BUBBLES GAS PRESS TNPLT - 1 2710000
283306 2022-Aug-08 11:15:29 ehrbq.wam BUBBLES PRESS TNPLT WATER - 1 1810000
283305 2022-Aug-08 10:58:35 ehrbq.wam FLOOD FOG MNTAIN WATER - 1 1180000
283303 2022-Aug-08 10:48:14 ehrbq.wam ATMSPHE ELECTRC RAIN SKY - 1 2170000
283302 2022-Aug-08 10:46:52 ehrbq.wam ATMSPHE ELECTRC PLASMA RAIN - 1 2320000
283301 2022-Aug-08 10:33:58 kingofcrypto EARTHQ MNTAIN RIVER WATER - 1 1780000
283300 2022-Aug-08 10:29:27 ehrbq.wam DEATH FIRE METORIT PLANET - 1 21040000
283299 2022-Aug-08 10:25:44 ehrbq.wam FLOOD HILL MNTAIN RIVER - 1 3250000
283298 2022-Aug-08 10:25:39 kingofcrypto ENERGY MNTAIN RIVER WATER - 1 1720000
283297 2022-Aug-08 10:15:51 ijar.wam BUBBLES FLOOD MNTAIN PRESS - 1 1810000
283296 2022-Aug-08 10:15:34 ijar.wam BUBBLES FLOOD MNTAIN WATER - 1 1780000
283295 2022-Aug-08 10:12:49 ijar.wam BUBBLES MNTAIN PRESS WATER - 1 1660000
283294 2022-Aug-08 10:03:32 ehrbq.wam DEATH METORIT PLANET RADITON - 1 23470000
283293 2022-Aug-08 09:45:30 1puqy.wam ATMCBMB DEATH METORIT PLANET - 1 24400000
283292 2022-Aug-08 09:41:35 ehrbq.wam DEATH METORIT PLANET TSUNAMI - 1 22090000
283291 2022-Aug-08 09:40:28 ijar.wam DEATH METORIT METORIT PLANET - 1 29080000
283290 2022-Aug-08 09:35:44 ehrbq.wam DEATH DEATH METORIT PLANET - 1 28210000
283289 2022-Aug-08 09:32:41 gpfay.wam ATMCBMB ATMCBMB ATMCBMB PLANET - 1 15910000
283288 2022-Aug-08 09:17:40 ijar.wam CALCLTR IQ KNIFE TREE CHESS 1 26530000
283287 2022-Aug-08 09:17:38 ehrbq.wam CALCLTR IQ RESIN TREE - 1 25120000
283286 2022-Aug-08 09:10:15 gpfay.wam COMET COMET COMET PLANET - 1 31840000
283285 2022-Aug-08 09:04:32 ijar.wam EXPLOSN EXPLOSN METORIT PLANET - 2 14470000
283284 2022-Aug-08 09:00:40 gpfay.wam DEATH DEATH DEATH PLANET - 1 27340000
283283 2022-Aug-08 08:58:27 gpfay.wam METORIT METORIT METORIT PLANET - 1 29950000
283282 2022-Aug-08 08:58:03 ijar.wam DEATH EXPLOSN METORIT PLANET - 1 21340000
283281 2022-Aug-08 08:52:15 gpfay.wam DUST RUST SPACE STONE - 1 8080000
283280 2022-Aug-08 08:52:10 ijar.wam EARTH RUST SPACE STONE METORIT 1 8050000
283279 2022-Aug-08 08:51:38 vampireofwax PRESS RUST SPACE STONE - 1 8080000
283278 2022-Aug-08 08:51:33 ijar.wam FIRE RUST SPACE STONE - 1 8050000
283277 2022-Aug-08 07:58:11 nbgro.wam EARTH PLASMA SPACE STONE - 1 8080000
283276 2022-Aug-08 07:00:22 1puqy.wam BULLET SPACE STONE SUN - 1 9550000
283275 2022-Aug-08 06:52:27 qz5be.wam SKY SOUND SPACE STONE - 1 8740000
283273 2022-Aug-08 05:06:11 5qupe.wam METAL PLASMA SPACE STONE - 1 8740000
283272 2022-Aug-08 03:57:57 ehrbq.wam FIRE SOUND SPACE STONE - 1 8170000
283271 2022-Aug-08 03:56:28 ehrbq.wam METAL SOUND SPACE STONE - 1 8830000
283270 2022-Aug-08 03:25:51 1puqy.wam GARBAGE METAL SPACE STONE - 1 8050000
283269 2022-Aug-08 03:07:40 1puqy.wam ATMSPHE GARBAGE SPACE STONE - 1 7510000
283267 2022-Aug-08 00:51:41 1f4aw.wam BLCKMTR SPACE STONE TIME - 1 13060000
283266 2022-Aug-08 00:48:09 1f4aw.wam BACTERI LIGHT SPACE STONE - 1 16990000
283264 2022-Aug-08 00:28:15 ehrbq.wam FLOOD FLOOD HILL RIVER - 1 2770000
283263 2022-Aug-08 00:26:51 ehrbq.wam ENERGY FLOOD HILL RIVER - 1 2650000
283262 2022-Aug-08 00:21:27 ehrbq.wam HILL LIMSTON RAIN RIVER - 1 7270000
283261 2022-Aug-08 00:14:57 ehrbq.wam HILL RAIN RAIN RIVER - 1 2530000
283260 2022-Aug-08 00:12:03 ehrbq.wam ENERGY HILL PRESS WATER - 1 1510000
283259 2022-Aug-07 23:43:50 5qupe.wam DUST EXPLOSN SPACE STONE - 1 7690000
283258 2022-Aug-07 23:31:04 5qupe.wam FIREWRK METAL SPACE STONE - 1 9850000
283257 2022-Aug-07 23:23:04 5qupe.wam FIREWRK HEAT SPACE STONE - 1 9220000
283256 2022-Aug-07 23:21:57 5qupe.wam FIRE FIREWRK SPACE STONE - 1 9190000
283255 2022-Aug-07 23:21:35 5qupe.wam EXPLOSN FIREWRK SPACE STONE - 1 9490000
283254 2022-Aug-07 22:59:53 5qupe.wam EXPLOSN PRESS SPACE STONE - 1 7690000
283253 2022-Aug-07 22:19:51 1f4aw.wam COMET GAS SPACE STONE - 1 16930000
283252 2022-Aug-07 22:18:47 ehrbq.wam DUST SPACE STONE TSUNAMI - 1 8440000
283251 2022-Aug-07 22:12:09 ehrbq.wam CLOUD FIRE SPACE STONE - 1 7660000
283249 2022-Aug-07 21:56:10 ehrbq.wam ENERGY HORIZON SPACE STONE - 1 8920000
283248 2022-Aug-07 21:50:16 ehrbq.wam FIRE GRPHITE SPACE STONE - 1 7690000
283247 2022-Aug-07 20:19:03 jooam.waa AIR AIR SPACE STONE - 1 7360000
283246 2022-Aug-07 20:16:09 oywb2.wam EARTHQ HEAT SPACE STONE - 1 7480000
283244 2022-Aug-07 18:11:22 5qupe.wam EXPLOSN SPACE STONE SUN - 1 8260000
283243 2022-Aug-07 18:11:00 5qupe.wam SPACE STONE SUN VACUUM - 1 9190000
283242 2022-Aug-07 18:10:17 gpfay.wam EXPLOSN SMOKE SPACE STONE - 1 7990000
283241 2022-Aug-07 16:58:32 ifaay.wam AIR METAL SPACE STONE - 1 8020000
283240 2022-Aug-07 16:56:47 5qupe.wam DIAMOND METAL SPACE STONE - 1 8410000
283239 2022-Aug-07 16:56:05 5qupe.wam METAL SPACE STONE WATER - 1 8020000
283238 2022-Aug-07 15:21:34 jooam.waa AIR SPACE STONE STONE - 1 7450000
283236 2022-Aug-07 12:34:14 5qupe.wam EXPLOSN SPACE STEEL STONE - 1 8620000
283235 2022-Aug-07 12:32:44 5qupe.wam AIR PRESS SPACE STONE - 1 7390000
283234 2022-Aug-07 12:32:19 5qupe.wam AIR HEAT SPACE STONE - 1 7390000
283232 2022-Aug-07 11:37:14 oywb2.wam ATMSPHE SOUND SPACE STONE - 1 8290000
283231 2022-Aug-07 11:09:40 1puqy.wam SKY SMOKE SPACE STONE - 1 8260000
283230 2022-Aug-07 10:15:09 1puqy.wam ENERGY PLANET SPACE STONE - 1 13180000
283229 2022-Aug-07 10:07:53 1puqy.wam COMET EARTH SPACE STONE - 1 16030000
283228 2022-Aug-07 09:56:58 rpiay.wam METAL TREE WIND WIND - 1 1720000
283227 2022-Aug-07 09:12:39 1puqy.wam AMBER BONE CELL SCIENCE - 1 66430000
283226 2022-Aug-07 09:08:23 1puqy.wam AMBER BONE SCIENCE SYRINGE - 1 65350000
283225 2022-Aug-07 09:06:02 1puqy.wam AMBER BONE LIFE SCIENCE - 1 60940000
283224 2022-Aug-07 08:58:52 1puqy.wam COMET PLANET SPACE STONE - 1 21820000
283222 2022-Aug-07 08:46:46 1puqy.wam GAS LIGHT SPACE STONE - 1 17320000
283220 2022-Aug-07 08:36:27 1puqy.wam EXPLOSN PLANET SPACE STONE - 1 13450000
283219 2022-Aug-07 07:50:55 ehrbq.wam FROST HEAT SPACE STONE - 1 7780000
283218 2022-Aug-07 07:48:04 ehrbq.wam FIRE FROST SPACE STONE - 1 7750000
283217 2022-Aug-07 07:40:14 lo5ti.wam METAL SAND SPACE STONE - 1 8470000
283215 2022-Aug-07 06:29:26 hh2qw.wam ATMSPHE SPACE STONE WATER - 1 7480000
283214 2022-Aug-07 06:28:34 5qupe.wam ATMSPHE SPACE STONE VACUUM - 1 8710000
283213 2022-Aug-07 06:18:26 5qupe.wam ATMSPHE SMOKE SPACE STONE - 1 7810000
283212 2022-Aug-07 06:16:57 5qupe.wam HEAT SMOKE SPACE STONE - 1 7720000
283211 2022-Aug-07 06:14:03 5qupe.wam ENERGY LAVA SPACE STONE - 1 7420000
283210 2022-Aug-07 06:02:58 5qupe.wam ATMSPHE GLASS SPACE STONE - 1 7960000
283209 2022-Aug-07 06:02:32 5qupe.wam GLASS METAL SPACE STONE - 1 8500000
283208 2022-Aug-07 05:44:28 5qupe.wam TIME WATER WATER WATER - 1 4750000
283207 2022-Aug-07 05:38:32 5qupe.wam WHEAT WHEAT WIND WINDMIL - 1 2740000
283206 2022-Aug-07 05:35:34 5qupe.wam STONE TREE WIND WINDMIL - 1 1990000
283205 2022-Aug-07 05:33:41 5qupe.wam RIVER STONE TREE WINDMIL - 1 2890000
283203 2022-Aug-07 04:36:02 5qupe.wam FROST SPACE STONE SULFUR - 1 9070000
283202 2022-Aug-07 04:32:23 5qupe.wam ICE SPACE STONE SULFUR - 1 9100000
283201 2022-Aug-07 04:23:58 5qupe.wam TREE TREE WIND WINDMIL - 1 2680000
283200 2022-Aug-07 04:16:32 5qupe.wam HEAT SPACE STONE SUN - 1 7990000
283199 2022-Aug-07 04:07:16 5qupe.wam GRPHITE SPACE STONE SULFUR - 1 9010000
283198 2022-Aug-07 03:56:16 ijar.wam DUST SPACE STONE SULFUR - 1 8710000
283197 2022-Aug-07 03:56:14 5qupe.wam FROST FROST SPACE STONE - 1 8140000
283196 2022-Aug-07 03:55:57 5qupe.wam ICE ICE SPACE STONE - 1 8200000
283195 2022-Aug-07 03:55:35 ijar.wam SKY SPACE STONE SULFUR - 1 9250000
283194 2022-Aug-07 03:55:34 5qupe.wam EXPLOSN FROST SPACE STONE - 1 8050000
283193 2022-Aug-07 03:55:05 5qupe.wam EARTH FROST SPACE STONE - 1 7750000
283192 2022-Aug-07 03:54:40 ijar.wam HEAT SPACE STONE SULFUR - 1 8710000
283191 2022-Aug-07 03:53:38 ijar.wam EXPLOSN SPACE STONE SULFUR - 1 8980000
283190 2022-Aug-07 03:53:08 ijar.wam EARTH SPACE STONE SULFUR - 1 8680000
283189 2022-Aug-07 03:49:57 5qupe.wam EXPLOSN ICE SPACE STONE - 1 8080000
283188 2022-Aug-07 03:47:11 5qupe.wam ATMSPHE SPACE STONE SULFUR - 1 8800000
283187 2022-Aug-07 03:43:17 ijar.wam SPACE STONE SULFUR WATER - 1 8680000
283186 2022-Aug-07 00:51:58 ftcri.wam AIR ATMSPHE SPACE STONE - 1 7480000
283185 2022-Aug-07 00:21:15 s113g.c.wam DUST FIRE LIFE PRESS - 1 370000
283184 2022-Aug-07 00:10:56 beefstick123 METAL RADITON SPACE STONE - 1 10450000
283183 2022-Aug-07 00:09:10 beefstick123 EARTH RADITON SPACE STONE - 1 9790000
283182 2022-Aug-07 00:02:51 5qupe.wam EARTHQ EXPLOSN SPACE STONE - 1 7750000
283181 2022-Aug-06 23:57:59 1puqy.wam EARTH PLANET SPACE STONE - 1 13150000
283180 2022-Aug-06 23:54:40 5qupe.wam GAS HEAT SPACE STONE - 1 8290000
283179 2022-Aug-06 23:50:34 1puqy.wam ATMSPHE COMET SPACE STONE - 1 16150000
283178 2022-Aug-06 23:47:29 5qupe.wam EARTH LIFE SPACE STONE - 1 7630000
283177 2022-Aug-06 23:42:22 beefstick123 ELECTRC METAL SPACE STONE - 1 9430000
283176 2022-Aug-06 23:39:58 gpfay.wam HEAT SPACE STEEL STONE - 1 8350000
283175 2022-Aug-06 23:39:21 beefstick123 ATMSPHE LENS SPACE STONE - 1 8500000
283173 2022-Aug-06 23:33:18 beefstick123 HORIZON METAL SPACE STONE - 1 9550000
283172 2022-Aug-06 23:32:16 beefstick123 HEAT HORIZON SPACE STONE - 1 8920000
283171 2022-Aug-06 23:30:31 beefstick123 ATMSPHE HORIZON SPACE STONE - 1 9010000
283170 2022-Aug-06 23:30:03 beefstick123 EARTH HORIZON SPACE STONE - 1 8890000
283169 2022-Aug-06 23:20:26 4pdqw.wam DESERT HEAT SPACE STONE - 1 9940000
283168 2022-Aug-06 23:18:39 4pdqw.wam DESERT FIRE SPACE STONE - 1 9910000
283167 2022-Aug-06 23:16:39 4pdqw.wam DESERT ENERGY SPACE STONE - 1 9940000
283166 2022-Aug-06 23:14:44 4pdqw.wam DESERT PRESS SPACE STONE - 1 9940000
283165 2022-Aug-06 22:15:56 5qupe.wam EARTH PICKAX SPACE STONE - 1 9640000
283163 2022-Aug-06 22:03:34 5qupe.wam EARTH LAVA SPACE STONE - 1 7390000
283162 2022-Aug-06 22:03:14 5qupe.wam HEAT LAVA SPACE STONE - 1 7420000
283161 2022-Aug-06 22:00:03 5qupe.wam FIRE LAVA SPACE STONE - 1 7390000
283160 2022-Aug-06 21:10:28 hpirm.wam METAL RAIN SPACE STONE - 1 8050000
283158 2022-Aug-06 19:51:12 nbgro.wam HEAT PLASMA SPACE STONE - 1 8110000
283157 2022-Aug-06 19:49:59 nbgro.wam ATMSPHE PLASMA SPACE STONE - 1 8200000
283155 2022-Aug-06 19:18:32 4pdqw.wam HEAT SPACE STONE STONE - 1 7480000
283154 2022-Aug-06 19:09:56 ijar.wam EARTH GAS SPACE STONE - 1 8260000
283153 2022-Aug-06 19:09:22 ijar.wam FIRE SPACE STONE VACUUM - 1 8590000
283152 2022-Aug-06 19:08:57 ijar.wam EARTH SPACE STONE VACUUM - 1 8590000
283150 2022-Aug-06 19:06:51 ijar.wam EARTH ICE SPACE STONE - 1 7780000
283149 2022-Aug-06 19:00:49 beefstick123 ASH EARTH SPACE STONE - 1 7960000
283148 2022-Aug-06 18:53:44 beefstick123 EARTH SPACE STEEL STONE - 1 8320000
283147 2022-Aug-06 18:53:09 beefstick123 EARTH ELECTRC SPACE STONE - 1 8770000
283145 2022-Aug-06 18:36:11 beefstick123 EARTH SPACE STONE WAVE - 1 7750000
283144 2022-Aug-06 18:35:51 beefstick123 EARTH SOUND SPACE STONE - 1 8170000
283142 2022-Aug-06 18:28:10 beefstick123 EXPLOSN SPACE STONE TSUNAMI - 1 8710000
283141 2022-Aug-06 18:26:08 beefstick123 EARTHQ SPACE STONE TSUNAMI - 1 8500000
283140 2022-Aug-06 18:25:35 beefstick123 EARTH SPACE STONE TSUNAMI - 1 8410000
283139 2022-Aug-06 18:23:02 beefstick123 EARTHQ METAL SPACE STONE - 1 8110000
283138 2022-Aug-06 18:20:40 beefstick123 DUST EARTHQ SPACE STONE - 1 7480000
283137 2022-Aug-06 18:18:53 beefstick123 EARTH EARTHQ SPACE STONE - 1 7450000
283136 2022-Aug-06 18:18:10 5qupe.wam ATMSPHE SPACE STEAM STONE - 1 7510000
283135 2022-Aug-06 18:17:23 5qupe.wam HEAT SPACE STEAM STONE - 1 7420000
283134 2022-Aug-06 18:12:20 beefstick123 DUST EARTH SPACE STONE - 1 7390000
283133 2022-Aug-06 18:07:06 beefstick123 EARTH HEAT SPACE STONE - 1 7390000
283131 2022-Aug-06 18:02:41 5qupe.wam DUST HEAT SPACE STONE - 1 7420000
283130 2022-Aug-06 18:01:56 5qupe.wam ATMSPHE DUST SPACE STONE - 1 7510000
283129 2022-Aug-06 17:59:50 beefstick123 HEAT SKY SPACE STONE - 1 7960000
283128 2022-Aug-06 17:56:27 beefstick123 ENERGY EXPLOSN SPACE STONE - 1 7690000
283127 2022-Aug-06 17:51:21 ge3r2.wam ENERGY SPACE STONE SUN - 1 7990000
283124 2022-Aug-06 17:47:47 beefstick123 ATMSPHE FROST SPACE STONE - 1 7870000
283120 2022-Aug-06 17:37:22 ge3r2.wam METAL OBSIDIN SPACE STONE - 1 8140000
283119 2022-Aug-06 17:36:39 5qupe.wam GRPHITE METAL SPACE STONE - 1 8350000
283118 2022-Aug-06 17:32:56 nbgro.wam ATMSPHE EARTHQ SPACE STONE - 1 7570000
283117 2022-Aug-06 17:28:26 yjdqu.wam COMET PRESS SPACE STONE - 1 16060000
283116 2022-Aug-06 17:26:40 jfequ.wam HEAT HEAT SPACE STONE - 1 7420000
283114 2022-Aug-06 17:17:59 nbgro.wam METAL SPACE STONE SULFUR - 2 9340000
283111 2022-Aug-06 17:07:11 jfequ.wam COMET COMET SPACE STONE - 1 24700000
283110 2022-Aug-06 17:04:57 ehrbq.wam FIRE SPACE STONE STONE - 1 7450000
283109 2022-Aug-06 17:03:58 5qupe.wam FROST METAL SPACE STONE - 1 8410000
283108 2022-Aug-06 17:03:15 tdfay.wam AIR EARTH SPACE STONE - 2 7360000
283107 2022-Aug-06 17:02:32 ijar.wam EARTH ENERGY SPACE STONE - 1 7390000
283106 2022-Aug-06 17:01:46 gpfay.wam CLAY METAL SPACE STONE - 1 8650000
283105 2022-Aug-06 17:01:29 ijar.wam EARTH PRESS SPACE STONE - 1 7390000
283104 2022-Aug-06 17:01:25 tdfay.wam ATMSPHE ATMSPHE SPACE STONE - 1 7600000
283103 2022-Aug-06 16:58:29 gpfay.wam BACTERI METAL SPACE STONE - 1 8590000
283101 2022-Aug-06 16:57:14 ijar.wam AIR FIRE SPACE STONE - 1 7360000
283100 2022-Aug-06 16:55:52 gpfay.wam LIFE METAL SPACE STONE - 1 8290000
283099 2022-Aug-06 16:55:11 iybcc.wam GAS PRESS SPACE STONE - 1 8290000
283096 2022-Aug-06 16:52:32 ehrbq.wam FIRE SPACE STONE SULFUR - 1 8680000
283093 2022-Aug-06 16:44:40 nbgro.wam EARTH SPACE STONE SUN - 1 7960000
283092 2022-Aug-06 16:43:46 ehrbq.wam EXPLOSN EXPLOSN SPACE STONE - 1 7960000
283091 2022-Aug-06 16:42:08 nbgro.wam EARTH SKY SPACE STONE - 2 7930000
283090 2022-Aug-06 16:41:26 ehrbq.wam FIRE FIRE SPACE STONE - 2 7360000
283089 2022-Aug-06 16:37:15 nanibahaniwx HEAT METAL SPACE STONE - 2 8050000
283087 2022-Aug-06 16:34:45 dz2aw.wam FIRE SMOKE SPACE STONE - 1 7690000
283086 2022-Aug-06 16:34:35 nbgro.wam FIRE SPACE STONE SUN - 1 7960000
283085 2022-Aug-06 16:32:16 ehrbq.wam FIRE GAS SPACE STONE - 3 8260000
283084 2022-Aug-06 16:30:27 eowb.wam ATMSPHE RADITON SPACE STONE - 1 9910000
283083 2022-Aug-06 16:25:26 hh2qw.wam ENERGY PRESS SPACE STONE - 1 7420000
283082 2022-Aug-06 16:24:27 ehrbq.wam EXPLOSN HORIZON SPACE STONE - 1 9190000
283081 2022-Aug-06 16:21:15 vampireofwax METAL SPACE STONE STONE - 1 8110000
283080 2022-Aug-06 16:20:38 ijar.wam FIREWRK SKY SPACE STONE - 1 9760000
283078 2022-Aug-06 16:19:11 ijar.wam RAIN SKY SPACE STONE - 1 7960000
283076 2022-Aug-06 16:18:57 ehrbq.wam FIRE HORIZON SPACE STONE - 1 8890000
283075 2022-Aug-06 16:17:26 gpfay.wam LAVA METAL SPACE STONE - 1 8050000
283074 2022-Aug-06 16:17:02 5qupe.wam EARTH SPACE STONE STONE - 1 7450000
283072 2022-Aug-06 16:14:14 5qupe.wam ATMSPHE LAVA SPACE STONE - 1 7510000
283071 2022-Aug-06 16:13:32 e.lbi.wam METAL METAL SPACE STONE - 3 8680000
283070 2022-Aug-06 16:13:28 vampireofwax DUST METAL SPACE STONE - 1 8050000
283068 2022-Aug-06 16:12:57 4nkr.wam ENERGY SKY SPACE STONE - 1 7960000
283067 2022-Aug-06 16:12:32 jh5aw.wam ATMSPHE FIREWRK SPACE STONE - 2 9310000
283066 2022-Aug-06 16:10:32 4nkr.wam SKY SPACE STONE SUN - 1 8530000
283065 2022-Aug-06 16:09:45 5qupe.wam METAL SKY SPACE STONE - 2 8590000
283063 2022-Aug-06 16:08:14 ehrbq.wam METAL SPACE STONE VACUUM - 1 9250000
283061 2022-Aug-06 16:05:43 ijar.wam EARTH FIREWRK SPACE STONE - 1 9190000
283060 2022-Aug-06 16:05:38 4nkr.wam PRESS SPACE STONE SUN - 1 7990000
283059 2022-Aug-06 16:04:39 ijar.wam EARTH RAIN SPACE STONE - 1 7390000
283057 2022-Aug-06 16:04:13 4nkr.wam ATMSPHE PRESS SPACE STONE - 1 7510000
283055 2022-Aug-06 16:00:33 ijar.wam FIRE PLASMA SPACE STONE - 1 8080000
283051 2022-Aug-06 15:58:10 ehrbq.wam ENERGY HEAT SPACE STONE - 1 7420000
283050 2022-Aug-06 15:57:51 vampireofwax ENERGY METAL SPACE STONE - 1 8050000
283049 2022-Aug-06 15:56:40 ijar.wam FIRE RAIN SPACE STONE - 1 7390000
283048 2022-Aug-06 15:56:22 gpfay.wam FIRE METAL SPACE STONE - 4 8020000
283047 2022-Aug-06 15:56:13 4nkr.wam ATMSPHE SPACE STONE SUN - 1 8080000
283045 2022-Aug-06 15:55:45 ehrbq.wam ENERGY FIRE SPACE STONE - 2 7390000
283044 2022-Aug-06 15:55:20 5qupe.wam EXPLOSN FIRE SPACE STONE - 1 7660000
283043 2022-Aug-06 15:54:53 ijar.wam FIRE PRESS SPACE STONE - 1 7390000
283042 2022-Aug-06 15:53:54 ehrbq.wam DUST FIRE SPACE STONE - 1 7390000
283041 2022-Aug-06 15:53:32 gpfay.wam FIRE SPACE STEEL STONE - 1 8320000
283039 2022-Aug-06 15:51:16 ijar.wam FIRE HEAT SPACE STONE - 1 7390000
283035 2022-Aug-06 15:46:35 ijar.wam EXPLOSN SKY SPACE STONE - 2 8230000
283034 2022-Aug-06 15:45:52 dp4b2.wam HEAT PRESS SPACE STONE - 2 7420000
283032 2022-Aug-06 15:43:58 vampireofwax EXPLOSN METAL SPACE STONE - 1 8320000
283031 2022-Aug-06 15:43:02 gpfay.wam METAL SPACE STEEL STONE - 1 8980000
283029 2022-Aug-06 15:40:33 gpfay.wam ATMSPHE SPACE STEEL STONE - 1 8440000
283028 2022-Aug-06 15:40:33 ijar.wam EARTH EXPLOSN SPACE STONE - 1 7660000
283027 2022-Aug-06 15:39:41 5qupe.wam ATMSPHE EXPLOSN SPACE STONE - 3 7780000
283026 2022-Aug-06 15:39:13 vampireofwax METAL PRESS SPACE STONE - 1 8050000
283024 2022-Aug-06 15:38:10 ijar.wam EARTH FIRE SPACE STONE - 1 7360000
283019 2022-Aug-06 15:31:41 5qupe.wam ATMSPHE HEAT SPACE STONE - 2 7510000
283017 2022-Aug-06 12:33:44 1q.ay.wam KNIFE PAINT RESIN TREE - 1 9820000
283016 2022-Aug-06 12:18:26 1q.ay.wam KNIFE RESIN TREE TREE - 1 7810000
283015 2022-Aug-06 08:32:38 dvmay.wam COAL ENGINE GASOLIN RESIN - 1 23380000
283013 2022-Aug-06 00:33:15 ijar.wam RESIN SOUND SOUND STEEL - 1 5020000
283012 2022-Aug-06 00:31:50 ijar.wam MUSIC RESIN STEEL STEEL - 1 17110000
283011 2022-Aug-06 00:31:20 ijar.wam MUSIC RESIN SOUND STEEL - 1 16960000
283010 2022-Aug-06 00:07:21 5qupe.wam ATMSPHE COMET PLANET SPACE - 1 21850000
283008 2022-Aug-05 23:44:44 nbgro.wam RESIN SOUND STEEL STEEL - 1 5170000
283007 2022-Aug-05 23:40:21 nbgro.wam HAMMER RESIN SOUND STEEL - 1 7120000
283006 2022-Aug-05 23:33:57 ijar.wam COAL CRUDE FIRE GASOLIN RESIN 1 2410000
283005 2022-Aug-05 23:33:14 ijar.wam COAL FIRE GAS GASOLIN - 1 2320000
283004 2022-Aug-05 23:26:15 ijar.wam COAL GASOLIN OXYGEN PRESS - 1 4210000
283003 2022-Aug-05 23:26:11 gpfay.wam COAL GASOLIN PEAT WATER - 1 2680000
283001 2022-Aug-05 23:23:08 ijar.wam AMBER CELL PETRID SYRINGE - 1 21580000
283000 2022-Aug-05 23:22:27 gpfay.wam BUBBLES COAL GASOLIN SULFUR - 1 3700000
282999 2022-Aug-05 23:22:08 gihbk.wam COAL FIRE GASOLIN OXYGEN - 2 4180000
282998 2022-Aug-05 23:22:02 ijar.wam AMBER LIFE PETRID SYRINGE - 1 16090000
282997 2022-Aug-05 23:20:02 ehrbq.wam COAL GASOLIN HEAT PLANT - 1 1600000
282996 2022-Aug-05 23:19:16 5qupe.wam BOILER COAL CRUDE GASOLIN - 1 3160000
282995 2022-Aug-05 23:19:16 gpfay.wam COAL GASOLIN OXYGEN WATER - 1 4180000
282994 2022-Aug-05 23:14:03 mxxb4.wam ALCOHOL COAL GASOLIN SULFUR - 1 2920000
282993 2022-Aug-05 23:12:10 ehrbq.wam ALCOHOL COAL GASOLIN HEAT - 1 1630000
282992 2022-Aug-05 23:11:21 eskr2.wam COAL GASOLIN HEAT PEAT - 1 2710000
282991 2022-Aug-05 23:09:51 5qupe.wam BOILER COAL GASOLIN OXYGEN - 1 4930000
282990 2022-Aug-05 23:09:21 eskr2.wam COAL GASOLIN PEAT TREE - 1 3460000
282989 2022-Aug-05 23:09:15 5qupe.wam BOILER COAL GASOLIN SULFUR - 1 3490000
282988 2022-Aug-05 23:07:15 nbgro.wam BOILER COAL GASOLIN WATER - 1 2170000
282987 2022-Aug-05 23:04:50 5qupe.wam COAL GASOLIN OXYGEN TREE - 1 4960000
282986 2022-Aug-05 23:03:47 nbgro.wam COAL GASOLIN PLASTIC WATER - 1 3400000
282985 2022-Aug-05 23:02:27 beefstick123 COAL GASOLIN PLASTIC SULFUR - 1 4720000
282984 2022-Aug-05 22:54:13 ijar.wam BOILER COAL GASOLIN TREE - 1 2950000
282983 2022-Aug-05 22:53:46 ijar.wam BOILER COAL GASOLIN PLANT - 1 2320000
282982 2022-Aug-05 22:46:57 5wme4.wam BLADE COAL GASOLIN PLANT - 1 2680000
282981 2022-Aug-05 22:46:40 kingofcrypto COAL GASOLIN OXYGEN SULFUR - 1 5500000
282980 2022-Aug-05 22:44:32 5wme4.wam COAL GASOLIN PLANT PLASTIC - 1 3550000
282979 2022-Aug-05 22:41:16 nanibahaniwx BLCKCHN BLOCK BLOCK BLOCK - 1 5590000
282977 2022-Aug-05 22:37:20 ijar.wam COAL GAS GASOLIN VACUUM - 1 3550000
282976 2022-Aug-05 22:36:49 ijar.wam COAL CRUDE GASOLIN VACUUM - 1 3640000
282975 2022-Aug-05 22:36:27 5wme4.wam BLADE COAL GASOLIN TREE - 1 3310000
282974 2022-Aug-05 22:34:59 nanibahaniwx BLOCK BLOCK BLOCK BLOCK - 1 3040000
282973 2022-Aug-05 22:34:09 zmhb.wam COAL CRUDE GASOLIN PLANT - 1 2560000
282971 2022-Aug-05 22:29:50 beefstick123 COAL GASOLIN PLANT PRESS - 1 1600000
282968 2022-Aug-05 22:24:29 beefstick123 COAL GASOLIN PLANT SULFUR - 2 2890000
282967 2022-Aug-05 22:23:20 dp4b2.wam COAL GAS GASOLIN SULFUR - 1 3640000
282966 2022-Aug-05 22:23:05 5qupe.wam COAL CRUDE CRUDE GASOLIN - 1 3400000
282964 2022-Aug-05 22:21:45 5qupe.wam COAL CRUDE GASOLIN SULFUR - 1 3730000
282963 2022-Aug-05 22:21:38 ehrbq.wam BOILER COAL GASOLIN STEAM - 1 2200000
282962 2022-Aug-05 22:20:44 ijar.wam BOILER COAL GASOLIN PLASTIC - 1 4150000
282960 2022-Aug-05 22:18:51 ijar.wam BOILER COAL GASOLIN HEAT - 2 2200000
282959 2022-Aug-05 22:16:34 ehrbq.wam BOILER COAL FIRE GASOLIN - 1 2170000
282958 2022-Aug-05 22:16:21 zmhb.wam COAL GASOLIN TREE WATER - 1 2200000
282957 2022-Aug-05 22:15:58 mxxb4.wam COAL GASOLIN SULFUR SULFUR - 1 4060000
282956 2022-Aug-05 22:13:29 mxxb4.wam COAL GASOLIN SULFUR WATER - 1 2740000
282955 2022-Aug-05 22:12:14 ijar.wam ALUMINM COAL GASOLIN HEAT - 1 3520000
282954 2022-Aug-05 22:10:05 dp4b2.wam COAL GAS GASOLIN STEAM - 1 2350000
282953 2022-Aug-05 22:09:51 ijar.wam BOILER COAL GASOLIN PRESS - 1 2200000
282952 2022-Aug-05 22:09:46 wz.b.wam AMBER PETRID SCIENCE SYRINGE - 1 50710000
282951 2022-Aug-05 22:09:28 zmhb.wam COAL GASOLIN PLANT SUN - 1 2170000
282950 2022-Aug-05 22:07:21 ehrbq.wam AMBER COAL GASOLIN LIMSTON - 1 15250000
282948 2022-Aug-05 22:05:50 ijar.wam COAL GASOLIN HEAT VACUUM - 1 2680000
282947 2022-Aug-05 22:05:02 vampireofwax COAL GAS GASOLIN HEAT - 2 2350000
282946 2022-Aug-05 22:04:45 ifaay.wam COAL GAS GASOLIN PRESS - 1 2350000
282945 2022-Aug-05 22:03:46 mxxb4.wam COAL GASOLIN TREE TREE - 1 2980000
282944 2022-Aug-05 22:02:50 ehrbq.wam AMBER COAL GASOLIN PRESS - 1 10510000
282943 2022-Aug-05 22:02:50 ijar.wam COAL GASOLIN HEAT OXYGEN - 1 4210000
282942 2022-Aug-05 22:02:44 5qupe.wam COAL CRUDE GASOLIN TREE - 1 3190000
282940 2022-Aug-05 22:00:14 ehrbq.wam AMBER COAL CRUDE GASOLIN - 1 11470000
282939 2022-Aug-05 21:59:38 5qupe.wam COAL GASOLIN PLASTIC PRESS - 2 3430000
282938 2022-Aug-05 21:59:08 5qupe.wam COAL GASOLIN PRESS TREE - 1 2230000
282937 2022-Aug-05 21:59:08 dp4b2.wam COAL CRUDE GASOLIN PRESS - 2 2440000
282936 2022-Aug-05 21:58:45 5qupe.wam COAL GASOLIN PLANT TREE - 2 2350000
282932 2022-Aug-05 21:54:50 5qupe.wam COAL CRUDE GASOLIN PLASTIC - 1 4390000
282931 2022-Aug-05 21:53:16 ehrbq.wam AMBER COAL GASOLIN PLASTIC - 1 12460000
282930 2022-Aug-05 21:53:16 ijar.wam COAL CRUDE GAS GASOLIN - 1 3310000
282929 2022-Aug-05 21:51:38 ijar.wam COAL CRUDE GASOLIN HEAT - 4 2440000
282928 2022-Aug-05 21:50:33 ehrbq.wam AMBER BOILER COAL GASOLIN - 1 11230000
282927 2022-Aug-05 21:49:46 5qupe.wam COAL GASOLIN SULFUR TREE - 1 3520000
282924 2022-Aug-05 21:48:57 5qupe.wam COAL FIRE GASOLIN SULFUR - 1 2740000
282923 2022-Aug-05 21:48:27 5qupe.wam COAL GASOLIN HEAT SULFUR - 2 2770000
282921 2022-Aug-05 21:47:39 nx5di.wam AMBER AMBER COAL GASOLIN - 2 19540000
282919 2022-Aug-05 21:45:57 ijar.wam COAL FIRE GASOLIN PLANT - 1 1570000
282918 2022-Aug-05 21:43:28 5qupe.wam COAL FIRE GASOLIN PLASTIC - 2 3400000
282917 2022-Aug-05 21:41:51 5qupe.wam COAL GASOLIN PLASTIC TREE - 1 4180000
282916 2022-Aug-05 21:33:45 ijar.wam AMBER COAL GASOLIN OXYGEN - 1 13240000
282914 2022-Aug-05 21:31:34 ijar.wam AMBER COAL GASOLIN PLANT - 1 10630000
282913 2022-Aug-05 21:30:45 ijar.wam COAL GASOLIN HEAT TREE - 2 2230000
282912 2022-Aug-05 21:29:27 ijar.wam COAL FIRE GASOLIN TREE - 1 2200000
282911 2022-Aug-05 21:29:08 5qupe.wam COAL GASOLIN HEAT PLASTIC - 2 3430000
282910 2022-Aug-05 21:28:14 ijar.wam AMBER COAL GASOLIN TREE - 1 11260000
282909 2022-Aug-05 21:27:02 ijar.wam AMBER COAL ENERGY GASOLIN - 1 10510000
282908 2022-Aug-05 21:25:08 ijar.wam AMBER COAL GASOLIN HEAT - 2 10510000
282907 2022-Aug-05 21:24:21 ijar.wam AMBER COAL FIRE GASOLIN - 2 10480000
282906 2022-Aug-05 21:09:53 zmhb.wam AMBER BONE LIFE TIME - 1 30760000
282905 2022-Aug-05 19:33:35 s113g.c.wam FIRE LIFE TREE TREE - 1 1870000
282901 2022-Aug-05 17:08:11 tpjb4.wam BONE COMET DEATH PLANET - 1 38350000
282900 2022-Aug-05 14:46:58 p1cqw.wam AMBER BONE ICE SYRINGE - 1 30880000
282897 2022-Aug-05 00:26:11 5qupe.wam BUBBLES MNTAIN WATER WATER - 1 1630000
282895 2022-Aug-05 00:07:10 5qupe.wam LIFE PLANT SUN TREE - 1 1840000
282894 2022-Aug-04 22:59:14 42irish42nft METAL SPACE STONE SUN - 1 8620000
282893 2022-Aug-04 16:49:04 wo5qq.wam BATTERY HEAT OIL SMOKE - 1 8680000
282892 2022-Aug-04 15:39:41 bovbc.wam ENERGY ENERGY SEED WATER - 1 1300000
282891 2022-Aug-04 15:34:38 nbgro.wam AMBER LIFE SCIENCE SYRINGE - 1 48940000
282890 2022-Aug-04 15:25:59 bovbc.wam RAIN SEED SHIT SUN - 1 7270000
282889 2022-Aug-04 15:11:58 dyqqy.wam HAMMER MUSIC TNPLT TNPLT - 1 17260000
282888 2022-Aug-04 15:10:44 c4dqw.wam AIR FLOOD PRESS SEA - 1 250000
282887 2022-Aug-04 14:54:50 ijar.wam AMBER CELL SCIENCE SYRINGE - 1 54430000
282886 2022-Aug-04 14:19:31 nx5di.wam ATMSPHE COMET HEAT SPACE - 1 16090000
282885 2022-Aug-04 14:15:17 ngdqw.wam AMBER CELL LIFE SYRINGE - 1 19810000
282884 2022-Aug-04 14:13:20 ngdqw.wam AMBER BONE CELL SYRINGE - 1 36220000
282883 2022-Aug-04 13:28:22 4nkr.wam OXYGEN TIME TREE TREE AMBER 1 9070000
282882 2022-Aug-04 12:13:21 dp4b2.wam COMET COMET COMET COMET - 1 34720000
282879 2022-Aug-04 01:32:51 i.lr2.wam EARTH FIRE HEAT HEAT - 1 100000
282875 2022-Aug-04 01:22:44 i.lr2.wam FLOOD GUNPWDR HEAT STEAM - 1 370000
282874 2022-Aug-04 01:22:14 i.lr2.wam EARTHQ FLOOD MUD SEA - 1 340000
282872 2022-Aug-04 01:21:27 i.lr2.wam EARTH FIRE FLOOD SEA - 1 220000
282869 2022-Aug-03 23:55:40 2bfiy.wam EARTH GARBAGE LAVA WATER - 1 100000
282868 2022-Aug-03 23:49:03 ifaay.wam ENERGY HILL RIVER WATER - 1 2500000
282864 2022-Aug-03 23:07:29 i.lr2.wam AIR FIRE HEAT SEA - 1 100000
282862 2022-Aug-03 22:21:26 5qupe.wam ATMSPHE ATMSPHE COMET COMET - 1 17620000
282858 2022-Aug-03 20:46:44 5qupe.wam ATMSPHE COMET COMET PLANET - 1 23290000
282855 2022-Aug-03 20:34:29 nbgro.wam EARTH ELECTRC EXPLOSN SKY - 1 2320000
282854 2022-Aug-03 20:23:20 nbgro.wam BONE IQ KNIFE TREE - 1 37000000
282853 2022-Aug-03 20:01:21 nbgro.wam AIR CLOUD ELECTRC EXPLOSN - 1 2050000
282852 2022-Aug-03 19:53:36 nbgro.wam ATMSPHE EARTH ELECTRC ELECTRC - 1 2980000
282851 2022-Aug-03 19:48:11 nbgro.wam ATMSPHE COMET EARTH STONE - 1 8920000
282850 2022-Aug-03 19:33:29 oywb2.wam AIR ELECTRC RAIN SOUND - 1 2290000
282849 2022-Aug-03 19:28:45 oywb2.wam ELECTRC SKY SOUND STORM - 1 3550000
282848 2022-Aug-03 19:24:46 oywb2.wam CLOUD ELECTRC SOUND STORM - 1 3280000
282847 2022-Aug-03 19:01:51 oywb2.wam ATMSPHE COMET HEAT SKY - 1 9430000
282846 2022-Aug-03 18:47:38 oywb2.wam ATMSPHE COMET HEAT PLASMA - 1 9580000
282845 2022-Aug-03 16:52:10 ehrbq.wam ATMSPHE COMET METAL STONE - 1 9580000
282844 2022-Aug-03 16:39:17 gpfay.wam ELECTRC ELECTRC ELECTRC EXPLOSN - 1 4570000
282843 2022-Aug-03 16:38:15 nbgro.wam CLAY FIRE HEAT LIFE - 1 970000
282841 2022-Aug-03 16:22:52 oywb2.wam ATMSPHE COMET PLANET PLASMA - 1 15340000
282839 2022-Aug-03 16:04:02 oywb2.wam ATMSPHE COMET HEAT HEAT - 1 8890000
282838 2022-Aug-03 16:02:35 oywb2.wam ATMSPHE COMET HEAT PLANET - 2 14650000
282837 2022-Aug-03 15:17:44 ehrbq.wam FROST ICE SPACE SUN COMET 1 8680000
282835 2022-Aug-03 14:23:15 4y5qy.wam WATER WATER WATER WAVE - 1 430000
282833 2022-Aug-02 19:50:34 oywb2.wam ICE SPACE SUN VACUUM - 1 9520000
282830 2022-Aug-02 05:33:31 33xuc.wam GARBAGE GARBAGE GARBAGE RAIN - 1 160000
282829 2022-Aug-01 12:56:03 rwysa.wam ATMSPHE DUST HEAT LAVA - 1 250000
282828 2022-Aug-01 12:55:46 rwysa.wam FIRE FIRE MUD PEAT - 1 1330000
282822 2022-Jul-30 21:17:44 oywb2.wam ICE SKY SPACE STONE - 1 8350000
282818 2022-Jul-30 08:02:34 oywb2.wam ICE SPACE STONE STONE - 1 7870000
282816 2022-Jul-30 00:39:50 hycec.wam AIR FIRE STONE WATER - 1 130000
282814 2022-Jul-29 18:36:58 nbgro.wam BATTERY HEAT TNPLT WATER - 1 4360000
282813 2022-Jul-29 18:31:46 nbgro.wam BATTERY STEAM TNPLT WATER - 1 4360000
282812 2022-Jul-29 17:52:52 nbgro.wam METAL PLANET SPACE STONE - 1 13810000
282811 2022-Jul-29 17:17:39 nbgro.wam ENERGY ICE SPACE SUN - 1 8320000
282804 2022-Jul-28 19:14:32 oywb2.wam HEAT PLANT SUN TREE - 1 1600000
282803 2022-Jul-28 19:11:59 oywb2.wam AIR HEAT PRESS TREE - 1 880000
282802 2022-Jul-28 14:28:38 oywb2.wam ICE STONE SUN WIND - 1 1270000
282801 2022-Jul-28 14:24:13 oywb2.wam DUST DUST ICE SUN - 1 1120000
282797 2022-Jul-28 12:12:57 3whay.wam ENERGY GARBAGE RAIN SEA - 1 160000
282792 2022-Jul-27 18:56:07 k4td2.wam AIR ENERGY FIRE LAVA - 1 100000
282788 2022-Jul-27 06:43:53 alfakappagrr ENERGY GARBAGE PRESS STEAM - 1 160000
282785 2022-Jul-24 09:06:47 1f4aw.wam BANANA GRASS PLASTIC SALAD - 1 9970000
282784 2022-Jul-24 09:05:49 1f4aw.wam APPLE CABBAGE CARROT GRASS - 1 3550000
282778 2022-Jul-22 00:31:59 1puqy.wam LINEN LINEN THREAD WIRE - 1 7120000
282777 2022-Jul-22 00:28:01 1puqy.wam LINEN THREAD THREAD WIRE - 1 8260000
282776 2022-Jul-22 00:24:57 1puqy.wam CABLE LINEN LINEN THREAD - 1 7450000
282775 2022-Jul-22 00:22:56 1puqy.wam CABLE LINEN THREAD THREAD - 1 8590000
282774 2022-Jul-22 00:19:43 1puqy.wam CHAIN LINEN THREAD THREAD - 1 6490000
282773 2022-Jul-22 00:19:03 1puqy.wam CHAIN LINEN LINEN THREAD - 1 5350000
282772 2022-Jul-22 00:16:56 1puqy.wam CHAIN LINEN LINEN LINEN - 1 4210000
282771 2022-Jul-22 00:09:21 1puqy.wam LINEN PLANT THREAD THREAD - 1 5620000
282770 2022-Jul-21 23:37:51 1puqy.wam HURRCAN THREAD THREAD THREAD - 1 7120000
282769 2022-Jul-21 23:29:32 1puqy.wam HEAT THREAD THREAD THREAD - 1 6640000
282768 2022-Jul-21 23:25:50 1puqy.wam CHAIN THREAD THREAD THREAD - 1 7630000
282764 2022-Jul-21 00:41:34 1puqy.wam CLAY CLAY HEAT KNIFE - 1 5140000
282763 2022-Jul-21 00:40:52 1puqy.wam CLAY CLAY CLAY KNIFE - 1 5740000
282759 2022-Jul-20 16:51:17 nbgro.wam EARTH LIFE MOSS TREE - 1 1360000
282755 2022-Jul-20 07:11:38 1puqy.wam CHAIN CHAIN METAL WLDMACH - 1 4900000
282754 2022-Jul-20 07:08:45 1puqy.wam CHAIN METAL METAL WLDMACH - 1 4540000
282753 2022-Jul-20 04:07:10 1puqy.wam LIFE PLANT SOUND TREE - 1 2050000
282752 2022-Jul-20 04:06:14 1puqy.wam LIFE OXYGEN PLANT TREE - 1 4000000
282751 2022-Jul-20 04:04:21 1puqy.wam DEW LIFE PLANT TREE - 1 1870000
282749 2022-Jul-20 02:40:38 1puqy.wam LIFE PLANT RIVER TREE - 1 2260000
282748 2022-Jul-20 02:39:45 1puqy.wam AIR LIFE PLANT TREE - 1 1240000
282747 2022-Jul-20 02:02:32 1puqy.wam HILL TREE TREE TREE - 1 3790000
282745 2022-Jul-19 19:24:38 1u.rw.wam ENERGY PRESS PRESS RAIN - 1 160000
282744 2022-Jul-19 18:20:55 nbgro.wam ICE PLASMA SPACE SUN - 1 9010000
282742 2022-Jul-19 11:57:38 1puqy.wam SOUND TREE TREE TREE - 1 3190000
282738 2022-Jul-19 04:04:39 1puqy.wam CABLE THREAD THREAD THREAD - 1 9730000
282736 2022-Jul-19 03:36:31 1puqy.wam ATMSPHE ELECTRC ELECTRC ELECTRC - 1 4390000
282735 2022-Jul-19 02:06:27 1puqy.wam ENERGY ENERGY SKY STORM - 1 1390000
282734 2022-Jul-19 02:03:41 1puqy.wam ELECTRC ENERGY ENERGY SKY - 1 2080000
282733 2022-Jul-19 01:57:02 1puqy.wam CABBAGE CARROT PLANT SHIT - 1 5980000
282732 2022-Jul-19 01:54:56 1puqy.wam CABBAGE CARROT EARTH SHIT - 1 5830000
282726 2022-Jul-17 18:29:41 2q2ho.wam AIR ATMSPHE FIRE STONE - 1 250000
282723 2022-Jul-15 04:20:40 pra...c.wam HURRCAN PRESS RAIN WIND - 1 730000
282717 2022-Jul-12 19:44:01 nbgro.wam BUILDNG ENERGY PRESS WINDMIL - 1 9580000
282715 2022-Jul-11 21:54:02 nbgro.wam CLAY FIRE PAINT PRESS - 2 3490000
282714 2022-Jul-11 21:42:58 nbgro.wam AIR CLAY FIRE FIRE - 1 670000
282710 2022-Jul-09 06:25:27 f5fjk.wam LAVA LAVA PRESS RAIN - 1 160000
282709 2022-Jul-08 23:07:51 nbgro.wam AIR CLAY MUD PRESS - 1 730000
282707 2022-Jul-08 23:01:42 nbgro.wam CLAY HEAT MUD MUD - 1 760000
282706 2022-Jul-08 20:10:29 nbgro.wam AIR CLAY FIRE HEAT - 1 700000
282705 2022-Jul-08 16:54:56 l4tk..c.wam COAL FIRE FIRE STEAM - 1 340000
282701 2022-Jul-07 09:50:38 melomasterst EARTH EARTH STEAM STONE - 1 160000
282697 2022-Jul-05 17:56:51 nbgro.wam LIFE SOUND STEEL STEEL - 1 3040000
282692 2022-Jul-05 09:29:09 rzdrs.wam CABLE FLSHLGH HILL PRISM - 1 17500000
282691 2022-Jul-05 00:55:01 uyumdekoyum1 FIRE LAVA PRESS WATER - 1 100000
282676 2022-Jul-04 10:07:46 1puqy.wam ENERGY HEAT LIMSTON WATER - 1 4870000
282674 2022-Jul-04 09:55:59 1puqy.wam EARTH HEAT PLANT SHIT - 1 5620000
282670 2022-Jul-03 19:55:43 sangoten4444 AIR EXPLOSN FIRE FIRE - 1 340000
282661 2022-Jul-01 18:12:08 macchione111 ENERGY FIRE LAVA LAVA - 1 130000
282659 2022-Jul-01 18:05:31 macchione111 ATMSPHE EARTH RUST WATER - 1 850000
282656 2022-Jul-01 14:41:19 macchione111 ENERGY GARBAGE STEAM WATER - 1 130000
282655 2022-Jun-30 23:21:44 gabrielrich5 ATMSPHE EARTH GARBAGE WIND - 1 310000
282653 2022-Jun-30 22:26:37 nnzmk.c.wam ATMSPHE BRICK EARTH PRESS - 1 280000
282652 2022-Jun-30 15:40:57 sixsixsixsic DUST GARBAGE GARBAGE WATER - 1 130000
282648 2022-Jun-30 05:32:59 1puqy.wam BACTERI HEAT PLANT SHIT - 1 6190000
282647 2022-Jun-30 05:20:55 1puqy.wam ELECTRC ENERGY SKY SOUND - 2 2860000
282646 2022-Jun-29 23:39:16 nnzmk.c.wam BRICK EARTH FIRE WATER - 1 130000
282645 2022-Jun-29 23:38:47 nnzmk.c.wam BRICK EARTH ENERGY MUD - 1 190000
282642 2022-Jun-28 17:18:23 jooam.waa BOILER HAMMER HEAT STEEL - 1 4690000
282639 2022-Jun-27 12:41:55 12reddogg123 DUST ENERGY RAIN SEA - 1 160000
282637 2022-Jun-26 18:23:09 nh5xe.wam GOLEM ICE VIRUS WATER - 1 2830000
282632 2022-Jun-25 19:58:45 nnzmk.c.wam AIR ATMSPHE ENERGY RAIN - 1 220000
282626 2022-Jun-22 18:11:07 nbgro.wam MNTAIN PLANT TREE TREE - 1 2380000
282625 2022-Jun-22 15:59:08 pdusq.wam HILL RAIN RIVER WATER - 1 2500000
282624 2022-Jun-22 15:54:40 pdusq.wam FOG HILL RIVER STONE - 1 2920000
282623 2022-Jun-22 15:02:59 pdusq.wam FOG HILL RAIN RIVER - 1 2860000
282622 2022-Jun-22 04:31:15 phbb4.wam LIFE PLANT STEAM WATER - 1 490000
282621 2022-Jun-21 22:47:43 nbgro.wam BUILDNG FLOUR PRESS WINDMIL - 1 12040000
282617 2022-Jun-21 19:21:30 nbgro.wam LIFE SEED SUN TIME - 1 6820000
282607 2022-Jun-20 09:01:22 ny2u4.wam ATMSPHE ENERGY PRESS WATER - 1 220000
282601 2022-Jun-19 15:35:31 yjdqu.wam ENERGY LINEN LINEN LINEN - 1 3220000
282600 2022-Jun-19 12:20:55 dynastycrypt ATMSPHE EXPLOSN FLOOD SEA - 1 640000
282596 2022-Jun-18 13:28:58 nnzmk.c.wam EARTH MNTAIN PRESS WATER - 1 700000
282593 2022-Jun-16 17:43:08 nbgro.wam SHELL SOUND STEEL STEEL - 1 9130000
282592 2022-Jun-16 17:23:28 nbgro.wam DRUM HAMMER METAL SOUND - 1 8800000
282591 2022-Jun-16 17:13:07 nbgro.wam HAMMER HEAT METAL SOUND - 1 4450000
282590 2022-Jun-16 17:08:15 nbgro.wam HEAT METAL PRESS SOUND - 1 1570000
282586 2022-Jun-15 19:10:07 nbgro.wam HEAT PRESS SOUND STEEL - 1 1870000
282584 2022-Jun-14 20:13:34 dyqqy.wam DRUM PRESS SOUND TNPLT - 1 6040000
282578 2022-Jun-13 21:54:11 nbgro.wam CLOUD ELECTRC ENERGY EXPLOSN - 1 2080000
282574 2022-Jun-13 08:08:02 wazzu2323232 AIR EARTH MUD SUN - 1 670000
282573 2022-Jun-13 03:38:13 aijwe.wam EXPLOSN FIRE FIRE LAVA - 1 370000
282572 2022-Jun-13 03:36:08 aijwe.wam AIR EARTHQ MUD SEA - 2 190000
282569 2022-Jun-12 22:28:43 dynjarren233 FLOOD GARBAGE PLANT WIND - 1 490000
282566 2022-Jun-12 13:45:01 greedoossftw ENERGY ENERGY FLOOD OCEAN - 1 400000
282565 2022-Jun-12 13:43:05 greedoossftw ATMSPHE ENERGY ENERGY ENERGY - 1 250000
282555 2022-Jun-11 19:11:39 yjdqu.wam RAIN RIVER STONE STONE - 1 1270000
282554 2022-Jun-11 19:02:37 yjdqu.wam RAIN RAIN RIVER WALL - 1 1450000
282552 2022-Jun-11 18:56:13 yjdqu.wam FLOOD MNTAIN RAIN RIVER - 1 1870000
282540 2022-Jun-07 15:54:51 4ksbc.wam EARTH ENERGY ENERGY LAVA - 1 130000
282539 2022-Jun-06 18:01:52 nbgro.wam CLOUD ELECTRC LIGHT RAIN - 1 10840000
282538 2022-Jun-06 17:58:57 nbgro.wam AIR CLOUD ELECTRC SKY - 1 2320000
282528 2022-Jun-04 07:17:16 ijar.wam FIRE LIGHT SPACE STONE - 1 16420000
282527 2022-Jun-04 07:08:19 ijar.wam BONE CELL SCIENCE SYRINGE - 1 62050000
282524 2022-Jun-04 06:45:28 ijar.wam ELECTRC ELECTRC ELECTRC ENERGY - 1 4300000
282523 2022-Jun-04 06:39:19 ijar.wam ELECTRC ELECTRC ELECTRC LIGHT - 1 13330000
282522 2022-Jun-04 06:34:11 ijar.wam ELECTRC LIGHT SKY STORM - 1 11800000
282521 2022-Jun-04 06:33:31 ijar.wam CLOUD ELECTRC LIGHT STORM - 1 11530000
282520 2022-Jun-04 06:32:11 ijar.wam ELECTRC ENERGY LIGHT STORM - 1 11260000
282518 2022-Jun-03 07:39:59 zirwc.wam HEAT OCEAN STEAM WIND - 1 370000
282517 2022-Jun-03 07:39:13 zirwc.wam COAL HAMMER HEAT STONE - 1 3340000
282516 2022-Jun-03 07:38:20 zirwc.wam ALCOHOL ISLE PLANT SEA - 1 1060000
282515 2022-Jun-03 07:36:47 zirwc.wam ATMSPHE ENERGY EXPLOSN FLOOD - 1 640000
282514 2022-Jun-03 07:34:59 zirwc.wam LAVA PRESS RAIN SEA - 1 160000
282509 2022-Jun-02 01:01:24 dynjarren233 AIR PRESS STEAM WATER - 1 100000
282500 2022-May-30 11:03:54 o53r4.wam EARTH ENERGY FIRE RAIN - 1 100000
282499 2022-May-28 09:33:16 majbs.wam AIR ENERGY HURRCAN SEA - 1 610000
282486 2022-May-25 22:19:36 dyqqy.wam COAL PEAT TREE TREE - 1 3130000
282483 2022-May-25 17:49:29 rdlbs.wam EARTH RAIN STEAM WATER - 1 100000
282482 2022-May-25 11:26:30 dz2aw.wam FLOUR PRESS STONE WINDMIL - 1 3610000
282479 2022-May-24 22:44:06 4wgb2.wam BRICK FIRE FIRE RUST - 1 820000
282478 2022-May-24 22:43:36 4wgb2.wam EARTH EARTH RING RING - 1 3760000
282474 2022-May-24 18:28:48 u2mbc.wam HEAT OZONE PRESS PRESS - 1 3220000
282466 2022-May-24 10:42:48 2fvba.wam DUST LAVA RAIN STEAM - 1 160000
282460 2022-May-23 19:47:06 l3zra.wam AIR TREE TREE TREE - 1 2380000
282459 2022-May-23 17:03:24 nbgro.wam CLOUD ELECTRC LIGHT SKY - 1 11380000
282458 2022-May-23 16:53:30 nbgro.wam CLOUD ELECTRC SKY SOUND - 1 3130000
282456 2022-May-22 14:20:14 4ucb2.wam ELECTRC HEAT SKY STORM - 1 2770000
282455 2022-May-22 14:19:54 4ucb2.wam ENERGY HEAT SKY STORM - 1 1390000
282453 2022-May-22 05:24:39 dynjarren233 ATMSPHE BRICK GUNPWDR OCEAN - 1 520000
282438 2022-May-19 12:00:28 dz2aw.wam HEAT HEAT ICE SPACE - 1 7750000
282436 2022-May-19 11:39:55 dz2aw.wam ATMSPHE HEAT METAL STONE - 1 940000
282435 2022-May-19 11:36:32 dz2aw.wam ATMSPHE HEAT HEAT METAL - 1 880000
282434 2022-May-19 11:29:49 dz2aw.wam ATMSPHE HEAT HEAT STONE - 1 310000
282433 2022-May-19 10:05:38 1f4aw.wam AIR FROST HEAT STORM - 1 1180000
282431 2022-May-19 10:02:45 1f4aw.wam AIR FIRE HEAT STORM - 1 790000
282430 2022-May-19 10:02:04 1f4aw.wam AIR CLOUD HEAT STORM - 1 1090000
282424 2022-May-17 18:17:35 nbgro.wam FIRE FIRE SEED SEED - 1 2440000
282423 2022-May-17 17:57:22 nbgro.wam CLAY CLAY EARTH FIRE - 1 1300000
282422 2022-May-17 17:56:09 nbgro.wam CLAY CLAY EARTH WATER - 1 1300000
282421 2022-May-17 17:55:04 nbgro.wam CLAY CLAY EARTH HEAT - 1 1330000
282419 2022-May-17 17:09:08 nbgro.wam CLAY FIRE FIRE SAND - 1 1120000
282418 2022-May-17 10:16:14 arnoldfronda AIR EARTH OCEAN WATER - 1 190000
282406 2022-May-15 12:54:39 iamboom11111 ATMSPHE FIRE GARBAGE HEAT - 1 220000
282405 2022-May-15 05:35:35 waxingtest12 AIR GARBAGE PRESS WATER - 1 100000
282403 2022-May-14 15:42:16 fetbi.wam CLAY GLASS HEAT TIME - 1 5890000
282402 2022-May-13 09:41:42 ifaay.wam FOG MOSS PLANT TREE - 1 1600000
282391 2022-May-08 15:51:52 ehrbq.wam BUBBLES GAS METAL WATER - 1 2560000
282390 2022-May-08 15:49:07 ehrbq.wam CLAY HEAT PRESS TIME - 1 5440000
282389 2022-May-08 15:47:43 ehrbq.wam CLAY FIRE PRESS TIME - 1 5410000
282388 2022-May-08 15:40:32 ehrbq.wam EARTH TIME TREE WATER - 1 5530000
282387 2022-May-08 14:39:54 2wcqw.wam ATMSPHE EARTH FIRE WATER - 1 160000
282384 2022-May-08 06:36:09 andreipioara AIR ENERGY WIND WINDMIL - 1 1150000
282383 2022-May-07 23:54:43 i.lr2.wam BLADE GOLD HAMMER STEEL - 1 26650000
282382 2022-May-07 22:17:44 ehrbq.wam ATOM CLOUD ELECTRC SKY - 1 5290000
282381 2022-May-07 22:14:35 ehrbq.wam ATOM CLOUD ELECTRC RAIN - 1 4750000
282380 2022-May-07 22:11:48 ehrbq.wam CLOUD ELECTRC ENERGY LIGHT - 1 10840000
282379 2022-May-07 22:06:21 ehrbq.wam CLOUD ELECTRC ENERGY OZONE - 1 4870000
282377 2022-May-06 14:15:40 t4uqy.wam RICE RICE RICE RICE - 1 7360000
282376 2022-May-06 09:09:20 1puqy.wam LINEN PRESS THREAD THREAD - 1 5500000
282373 2022-May-05 13:50:22 ehrbq.wam GAS PRESS STEEL WATER - 1 1930000
282372 2022-May-05 13:48:38 ehrbq.wam BUBBLES PRESS STEEL WATER - 1 1990000
282368 2022-May-05 13:20:21 ehrbq.wam DEW GRASS TREE TREE - 1 2470000
282366 2022-May-05 05:06:58 obmobobmob33 BRICK EARTHQ ENERGY LAVA - 1 280000
282364 2022-May-04 13:59:03 fetbi.wam CLAY CLAY ENERGY PRESS - 1 1360000
282360 2022-May-04 06:55:41 dynastycrypt AIR OCEAN WATER WATER - 1 190000
282357 2022-May-03 16:35:44 nbgro.wam CLAY FIRE HEAT PAINT - 2 3490000
282356 2022-May-03 13:12:03 ivanagustyan AIR AIR SEA STEAM - 1 100000
282347 2022-May-01 05:54:17 1puqy.wam GAS GAS GAS WATER - 1 2740000
282344 2022-May-01 05:38:02 1puqy.wam CLAY FIRE POT WATER - 1 2320000
282343 2022-May-01 05:31:40 1puqy.wam LINEN LINEN LINEN THREAD - 1 5380000
282334 2022-Apr-25 23:12:13 nbgro.wam EARTH MNTAIN TREE TREE - 1 2230000
282332 2022-Apr-25 23:02:16 nbgro.wam LIFE MNTAIN PLANT TREE - 1 1870000
282329 2022-Apr-24 15:59:33 5eo2m.c.wam DUST ENERGY OCEAN PRESS - 1 280000
282328 2022-Apr-24 10:07:32 x4pra.wam CABBAGE CARROT EARTH PLANT - 1 580000
282327 2022-Apr-24 09:58:23 x4pra.wam CABBAGE CARROT PEAT TIME - 1 6400000
282318 2022-Apr-23 06:19:40 peshkatabrat DUST FIRE FIRE LAVA - 1 100000
282315 2022-Apr-22 22:16:28 dyqqy.wam CLAY HEAT HEAT LIFE - 1 1000000
282314 2022-Apr-22 22:04:48 dyqqy.wam CLAY HEAT LIFE WATER - 1 970000
282309 2022-Apr-21 05:01:52 andripakaw21 AIR FIRE GARBAGE RAIN - 1 100000
282308 2022-Apr-21 04:58:27 andripakaw21 FIRE LAVA PRESS SEA - 1 130000
282306 2022-Apr-20 20:24:50 o1ib4.wam LENS SOUND STEEL STEEL - 1 3790000
282304 2022-Apr-20 07:35:45 d.3bc.wam FIRE HEAT MUD SEA - 1 130000
282302 2022-Apr-20 07:34:01 d.3bc.wam ENERGY FIRE PRESS RICE - 1 1930000
282298 2022-Apr-19 15:32:46 oe5b2.wam ELECTRC ELECTRC SKY SOUND - 1 4240000
282294 2022-Apr-19 02:44:42 42irish42nft SEED SEED TREE TREE - 1 4000000
282293 2022-Apr-19 02:43:28 42irish42nft SEED TREE TREE WIND - 1 2920000
282288 2022-Apr-18 20:39:44 r4v3..c.wam DUST EARTH ENERGY FIRE - 1 100000
282287 2022-Apr-18 17:01:46 rudolfs12345 ENERGY ENERGY GARBAGE RAIN - 1 160000
282280 2022-Apr-17 05:15:38 5uzr.wam PRESS STEEL STONE WINDMIL - 1 2080000
282278 2022-Apr-16 12:21:06 rusylholding BUBBLES HILL RIVER SOUND - 1 4240000
282274 2022-Apr-15 17:14:17 dyqqy.wam DRUM HAMMER LIFE TNPLT - 1 8380000
282273 2022-Apr-15 16:09:01 dyqqy.wam HAMMER LIFE SOUND TNPLT - 1 4810000
282271 2022-Apr-14 23:31:13 omarmetehane ATMSPHE LAVA MUD RAIN - 1 250000
282265 2022-Apr-13 20:12:30 hviqu.wam BROOM FLAG PIPE PIPE - 1 25030000
282263 2022-Apr-13 06:00:06 aragornx1234 CABBAGE FIRE RAIN SEA - 1 280000
282256 2022-Apr-12 11:00:38 1puqy.wam ELECTRC ENERGY SKY STORM - 1 2770000
282253 2022-Apr-12 03:36:20 rusylholding ATMSPHE ELECTRC PLASMA STORM - 1 3010000
282252 2022-Apr-11 16:35:49 nbgro.wam MNTAIN PRESS RAIN RIVER - 1 1750000
282250 2022-Apr-10 21:45:29 wgvdo.wam DUST FIRE LAVA MUD - 1 130000
282247 2022-Apr-10 08:10:33 matotglrinft AIR DUST EARTH ENERGY - 1 100000
282237 2022-Apr-09 18:12:09 1f4aw.wam BACTERI CRUDE GRASS GRASS - 1 2080000
282236 2022-Apr-09 18:11:08 1f4aw.wam GARBAGE GARBAGE GRASS TREE - 1 1120000
282235 2022-Apr-09 18:09:42 1f4aw.wam GARBAGE GRASS SHIT WATER - 1 5710000
282234 2022-Apr-09 18:09:02 1f4aw.wam GARBAGE GARBAGE GRASS GRASS - 1 580000
282222 2022-Apr-08 23:22:12 5uzr.wam AIR BOTTLE PRESS WATER - 1 610000
282221 2022-Apr-08 19:21:56 o1ib4.wam HILL RIVER STONE WATER - 2 2560000
282220 2022-Apr-08 19:19:52 o1ib4.wam HILL STONE STONE WATER - 2 1630000
282219 2022-Apr-08 19:17:37 o1ib4.wam ENERGY HILL STONE WATER - 1 1570000
282218 2022-Apr-08 19:16:12 o1ib4.wam ENERGY HILL RIVER STONE - 1 2590000
282216 2022-Apr-08 16:20:58 dyqqy.wam HAMMER HEAT SOUND TNPLT - 1 4570000
282215 2022-Apr-08 16:17:27 dyqqy.wam HAMMER HEAT TNPLT TNPLT - 1 4540000
282212 2022-Apr-08 16:06:49 dyqqy.wam GAS HAMMER TNPLT TNPLT - 1 5410000
282211 2022-Apr-08 13:23:49 dyqqy.wam CLOUD CLOUD ENERGY GAS - 1 1570000
282210 2022-Apr-08 13:15:31 dyqqy.wam ATMSPHE CLOUD CLOUD HEAT - 1 790000
282207 2022-Apr-08 06:23:43 ijar.wam PRESS PRESS RIVER WATER - 1 1120000
282206 2022-Apr-08 06:23:30 ijar.wam PRESS PRESS PRESS RIVER - 1 1150000
282199 2022-Apr-07 11:56:09 papra.wam ENERGY GARBAGE LAVA SEA - 1 160000
282196 2022-Apr-06 22:08:38 4pdqw.wam LIFE STEAM SUN TREE - 1 1720000
282195 2022-Apr-06 22:06:56 4pdqw.wam EARTH STEAM SUN TREE - 1 1450000
282194 2022-Apr-06 22:04:12 4pdqw.wam EARTH PLANT STEAM SUN - 1 820000
282193 2022-Apr-06 22:00:16 4pdqw.wam LIFE SEED STEAM SUN - 1 2140000
282192 2022-Apr-06 21:57:42 4pdqw.wam LIFE PLANT STEAM SUN - 1 1090000
282185 2022-Apr-06 10:33:30 dyqqy.wam BEACH LIFE TIME TREE - 1 7180000
282184 2022-Apr-05 22:33:03 4w32o.c.wam DUST PRESS RAIN STEAM - 1 160000
282182 2022-Apr-05 17:41:31 nbgro.wam CLOUD ELECTRC EXPLOSN STORM - 1 2770000
282180 2022-Apr-04 22:07:22 nbgro.wam CANABIS CANABIS PRESS PRESS - 1 2860000
282179 2022-Apr-04 15:20:48 oe5b2.wam EARTH PAINT RAIN SEED - 1 4060000
282177 2022-Apr-04 15:12:51 oe5b2.wam OZONE PLANT SWAMP TREE - 1 4300000
282176 2022-Apr-04 15:07:42 oe5b2.wam GRASS OZONE PLANT TREE - 1 4300000
282175 2022-Apr-04 15:06:29 oe5b2.wam OZONE TREE TREE TREE - 1 5470000
282174 2022-Apr-04 10:19:02 wzmas.wam DIAMOND DIAMOND METAL WLDMACH - 1 3640000
282167 2022-Apr-03 20:43:55 fwdz2.wam AIR DUST DUST EARTH - 1 100000
282166 2022-Apr-03 19:11:48 wzmas.wam HILL RIVER SOUND WATER - 1 3280000
282159 2022-Apr-02 20:36:51 wzmas.wam ALUMINM PRESS PRESS PRESS - 1 2200000
282158 2022-Apr-02 19:42:45 hgfqq.wam ALUMINM EARTH EARTH EARTH - 1 2110000
282150 2022-Apr-01 23:15:57 ifaay.wam CLAY FIRE SAND WATER - 1 1120000
282148 2022-Apr-01 18:08:02 yrmothersass EARTHQ ENERGY FIRE PRESS - 1 190000
282147 2022-Apr-01 15:54:58 bartosz12345 ATMSPHE EARTHQ ENERGY OCEAN - 1 430000
282146 2022-Apr-01 12:54:27 jlybc.wam LAVA RAIN SMOKE WLDMACH - 1 2590000
282145 2022-Apr-01 12:54:07 jlybc.wam ENERGY STONE SUN WLDMACH - 1 2920000
282137 2022-Mar-31 18:16:27 g4d2k.c.wam AIR AIR ENERGY HEAT - 1 100000
282135 2022-Mar-31 18:13:34 g4d2k.c.wam AIR FIRE GARBAGE PRESS - 1 100000
282133 2022-Mar-31 07:32:30 1f4aw.wam COIN ELECTRC GAS PICKAX - 1 29260000
282129 2022-Mar-31 01:31:19 yrmothersass FIRE FIRE GUNPWDR LAVA - 2 190000
282128 2022-Mar-30 23:20:09 nbgro.wam DIAMOND METAL METAL METAL - 1 2410000
282127 2022-Mar-30 20:22:02 hgfqq.wam HILL RIVER SOUND STONE - 1 3370000
282126 2022-Mar-30 19:52:45 hgfqq.wam HILL MNTAIN RIVER SOUND - 1 3910000
282125 2022-Mar-30 19:26:39 hgfqq.wam HILL PLANT TREE TREE - 1 3160000
282124 2022-Mar-30 19:18:44 hgfqq.wam CABBAGE CARROT EARTH PEAT - 1 1690000
282123 2022-Mar-30 19:12:47 wzmas.wam BACTERI CABBAGE CARROT PEAT - 1 2260000
282122 2022-Mar-30 19:10:05 wzmas.wam BACTERI EARTH PEAT PEAT - 1 3130000
282121 2022-Mar-30 19:06:43 hgfqq.wam EARTH EARTH PEAT WATER - 1 1300000
282120 2022-Mar-30 19:01:10 hgfqq.wam EARTH PEAT PEAT PEAT - 1 3820000
282119 2022-Mar-30 18:58:33 hgfqq.wam EARTH EARTH PEAT PEAT - 1 2560000
282118 2022-Mar-30 18:57:16 hgfqq.wam EARTH EARTH EARTH PEAT - 1 1300000
282115 2022-Mar-30 10:50:34 wzmas.wam COMPASS TREE TREE TREE - 1 4690000
282114 2022-Mar-30 10:49:27 wzmas.wam COMPASS MOSS TREE TREE - 1 4180000
282113 2022-Mar-30 10:48:03 wzmas.wam COMPASS MOSS PLANT TREE - 1 3550000
282110 2022-Mar-30 04:09:59 jobffjdhshsn AIR ENERGY LAVA RAIN - 1 130000
282108 2022-Mar-30 03:59:04 jobffjdhshsn FIRE FIRE GUNPWDR WATER - 1 160000
282107 2022-Mar-30 03:58:47 jobffjdhshsn ATMSPHE EARTH EARTH STEAM - 1 190000
282101 2022-Mar-29 20:52:43 fgherhes1111 DUST ENERGY FIRE HEAT - 1 130000
282099 2022-Mar-29 18:17:55 thorvapstyle EARTH FIRE LAVA RAIN - 1 100000
282098 2022-Mar-29 18:06:34 thorvapstyle EARTH GARBAGE GARBAGE SEA - 1 130000
282095 2022-Mar-29 02:06:57 wesleydbarne EARTH EARTH ENERGY GARBAGE - 1 100000
282092 2022-Mar-28 23:34:10 xpkvs.wam ENERGY FIRE GARBAGE RAIN - 1 130000
282091 2022-Mar-28 20:00:07 nao.u.c.wam EARTH FLOOD GARBAGE PRESS - 1 250000
282088 2022-Mar-28 17:06:31 nbgro.wam RAIN RIVER STONE WATER - 1 1180000
282087 2022-Mar-28 16:58:54 nbgro.wam HILL MNTAIN RAIN RIVER - 1 3130000
282086 2022-Mar-28 16:56:26 nbgro.wam HILL MNTAIN RIVER RIVER - 1 4120000
282078 2022-Mar-27 18:25:37 webwallet.gm AIR EARTH OCEAN SEA - 1 220000
282074 2022-Mar-27 17:12:09 o1ib4.wam HILL RAIN RIVER STONE - 2 2590000
282061 2022-Mar-26 11:51:12 jonsetu11111 HEAT RAIN STEAM WIND - 1 250000
282048 2022-Mar-24 21:00:51 4vtxy.wam GARBAGE HEAT LAVA PRESS - 1 160000
282046 2022-Mar-24 18:03:46 dyqqy.wam DUST EARTH ICE SUN - 1 1090000
282044 2022-Mar-24 13:35:37 oe5b2.wam GRASS SWAMP TREE TREE - 1 2080000
282041 2022-Mar-24 09:39:10 weaselmeraxm AIR ATMSPHE RAIN WATER - 1 190000
282039 2022-Mar-24 08:38:56 1f4aw.wam BITCOIN CALCLTR COIN GAS - 1 42730000
282037 2022-Mar-24 08:33:27 1f4aw.wam BLCKCHN COIN GAS IDEA - 1 50590000
282030 2022-Mar-23 09:22:06 5uzr.wam AIR STEEL STONE WINDMIL - 1 2050000
282029 2022-Mar-23 08:34:58 dyqqy.wam FLOUR LIFE WHEAT WINDMIL - 1 4570000
282028 2022-Mar-23 08:31:04 dyqqy.wam FLOUR LIFE STONE WINDMIL - 1 3850000
282026 2022-Mar-22 22:14:37 nbgro.wam CLAY CLAY FIRE STONE - 1 1390000
282025 2022-Mar-22 19:49:04 4pdqw.wam ENERGY ENERGY ENERGY PALM - 1 1960000
282024 2022-Mar-22 19:40:08 4pdqw.wam EARTH ENERGY PALM SUN - 1 2500000
282021 2022-Mar-22 19:30:13 4pdqw.wam EARTH SUN SUNFLWR WATER - 1 2620000
282020 2022-Mar-22 19:04:46 4pdqw.wam EARTH RICE SUN WATER - 1 2470000
282019 2022-Mar-22 18:36:08 .rjb.wam HEAT SEED SUN TREE - 1 2650000
282017 2022-Mar-22 17:07:59 oe5b2.wam GRASS PLANT SWAMP TREE - 1 1450000
282013 2022-Mar-21 19:40:44 nbgro.wam AIR CLAY HEAT MUD - 1 730000
282012 2022-Mar-21 15:45:52 4pdqw.wam CABBAGE EARTH SUN WATER - 1 820000
282011 2022-Mar-21 15:43:20 4pdqw.wam EARTH SEA SUN WATER - 1 670000
282010 2022-Mar-21 15:41:33 4pdqw.wam EARTH GARBAGE SUN WATER - 1 670000
282009 2022-Mar-21 15:37:48 4pdqw.wam CARROT EARTH SUN WATER - 1 850000
282008 2022-Mar-21 15:37:08 4pdqw.wam CARROT EARTH FIRE WATER - 1 250000
282007 2022-Mar-21 15:29:40 4pdqw.wam EARTH EARTH SUN WATER - 1 640000
282005 2022-Mar-21 06:57:13 4ucb2.wam ATMSPHE EARTH ELECTRC ENERGY - 1 1600000
282004 2022-Mar-21 06:46:06 nbgro.wam MNTAIN RAIN RAIN RIVER - 2 1750000
282003 2022-Mar-21 00:16:33 f24r2.wam EARTH FIRE HEAT RAIN - 1 100000
282002 2022-Mar-20 22:14:11 br2ay.wam CLOUD EARTH RAIN STORM - 1 1090000
282000 2022-Mar-20 22:10:11 br2ay.wam AIR ENERGY ICE STORM - 1 1210000
281999 2022-Mar-20 22:08:36 br2ay.wam AIR CLOUD ICE WATER - 1 760000
281995 2022-Mar-20 14:58:55 i15ay.wam ENERGY RAIN RAIN RAIN - 1 160000
281989 2022-Mar-20 07:43:57 oe5b2.wam BUBBLES MNTAIN SOUND WATER - 1 2440000
281988 2022-Mar-20 07:42:35 oe5b2.wam MNTAIN SOUND STONE WATER - 1 1570000
281987 2022-Mar-20 07:29:46 oe5b2.wam MNTAIN MOSS RIVER STONE - 1 2050000
281986 2022-Mar-20 07:19:25 oe5b2.wam ENERGY MNTAIN RIVER SOUND - 1 2530000
281985 2022-Mar-20 07:19:06 oe5b2.wam MNTAIN RIVER SOUND WIND - 1 2620000
281984 2022-Mar-20 06:48:50 oe5b2.wam BUBBLES MNTAIN RIVER SOUND - 1 3460000
281983 2022-Mar-20 01:53:03 i.lr2.wam STONE TILING WHEAT WINDMIL - 1 3250000
281982 2022-Mar-20 01:51:08 i.lr2.wam FLOUR STONE TILING WINDMIL - 1 4930000
281981 2022-Mar-20 01:43:10 i.lr2.wam HEAT HEAT HEAT SEED - 1 1330000
281980 2022-Mar-20 01:37:49 i.lr2.wam FIRE HEAT SEED SUN - 1 1870000
281979 2022-Mar-20 01:32:35 i.lr2.wam FLOUR TILING WIND WINDMIL - 1 4960000
281978 2022-Mar-20 01:24:44 i.lr2.wam HEAT HEAT SEED SEED - 1 2500000
281976 2022-Mar-19 21:19:05 nbgro.wam STONE TIME TREE WATER - 1 5620000
281975 2022-Mar-19 21:17:52 nbgro.wam TREE TREE WATER WATER - 1 1600000
281973 2022-Mar-19 16:07:58 hgfqq.wam ENERGY FLOUR WIND WINDMIL - 1 3640000
281972 2022-Mar-19 15:55:21 hgfqq.wam FLOUR PRESS WIND WINDMIL - 1 3640000
281971 2022-Mar-19 15:51:16 wzmas.wam ENERGY FLOUR PRESS WINDMIL - 1 3550000
281970 2022-Mar-19 15:42:17 hgfqq.wam FLOUR TILING WALL WINDMIL - 1 5170000
281969 2022-Mar-19 15:09:05 vbib2.wam EARTHQ ENERGY LAVA OBSIDIN - 1 310000
281968 2022-Mar-19 15:08:44 vbib2.wam ENERGY GUNPWDR RAIN WATER - 1 220000
281967 2022-Mar-19 14:40:59 oe5b2.wam ENERGY METAL STONE WATER - 1 820000
281966 2022-Mar-19 14:37:46 oe5b2.wam ENERGY METAL STONE WIND - 1 940000
281965 2022-Mar-19 07:52:33 oe5b2.wam CLAY CLAY FIRE PAINT - 7 4090000
281961 2022-Mar-19 06:23:35 oe5b2.wam LIMSTON PAINT PRESS WATER - 1 7630000
281959 2022-Mar-19 05:54:03 oe5b2.wam HEAT LIMSTON PAINT WATER - 1 7630000
281956 2022-Mar-19 00:11:26 .akuc.wam BRICK TILING WATER WIND - 1 1600000
281955 2022-Mar-18 22:27:37 .akuc.wam BRICK STONE WATER WIND - 1 340000
281954 2022-Mar-18 20:53:26 waeqw.wam BRICK ENERGY METAL WIND - 1 940000
281953 2022-Mar-18 19:00:28 xqjam.wam EARTH ELECTRC PLASMA SKY - 1 2740000
281952 2022-Mar-18 18:59:18 xqjam.wam EARTH HEAT PLASMA STORM - 1 1510000
281951 2022-Mar-18 18:57:38 xqjam.wam ATMSPHE CLOUD EARTH PLASMA - 1 1180000
281950 2022-Mar-18 18:57:23 xqjam.wam AIR EARTH PLASMA WATER - 1 760000
281949 2022-Mar-18 18:57:07 xqjam.wam CLOUD EARTH PLASMA RAIN - 1 1090000
281948 2022-Mar-18 18:55:03 xqjam.wam EARTH PLASMA RAIN RAIN - 1 820000
281947 2022-Mar-18 18:52:00 xqjam.wam EARTH PLASMA RAIN SKY - 1 1360000
281946 2022-Mar-18 18:51:28 xqjam.wam EARTH ELECTRC PLASMA RAIN - 1 2200000
281945 2022-Mar-18 18:48:15 xqjam.wam EARTH PLASMA PLASMA STORM - 1 2200000
281944 2022-Mar-18 18:23:41 xqjam.wam MUSIC PRESS TNPLT TNPLT - 1 14380000
281943 2022-Mar-18 18:22:00 xqjam.wam AIR SOUND TNPLT TNPLT - 1 2410000
281941 2022-Mar-18 18:18:08 xqjam.wam DRUM SOUND TNPLT TNPLT - 1 6790000
281940 2022-Mar-18 17:42:50 xqjam.wam MUSIC SOUND TNPLT TNPLT - 1 15160000
281939 2022-Mar-18 17:41:32 xqjam.wam SOUND SOUND TNPLT TNPLT - 1 3220000
281938 2022-Mar-18 17:33:57 xqjam.wam ALIEN ENGINE POT SPACE - 1 44230000
281937 2022-Mar-18 17:29:56 xqjam.wam GRASS PLANT SHIT TREE - 1 6610000
281936 2022-Mar-18 17:29:13 xqjam.wam GRASS MOSS SHIT TREE - 1 6730000
281935 2022-Mar-18 17:28:38 xqjam.wam GRASS PLANT PRESS SHIT - 1 5860000
281934 2022-Mar-18 17:26:49 xqjam.wam GRASS MOSS PLANT SHIT - 1 6100000
281933 2022-Mar-18 17:22:29 xqjam.wam GRASS PRESS SHIT SHIT - 1 11110000
281932 2022-Mar-18 17:22:12 xqjam.wam GRASS GRASS PRESS SHIT - 1 5950000
281931 2022-Mar-18 17:21:09 xqjam.wam GRASS PLANT SHIT TIME - 1 10540000
281930 2022-Mar-18 17:19:50 xqjam.wam GRASS PLANT SHIT SHIT - 1 11230000
281929 2022-Mar-18 17:19:02 xqjam.wam GRASS SHIT SHIT SHIT - 1 16480000
281928 2022-Mar-18 17:18:25 xqjam.wam GRASS GRASS SHIT SHIT - 1 11320000
281927 2022-Mar-18 17:10:13 xqjam.wam EARTH ELECTRC STORM STORM - 1 2890000
281926 2022-Mar-18 16:45:53 xqjam.wam EARTH ELECTRC RAIN RAIN - 1 1510000
281925 2022-Mar-18 16:43:36 xqjam.wam EARTH ELECTRC ELECTRC RAIN - 1 2890000
281924 2022-Mar-18 16:42:51 xqjam.wam EARTH ELECTRC ELECTRC STORM - 2 3580000
281923 2022-Mar-18 16:42:19 xqjam.wam EARTH ENERGY ENERGY STORM - 1 820000
281922 2022-Mar-18 16:41:10 xqjam.wam ATMSPHE EARTH ENERGY RAIN - 1 220000
281921 2022-Mar-18 16:40:33 xqjam.wam EARTH ENERGY RAIN SKY - 1 670000
281919 2022-Mar-18 16:40:03 .akuc.wam EARTH ELECTRC LIGHT SOUND - 1 11320000
281918 2022-Mar-18 16:39:31 xqjam.wam CLOUD EARTH ENERGY RAIN - 1 400000
281917 2022-Mar-18 16:36:35 xqjam.wam AIR EARTH ELECTRC WATER - 1 1450000
281916 2022-Mar-18 16:34:13 xqjam.wam EARTH ELECTRC RAIN SOUND - 1 2290000
281915 2022-Mar-18 16:26:18 xqjam.wam EARTH ELECTRC SKY SOUND - 1 2830000
281914 2022-Mar-18 16:24:21 xqjam.wam ATMSPHE EARTH ELECTRC RAIN - 1 1600000
281912 2022-Mar-18 16:23:05 xqjam.wam EARTH ELECTRC RAIN SKY - 1 2050000
281911 2022-Mar-18 16:17:30 xqjam.wam AIR EARTH ELECTRC RAIN - 2 1480000
281910 2022-Mar-18 16:05:10 xqjam.wam AIR EARTH ELECTRC SKY - 1 2020000
281909 2022-Mar-18 13:36:01 nbgro.wam ICE LIGHT SPACE SUN - 1 17350000
281908 2022-Mar-18 11:59:19 xqjam.wam DUST ICE SPACE SPACE - 1 14950000
281907 2022-Mar-18 11:58:28 xqjam.wam ICE SPACE SPACE SUN - 1 15520000
281906 2022-Mar-18 11:56:49 xqjam.wam ICE ICE RADITON SPACE - 1 10540000
281905 2022-Mar-18 11:55:19 xqjam.wam HEAT ICE RADITON SPACE - 1 10150000
281904 2022-Mar-18 11:46:20 xqjam.wam FROST SPACE STONE SUN - 1 8350000
281903 2022-Mar-18 11:45:47 xqjam.wam FROST RADITON SPACE STONE - 1 10180000
281902 2022-Mar-18 11:42:27 xqjam.wam DUST FIRE ICE SPACE - 1 7720000
281901 2022-Mar-18 11:41:52 xqjam.wam FIRE ICE SPACE STONE - 1 7780000
281900 2022-Mar-18 11:41:14 xqjam.wam HEAT ICE SPACE STONE - 1 7810000
281899 2022-Mar-18 11:31:00 xqjam.wam ICE RADITON SPACE STONE - 1 10210000
281898 2022-Mar-18 11:29:23 xqjam.wam ICE RADITON SPACE SUN - 1 10720000
281897 2022-Mar-18 11:27:15 xqjam.wam FIRE ICE SPACE SUN - 1 8290000
281895 2022-Mar-18 11:24:51 xqjam.wam ICE SPACE SUN SUN - 1 8890000
281894 2022-Mar-18 11:22:03 xqjam.wam ICE ICE SPACE SUN - 1 8710000
281893 2022-Mar-18 11:14:46 xqjam.wam DUST SPACE STONE STONE - 1 7480000
281892 2022-Mar-18 11:14:17 xqjam.wam DUST DUST SPACE STONE - 1 7420000
281891 2022-Mar-18 10:51:03 xqjam.wam CLAY ENERGY FIRE LIFE - 1 970000
281890 2022-Mar-18 10:50:33 xqjam.wam CLAY ENERGY LIFE WATER - 1 970000
281889 2022-Mar-18 10:49:23 xqjam.wam CLAY FIRE LIFE PRESS - 1 970000
281888 2022-Mar-18 06:51:09 ge3r2.wam BRICK TILING WHEAT WINDMIL - 1 3250000
281887 2022-Mar-18 06:31:04 ge3r2.wam LIFE OCEAN PRESS SEAWEED - 1 1870000
281886 2022-Mar-18 06:24:36 ge3r2.wam AIR BUBBLES SEA WAVE - 1 1420000
281885 2022-Mar-18 06:24:04 ge3r2.wam AIR BUBBLES WATER WAVE - 1 1390000
281884 2022-Mar-18 05:57:56 ge3r2.wam BUBBLES ENERGY PRESS WATER - 1 1060000
281883 2022-Mar-18 05:57:14 ge3r2.wam BUBBLES ENERGY HEAT WATER - 1 1060000
281882 2022-Mar-18 05:51:11 ge3r2.wam BUBBLES HEAT PRESS WATER - 1 1060000
281881 2022-Mar-18 05:45:58 ge3r2.wam BUBBLES BUBBLES BUBBLES TNPLT - 2 3700000
281880 2022-Mar-18 05:09:25 ge3r2.wam BOTTLE BUBBLES WATER WATER - 1 1540000
281879 2022-Mar-18 05:08:26 ge3r2.wam BUBBLES HEAT TNPLT WATER - 1 1810000
281878 2022-Mar-18 04:51:45 ge3r2.wam BUBBLES BUBBLES HEAT WATER - 1 1990000
281877 2022-Mar-18 04:40:34 ge3r2.wam BUBBLES HEAT HEAT WATER - 1 1060000
281876 2022-Mar-18 04:37:50 ge3r2.wam AIR GAS HEAT WATER - 1 970000
281873 2022-Mar-17 22:36:49 .akuc.wam GARBAGE LIFE RAIN SUN - 1 970000
281871 2022-Mar-17 22:12:20 1acba.wam CABBAGE CABBAGE CABBAGE LIFE - 1 850000
281868 2022-Mar-17 20:10:12 i15ay.wam ATMSPHE ENERGY RAIN WIND - 1 340000
281867 2022-Mar-17 20:02:16 i15ay.wam ELECTRC RAIN SKY WIND - 1 2170000
281866 2022-Mar-17 19:52:41 phbb4.wam EARTH FLOWER SEED WATER - 1 6010000
281865 2022-Mar-17 19:15:13 ge3r2.wam FLOWER PEAT RAIN SUN - 1 6700000
281864 2022-Mar-17 19:11:33 i15ay.wam ATMSPHE ENERGY RAIN SKY - 1 790000
281863 2022-Mar-17 19:03:39 ge3r2.wam FLOWER PEAT SUN WATER - 1 6670000
281859 2022-Mar-17 18:47:44 ge3r2.wam PEAT RAIN SUN TREE - 1 2710000
281858 2022-Mar-17 18:47:14 ge3r2.wam EARTH PEAT SUN TREE - 1 2680000
281857 2022-Mar-17 18:30:07 i15ay.wam ATMSPHE ENERGY PRESS RAIN - 1 250000
281856 2022-Mar-17 18:26:45 i15ay.wam ATMSPHE ENERGY RAIN RAIN - 1 250000
281855 2022-Mar-17 18:16:53 .akuc.wam CLAY CLAY GLASS PRESS - 1 1810000
281852 2022-Mar-17 18:08:22 ge3r2.wam EARTH FLOWER PLANT RAIN - 1 4990000
281851 2022-Mar-17 18:04:37 ge3r2.wam EARTH FLOWER PLANT WATER - 1 4960000
281849 2022-Mar-17 17:57:23 xqjam.wam CLAY FIRE LIFE WATER - 1 940000
281848 2022-Mar-17 17:56:49 xqjam.wam CLAY CLAY LIFE WATER - 1 1570000
281847 2022-Mar-17 17:56:08 xqjam.wam CLAY CLAY LIFE PRESS - 1 1600000
281844 2022-Mar-17 17:53:37 xqjam.wam CLAY ENERGY MUD WATER - 1 730000
281843 2022-Mar-17 17:53:09 xqjam.wam CLAY ENERGY FIRE MUD - 1 730000
281842 2022-Mar-17 17:51:23 xqjam.wam CLAY CLAY ENERGY FIRE - 1 1330000
281841 2022-Mar-17 17:49:08 xqjam.wam CLAY CLAY ENERGY WATER - 1 1330000
281840 2022-Mar-17 17:47:51 xqjam.wam CLAY ENERGY PRESS WATER - 1 730000
281837 2022-Mar-17 17:45:01 xqjam.wam CLAY CLAY MUD WATER - 1 1330000
281831 2022-Mar-17 17:13:30 xqjam.wam CLAY CLAY MUD PRESS - 1 1360000
281830 2022-Mar-17 17:12:41 xqjam.wam CLAY MUD PRESS WATER - 1 730000
281827 2022-Mar-17 16:13:10 phbb4.wam FLOWER LIFE SUN WATER - 1 5680000
281826 2022-Mar-17 16:05:13 phbb4.wam EARTH FLOWER RAIN SUN - 1 5440000
281825 2022-Mar-17 16:03:40 ehrbq.wam BUBBLES GAS METAL PLASTIC - 1 4540000
281824 2022-Mar-17 15:56:57 ehrbq.wam BUBBLES HAMMER METAL PRESS - 1 4600000
281818 2022-Mar-16 21:28:36 hgfqq.wam CLAY WATER WATER WATER - 2 670000
281814 2022-Mar-16 19:12:50 4pdqw.wam METAL PRESS STEEL TNPLT - 1 2470000
281813 2022-Mar-16 19:06:18 daabs.wam LIFE MNTAIN TREE TREE - 1 2500000
281812 2022-Mar-16 18:46:50 daabs.wam AIR CLOUD ELECTRC LIGHT - 1 10810000
281811 2022-Mar-16 18:38:36 n52bq.wam AIR EARTH TREE WATER - 2 820000
281809 2022-Mar-16 18:26:21 daabs.wam OXYGEN RAIN SUN TREE - 1 4210000
281808 2022-Mar-16 18:03:16 dyqqy.wam BATTERY PIPE SMOKE SMOKE - 1 9490000
281807 2022-Mar-16 17:41:25 4pdqw.wam PRESS STEEL TNPLT TNPLT - 1 2590000
281806 2022-Mar-16 17:29:58 ge3r2.wam BACTERI GRASS GRASS GRASS - 1 1330000
281804 2022-Mar-16 17:22:04 ge3r2.wam BACTERI CABBAGE CARROT GRASS - 1 1240000
281803 2022-Mar-16 17:18:25 4pdqw.wam METAL PRESS TNPLT TNPLT - 1 2290000
281802 2022-Mar-16 17:13:43 ge3r2.wam BACTERI CABBAGE CARROT TIME - 1 5710000
281801 2022-Mar-16 17:06:40 nbgro.wam STEEL STEEL TNPLT TNPLT - 1 3520000
281799 2022-Mar-16 17:00:17 4pdqw.wam PRESS TNPLT TNPLT TNPLT - 1 2410000
281798 2022-Mar-16 16:37:39 nbgro.wam KNIFE PAINT PAINT TREE - 1 10210000
281797 2022-Mar-16 16:29:55 jfequ.wam RIVER RIVER RIVER STONE - 2 3190000
281796 2022-Mar-16 16:12:30 ktjqq.wam HAMMER METAL PRESS PRESS - 1 3670000
281795 2022-Mar-16 15:58:58 wzmas.wam BACTERI CABBAGE CARROT EARTH - 1 1000000
281794 2022-Mar-16 15:49:19 ktjqq.wam HAMMER PRESS PRESS STEEL - 1 3970000
281793 2022-Mar-16 15:46:24 ervb2.wam GRASS GRASS TREE TREE - 1 2080000
281792 2022-Mar-16 15:43:14 ktjqq.wam ELECTRC ELECTRC SOUND SOUND - 1 4480000
281791 2022-Mar-16 15:42:17 ervb2.wam DEW GRASS MOSS TREE - 1 1960000
281789 2022-Mar-16 03:52:56 lsfqw.wam AIR BUBBLES SALT WATER - 1 1060000
281788 2022-Mar-16 03:50:22 ge3r2.wam CHAIN CHAIN CHAIN WLDMACH - 2 5260000
281787 2022-Mar-16 03:14:09 ge3r2.wam CHAIN CHAIN DIAMOND DIAMOND - 1 2860000
281785 2022-Mar-16 02:56:48 ge3r2.wam CARROT CARROT WHEAT WHEAT - 1 2080000
281784 2022-Mar-16 02:56:38 ge3r2.wam CARROT CARROT CARROT CARROT - 1 880000
281782 2022-Mar-16 02:31:40 ge3r2.wam CHAIN DIAMOND DIAMOND WLDMACH - 1 4000000
281781 2022-Mar-16 02:12:03 ge3r2.wam HEAT STEEL STEEL STEEL - 1 2950000
281780 2022-Mar-16 01:59:32 ge3r2.wam ENERGY STORM STORM STORM - 1 2230000
281779 2022-Mar-16 01:50:42 ge3r2.wam ENERGY ENERGY ENERGY STORM - 1 850000
281778 2022-Mar-16 01:45:04 ge3r2.wam RIVER TIME WATER WATER - 1 5770000
281777 2022-Mar-16 01:16:25 ge3r2.wam AIR ATMSPHE ENERGY ENERGY - 1 220000
281776 2022-Mar-16 01:14:54 ge3r2.wam AIR ATMSPHE CLOUD CLOUD - 1 760000
281775 2022-Mar-16 01:10:22 ge3r2.wam AIR AIR CLOUD CLOUD - 1 640000
281773 2022-Mar-15 22:26:09 .akuc.wam GRASS LIFE RIVER TREE - 1 2350000
281772 2022-Mar-15 22:22:52 .akuc.wam GRASS LIFE TREE TREE - 1 2110000
281771 2022-Mar-15 22:03:33 hgfqq.wam BLADE PRESS PRESS STEEL - 1 2170000
281770 2022-Mar-15 21:39:24 hgfqq.wam BLADE METAL PRESS STEEL - 1 2800000
281768 2022-Mar-15 21:25:07 hgfqq.wam BLADE METAL METAL PRESS - 1 2500000
281764 2022-Mar-15 21:08:01 hgfqq.wam BLADE PRESS STEEL STEEL - 1 3100000
281761 2022-Mar-15 20:53:31 ijar.wam EARTH GARBAGE GARBAGE PLANT - 1 250000
281760 2022-Mar-15 20:53:18 ijar.wam EARTH GARBAGE PLANT PLANT - 1 370000
281759 2022-Mar-15 20:53:02 ijar.wam EARTH GARBAGE PEAT PLANT - 1 1480000
281758 2022-Mar-15 20:52:38 ijar.wam EARTH PEAT PLANT PLANT - 2 1600000
281757 2022-Mar-15 20:52:20 ijar.wam GARBAGE GARBAGE PEAT PLANT - 1 1510000
281756 2022-Mar-15 20:52:06 ijar.wam GARBAGE PEAT PLANT PLANT - 1 1630000
281749 2022-Mar-15 20:29:16 1puqy.wam EARTH GRASS GRASS SHIT - 1 5920000
281748 2022-Mar-15 20:28:51 1puqy.wam GRASS GRASS GRASS SHIT - 1 6160000
281745 2022-Mar-15 20:23:09 1puqy.wam EARTH GRASS PLANT SHIT - 1 5830000
281744 2022-Mar-15 20:18:24 1puqy.wam EARTH EARTH PLANT SHIT - 2 5590000
281743 2022-Mar-15 19:42:09 wzmas.wam PRESS STEEL STEEL STEEL BULLPRV 1 2950000
281738 2022-Mar-15 16:04:17 hgfqq.wam ELECTRC PLASMA RAIN RAIN - 1 2230000
281737 2022-Mar-15 16:00:01 hgfqq.wam CLAY CLAY FIRE SAND - 1 1750000
281736 2022-Mar-15 13:44:12 jfequ.wam BARREL PLANT SHIT WATER - 1 8740000
281735 2022-Mar-15 11:35:09 wzmas.wam CLAY CLAY HEAT SAND - 1 1780000
281732 2022-Mar-15 11:13:42 wzmas.wam SEED SUN SUN TREE - 2 3220000
281730 2022-Mar-15 11:07:34 hgfqq.wam FIRE SEED SEED TREE - 1 3220000
281729 2022-Mar-15 11:05:02 hgfqq.wam FIRE SEED SUN TREE - 1 2620000
281728 2022-Mar-15 11:03:31 hgfqq.wam FIRE POT SEED TREE - 1 3670000
281726 2022-Mar-15 10:56:06 wzmas.wam GRASS GRASS SHIT SUN - 1 6520000
281724 2022-Mar-15 04:24:51 1f4aw.wam BANANA BANANA BANANA BANANA - 1 9880000
281722 2022-Mar-15 01:45:34 jfequ.wam FLOOD RAINBOW RIVER STONE - 1 4060000
281721 2022-Mar-15 00:55:17 jfequ.wam FLOOD RIVER SEA STONE - 1 1330000
281719 2022-Mar-15 00:26:13 xqjam.wam RIVER RIVER STONE WALL - 1 2500000
281718 2022-Mar-15 00:25:00 xqjam.wam MNTAIN RIVER RIVER STONE - 1 2800000
281717 2022-Mar-15 00:08:47 xqjam.wam SCISSOR STEEL STEEL TSHIRT - 1 23740000
281716 2022-Mar-15 00:01:06 xqjam.wam PLANT SHIT SHIT SHIT - 1 16390000
281715 2022-Mar-15 00:00:19 xqjam.wam PLANT SHIT SHIT WATER - 1 10990000
281714 2022-Mar-15 00:00:07 xqjam.wam PLANT PLANT SHIT SHIT - 1 11140000
281713 2022-Mar-14 23:46:00 xqjam.wam SHIT TIME WATER WHEAT - 1 10960000
281712 2022-Mar-14 23:22:59 jfequ.wam HILL RAINBOW RIVER STONE - 1 5320000
281711 2022-Mar-14 23:22:25 jfequ.wam MNTAIN RAINBOW RIVER STONE - 4 4540000
281710 2022-Mar-14 22:44:39 nbgro.wam CLOUD ELECTRC STORM STORM - 1 3190000
281709 2022-Mar-14 22:30:44 nbgro.wam CLOUD ICE RAIN WIND - 1 910000
281708 2022-Mar-14 22:24:09 nbgro.wam CLOUD ELECTRC ICE WATER - 1 2170000
281707 2022-Mar-14 22:23:53 nbgro.wam CLOUD ELECTRC ICE RAIN - 1 2200000
281706 2022-Mar-14 21:48:45 .akuc.wam BRICK FIRE MUD STONE - 1 250000
281705 2022-Mar-14 21:47:02 .akuc.wam FIRE OCEAN STONE WATER - 1 280000
281704 2022-Mar-14 21:04:19 hgfqq.wam ELECTRC PLASMA RAIN SKY - 1 2770000
281703 2022-Mar-14 20:56:51 hgfqq.wam ELECTRC ELECTRC PLASMA RAIN - 1 3610000
281702 2022-Mar-14 20:55:01 hgfqq.wam CLOUD ELECTRC PLASMA RAIN - 1 2500000
281697 2022-Mar-14 18:23:58 wz.b.wam ENERGY ENERGY ENERGY SKY - 1 700000
281696 2022-Mar-14 18:15:28 ge3r2.wam ENERGY TILING TREE WINDMIL - 1 3160000
281694 2022-Mar-14 17:54:15 ge3r2.wam SEED SEED SEED TIME - 1 8350000
281692 2022-Mar-14 17:50:19 nbgro.wam ATMSPHE CLOUD ELECTRC ELECTRC - 1 3280000
281688 2022-Mar-14 17:27:24 nbgro.wam CLOUD CLOUD ELECTRC EXPLOSN - 1 2350000
281687 2022-Mar-14 16:52:21 ge3r2.wam TILING TREE WIND WINDMIL - 1 3250000
281686 2022-Mar-14 16:39:13 ge3r2.wam LIFE PLANT PLANT TIME - 1 5320000
281685 2022-Mar-14 16:20:49 ge3r2.wam GRASS LIFE PLANT TIME - 1 5410000
281684 2022-Mar-14 16:00:39 ge3r2.wam CABBAGE CARROT GRASS LIFE - 1 940000
281683 2022-Mar-14 15:51:41 ge3r2.wam GRASS LIFE PLANT WHEAT - 1 1510000
281681 2022-Mar-14 15:00:08 pdusq.wam WHEAT WIND WIND WINDMIL - 1 2050000
281680 2022-Mar-14 11:57:17 5zlas.wam HILL HILL MUSIC PAINTNG - 1 26860000
281679 2022-Mar-14 11:29:20 5zlas.wam HILL HILL PAINTNG PAINTNG - 1 25360000
281677 2022-Mar-14 09:36:04 zmhb.wam ELECTRC RAIN RAIN STORM - 1 2230000
281676 2022-Mar-14 09:32:31 zmhb.wam ELECTRC RAIN STORM STORM - 1 2920000
281670 2022-Mar-14 06:06:16 br2ay.wam AIR BUBBLES WATER WATER - 1 1000000
281669 2022-Mar-14 05:58:33 jfequ.wam DEATH LIFE TIME TREE - 1 12970000
281668 2022-Mar-14 05:34:29 tvsba.wam HILL PRESS RIVER STONE - 1 2590000
281667 2022-Mar-14 05:33:42 br2ay.wam AIR CLOUD ENERGY ENERGY - 1 400000
281666 2022-Mar-14 05:15:06 tvsba.wam ENERGY LIFE SUN TREE - 1 1720000
281665 2022-Mar-14 04:56:50 tvsba.wam EARTH LIFE SUN TREE - 1 1690000
281664 2022-Mar-14 04:37:06 jfequ.wam DEATH TIME TIME TREE - 1 17410000
281663 2022-Mar-14 03:49:59 4pdqw.wam KNIFE THREAD THREAD THREAD - 1 10420000
281662 2022-Mar-14 03:11:20 jfequ.wam DEATH PRESS TIME TREE - 1 12730000
281659 2022-Mar-14 01:30:09 i.lr2.wam BATTERY ELECTRC METAL TOBACCO - 1 5950000
281658 2022-Mar-14 01:18:07 i.lr2.wam BATTERY HEAT TOBACCO WATER - 1 3910000
281657 2022-Mar-14 01:12:32 i.lr2.wam BATTERY HEAT METAL TOBACCO - 1 4570000
281655 2022-Mar-14 00:59:29 i.lr2.wam BATTERY HEAT STEAM TOBACCO - 1 3940000
281654 2022-Mar-14 00:52:46 i.lr2.wam BATTERY METAL TOBACCO WATER - 1 4540000
281653 2022-Mar-14 00:40:44 i.lr2.wam ELECTRC METAL STEAM TOBACCO - 1 2470000
281652 2022-Mar-14 00:38:08 i.lr2.wam HEAT METAL TOBACCO WATER - 1 1060000
281651 2022-Mar-14 00:33:12 i.lr2.wam CLOUD ENERGY PLASMA RAIN - 1 1120000
281650 2022-Mar-14 00:21:43 i.lr2.wam CHAIN METAL OXYGEN WLDMACH - 1 6640000
281649 2022-Mar-13 23:47:16 i.lr2.wam EXPLOSN HEAT SPACE STONE - 1 7690000
281648 2022-Mar-13 23:37:36 i.lr2.wam SEA TIME TIME TREE - 1 10270000
281647 2022-Mar-13 23:24:33 i.lr2.wam FIRE OXYGEN SPACE STONE - 1 10120000
281646 2022-Mar-13 22:00:48 hgfqq.wam HILL MNTAIN RIVER STONE - 1 3190000
281643 2022-Mar-13 21:41:16 hgfqq.wam DEW FOG TREE TREE - 1 2590000
281642 2022-Mar-13 21:40:56 ip43m.wam FOG GRASS TREE TREE - 1 2200000
281641 2022-Mar-13 21:38:20 hgfqq.wam BUBBLES GAS METAL PRESS - 1 2590000
281639 2022-Mar-13 21:31:05 hgfqq.wam CHAIN DIAMOND METAL METAL - 1 2770000
281638 2022-Mar-13 21:27:33 hgfqq.wam CHAIN DIAMOND DIAMOND DIAMOND - 1 2230000
281637 2022-Mar-13 21:23:13 hgfqq.wam CHAIN DIAMOND DIAMOND METAL - 1 2500000
281636 2022-Mar-13 19:48:50 3knra.wam ELECTRC EXPLOSN RAIN SKY - 1 2350000
281634 2022-Mar-13 18:53:49 jfequ.wam CLOUD ENERGY EXPLOSN PLASMA - 1 1390000
281633 2022-Mar-13 18:51:47 agjr2.wam EARTHQ GARBAGE LAVA SALT - 1 250000
281632 2022-Mar-13 18:51:01 jfequ.wam CLOUD EARTH ELECTRC FIREWRK - 1 3580000
281631 2022-Mar-13 18:45:22 jfequ.wam FLOOD LIMSTON RIVER TIME - 1 10690000
281630 2022-Mar-13 18:32:09 jfequ.wam FLOOD RIVER STONE TIME - 1 6010000
281629 2022-Mar-13 17:56:44 3knra.wam ELECTRC RAIN SKY SOUND - 1 2860000
281628 2022-Mar-13 16:54:44 5wme4.wam CLOUD EARTH ELECTRC PLASMA - 1 2470000
281627 2022-Mar-13 16:24:25 5wme4.wam CLOUD LIGHT PLASMA STORM - 1 10840000
281626 2022-Mar-13 16:11:04 5wme4.wam CLOUD ENERGY PLASMA STORM - 1 1810000
281625 2022-Mar-13 16:05:18 jfequ.wam RIVER SAND STONE TIME - 1 6310000
281624 2022-Mar-13 16:04:03 jfequ.wam LIMSTON RIVER STONE TIME - 1 10630000
281623 2022-Mar-13 15:37:31 ep3d2.wam ATMSPHE CLOUD ENERGY ENERGY - 1 520000
281621 2022-Mar-13 15:36:55 ep3d2.wam CLOUD ENERGY ENERGY RAIN - 1 430000
281619 2022-Mar-13 15:26:23 tpar4.wam ATMSPHE EARTH ELECTRC EXPLOSN - 1 1870000
281618 2022-Mar-13 15:13:41 ip43m.wam FOG MOSS TREE TREE - 1 2230000
281614 2022-Mar-13 12:39:28 5qupe.wam PALM RAIN SUN TREE - 1 3280000
281613 2022-Mar-13 12:33:41 5qupe.wam PEAT PLANT TREE TREE - 1 3010000
281612 2022-Mar-13 12:33:30 5qupe.wam PEAT PEAT TREE TREE - 1 4120000
281611 2022-Mar-13 12:16:45 xqjam.wam BACTERI SHIT TIME TREE - 1 11500000
281610 2022-Mar-13 12:15:37 xqjam.wam BACTERI SHIT TIME WHEAT - 1 11530000
281609 2022-Mar-13 12:13:05 xqjam.wam CLOTH PRESS THREAD THREAD - 1 8740000
281608 2022-Mar-13 12:12:26 xqjam.wam CLOTH PRESS SCISSOR THREAD - 1 11440000
281607 2022-Mar-13 12:09:16 xqjam.wam LIFE PRESS SCISSOR THREAD - 1 7420000
281606 2022-Mar-13 12:08:39 xqjam.wam LIFE SCISSOR THREAD THREAD - 1 9580000
281605 2022-Mar-13 12:08:11 xqjam.wam ENERGY LIFE THREAD THREAD - 1 4720000
281604 2022-Mar-13 12:07:47 xqjam.wam LIFE PRESS THREAD THREAD - 1 4720000
281603 2022-Mar-13 12:07:16 xqjam.wam SCISSOR SCISSOR THREAD THREAD - 1 14200000
281602 2022-Mar-13 12:01:18 xqjam.wam PRESS THREAD THREAD WATER - 1 4450000
281601 2022-Mar-13 12:00:35 xqjam.wam PRESS SCISSOR THREAD THREAD - 1 9340000
281598 2022-Mar-13 11:36:31 xqjam.wam PEAT PLANT SHIT TIME - 1 11560000
281597 2022-Mar-13 11:36:13 xqjam.wam PEAT SHIT TIME WHEAT - 1 12220000
281595 2022-Mar-13 11:24:29 xqjam.wam EARTH PLANT SHIT TIME - 1 10300000
281594 2022-Mar-13 11:23:32 xqjam.wam EARTH SHIT TIME WHEAT - 1 10960000
281592 2022-Mar-13 11:16:10 xqjam.wam GRASS PRESS SHIT TIME - 1 10420000
281591 2022-Mar-13 11:15:55 xqjam.wam PLANT PRESS SHIT TIME - 2 10330000
281590 2022-Mar-13 11:15:43 xqjam.wam PRESS SHIT TIME WHEAT - 1 10990000
281589 2022-Mar-13 11:09:46 xqjam.wam PLANT SHIT TIME TREE - 1 11080000
281588 2022-Mar-13 11:03:25 xqjam.wam GRASS HEAT SHIT TIME - 1 10420000
281587 2022-Mar-13 11:02:21 xqjam.wam HEAT PLANT SHIT TIME - 1 10330000
281586 2022-Mar-13 11:02:10 xqjam.wam HEAT SHIT TIME WHEAT - 1 10990000
281585 2022-Mar-13 11:01:15 xqjam.wam SHIT SUN TIME WHEAT - 1 11560000
281584 2022-Mar-13 10:59:04 xqjam.wam PLANT SHIT TIME WHEAT - 1 11110000
281583 2022-Mar-13 10:55:40 xqjam.wam SHIT TIME TOBACCO TOBACCO - 1 10810000
281582 2022-Mar-13 10:54:31 xqjam.wam PLANT SHIT TIME TOBACCO - 1 10630000
281581 2022-Mar-13 10:49:58 xqjam.wam GRASS PLANT SHIT WHEAT - 1 6640000
281580 2022-Mar-13 10:49:42 xqjam.wam GRASS SHIT SHIT WHEAT - 1 11890000
281579 2022-Mar-13 10:49:05 xqjam.wam SHIT SHIT WHEAT WHEAT - 2 12460000
281578 2022-Mar-13 10:48:49 xqjam.wam SHIT SHIT TIME TIME - 1 20260000
281577 2022-Mar-13 10:48:35 xqjam.wam GRASS SHIT TIME TIME - 1 15100000
281576 2022-Mar-13 10:48:22 xqjam.wam SHIT TIME TIME WHEAT - 1 15670000
281575 2022-Mar-13 10:47:48 xqjam.wam SHIT TIME WHEAT WHEAT - 1 11770000
281574 2022-Mar-13 10:47:36 xqjam.wam SHIT SHIT TIME WHEAT - 1 16360000
281573 2022-Mar-13 10:46:34 xqjam.wam SHIT SHIT SHIT TIME - 1 20950000
281572 2022-Mar-13 10:44:41 xqjam.wam GRASS SHIT TIME WATER - 1 10390000
281571 2022-Mar-13 10:42:49 xqjam.wam PLANT SHIT TIME WATER - 1 10300000
281570 2022-Mar-13 10:42:34 xqjam.wam SHIT SHIT TIME WATER - 1 15550000
281569 2022-Mar-13 10:36:53 xqjam.wam GRASS SHIT SHIT SUN - 1 11680000
281568 2022-Mar-13 10:36:01 xqjam.wam PLANT SHIT SHIT TIME - 1 15700000
281567 2022-Mar-13 10:35:47 xqjam.wam GRASS SHIT SHIT TIME - 1 15790000
281566 2022-Mar-13 10:35:31 xqjam.wam GRASS GRASS SHIT TIME - 1 10630000
281565 2022-Mar-13 10:34:25 xqjam.wam PLANT SHIT SUN TIME - 1 10900000
281564 2022-Mar-13 10:31:58 xqjam.wam GRASS SHIT SUN TIME - 1 10990000
281563 2022-Mar-13 10:31:29 xqjam.wam PLANT PLANT SHIT TIME - 1 10450000
281562 2022-Mar-13 10:29:56 xqjam.wam GRASS LIFE SHIT TIME - 1 10660000
281561 2022-Mar-13 10:29:03 xqjam.wam BACTERI GRASS SHIT TIME - 1 10960000
281557 2022-Mar-13 10:12:58 xqjam.wam PEAT PEAT PLANT RAIN - 1 2740000
281556 2022-Mar-13 10:12:46 3knra.wam MUD MUD MUD SHIT - 1 5530000
281555 2022-Mar-13 10:12:36 xqjam.wam PEAT PEAT PLANT WATER - 1 2710000
281554 2022-Mar-13 10:12:06 3knra.wam MUD MUD SHIT SHIT - 1 10900000
281553 2022-Mar-13 10:11:20 xqjam.wam PEAT SEED SEED WATER - 1 3700000
281552 2022-Mar-13 10:10:08 xqjam.wam PEAT PEAT SEED WATER - 1 3760000
281551 2022-Mar-13 09:14:22 mg4bi.wam WALL WHEAT WHEAT WINDMIL - 1 2950000
281549 2022-Mar-13 08:51:39 eqxo.wam PEAT SEED TREE WATER - 1 3280000
281548 2022-Mar-13 08:05:48 t23bi.wam ENERGY STONE WHEAT WINDMIL - 1 1930000
281546 2022-Mar-13 06:59:34 jfequ.wam LIMSTON RIVER RIVER STONE - 1 6940000
281545 2022-Mar-13 06:57:36 3knra.wam HILL HILL RIVER RIVER - 1 4900000
281544 2022-Mar-13 06:55:43 3knra.wam FOG HILL RAINBOW RIVER - 1 5590000
281543 2022-Mar-13 06:45:03 jfequ.wam PRESS RIVER SAND STONE - 1 1630000
281542 2022-Mar-13 06:43:34 nbgro.wam AIR CLAY HEAT HEAT - 1 730000
281541 2022-Mar-13 06:39:07 jfequ.wam RIVER RIVER SAND STONE - 1 2620000
281540 2022-Mar-13 06:29:14 jfequ.wam FLOOD RIVER SAND STONE - 1 1750000
281538 2022-Mar-13 06:18:28 jfequ.wam RIVER SAND SAND STONE - 1 2050000
281536 2022-Mar-13 06:12:06 jfequ.wam MNTAIN RIVER SAND STONE - 1 2230000
281535 2022-Mar-13 06:11:48 jfequ.wam HILL RIVER SAND STONE - 1 3010000
281533 2022-Mar-13 05:53:36 nbgro.wam BUBBLES GAS GAS WATER - 1 2800000
281532 2022-Mar-13 04:47:16 goyrc.wam ELECTRC KITE OZONE STORM - 1 9940000
281530 2022-Mar-13 01:31:22 5qupe.wam LIFE LIFE PLANT TREE - 1 1510000
281529 2022-Mar-13 01:31:13 5qupe.wam LIFE PLANT PLANT TREE - 1 1390000
281528 2022-Mar-13 01:24:45 jfequ.wam EARTHQ FLOOD HILL RIVER - 1 2710000
281527 2022-Mar-13 01:14:15 jfequ.wam EARTHQ MNTAIN RIVER STONE - 1 1870000
281526 2022-Mar-13 00:49:37 .akuc.wam EARTHQ FLOOD MNTAIN RIVER - 1 1930000
281525 2022-Mar-12 23:53:37 jfequ.wam FLOOD FLOOD RIVER STONE - 1 1450000
281524 2022-Mar-12 23:40:26 p4kam.wam GRASS PALM PLANT TREE - 1 3040000
281523 2022-Mar-12 23:12:51 jfequ.wam FLOOD RIVER STONE STONE - 1 1390000
281522 2022-Mar-12 22:49:57 .akuc.wam GRASS LIFE RAIN TREE - 1 1360000
281520 2022-Mar-12 21:55:04 xqjam.wam BUBBLES BUBBLES PRESS WATER - 1 1990000
281518 2022-Mar-12 21:51:59 xqjam.wam GAS GAS PRESS WATER - 1 1870000
281517 2022-Mar-12 21:50:54 xqjam.wam GAS OXYGEN PRESS WATER - 1 3730000
281516 2022-Mar-12 21:49:27 xqjam.wam BUBBLES OXYGEN PRESS WATER - 2 3790000
281515 2022-Mar-12 21:49:11 xqjam.wam BUBBLES GAS OXYGEN WATER - 1 4660000
281513 2022-Mar-12 21:23:00 xqjam.wam BUBBLES METAL PRESS WATER - 1 1690000
281512 2022-Mar-12 21:22:40 xqjam.wam BUBBLES METAL PLASTIC WATER - 1 3640000
281511 2022-Mar-12 21:15:40 jfequ.wam FLOOD MNTAIN RIVER RIVER - 1 2860000
281510 2022-Mar-12 21:11:43 xqjam.wam GAS METAL PRESS WATER - 1 1630000
281509 2022-Mar-12 21:07:08 5qupe.wam ELECTRC PLASTIC STEAM WATER - 1 3460000
281508 2022-Mar-12 21:05:35 xqjam.wam LIFE PEAT RAIN SEED - 1 2800000
281507 2022-Mar-12 21:03:08 xqjam.wam PEAT SEED TIME WATER - 1 7210000
281505 2022-Mar-12 21:01:34 5qupe.wam ELECTRC METAL STEAM WATER - 1 2140000
281502 2022-Mar-12 20:54:21 5qupe.wam EARTH TREE TREE WATER - 2 1600000
281498 2022-Mar-12 20:47:05 jfequ.wam FLOOD HILL RIVER STONE - 1 2710000
281497 2022-Mar-12 20:44:51 5qupe.wam PLANT SUN TREE TREE - 1 2350000
281492 2022-Mar-12 20:42:19 xqjam.wam PEAT RAIN RAIN SEED - 1 2560000
281491 2022-Mar-12 20:41:34 xqjam.wam PEAT RAIN SEED WATER - 1 2530000
281487 2022-Mar-12 20:26:05 5qupe.wam FLOUR STONE WHEAT WINDMIL - 2 4390000
281486 2022-Mar-12 20:23:55 5qupe.wam FLOUR WIND WIND WINDMIL - 1 3730000
281485 2022-Mar-12 20:20:54 em2qy.wam MNTAIN RIVER STONE TIME - 1 6490000
281484 2022-Mar-12 20:20:28 em2qy.wam MNTAIN RAIN RIVER STONE - 2 1810000
281483 2022-Mar-12 20:19:35 em2qy.wam FLOOD MNTAIN RIVER STONE - 3 1930000
281482 2022-Mar-12 20:12:08 5qupe.wam STONE WHEAT WIND WINDMIL - 1 2020000
281481 2022-Mar-12 19:57:37 mxxb4.wam CLAY EARTH FIRE PRESS - 1 700000
281479 2022-Mar-12 19:10:06 nbgro.wam CLAY GLASS HEAT HEAT - 2 1210000
281478 2022-Mar-12 19:02:24 nbgro.wam AIR CLAY HEAT PRESS - 1 730000
281477 2022-Mar-12 18:56:18 ninjawaxtime CLOUD ELECTRC SOUND SOUND - 1 3370000
281476 2022-Mar-12 18:44:43 ninjawaxtime CLOUD CLOUD ELECTRC SOUND - 1 2860000
281475 2022-Mar-12 18:43:55 nbgro.wam BUILDNG FLOUR PRESS WHEAT - 1 11890000
281474 2022-Mar-12 18:07:42 .akuc.wam ENERGY PRESS PRESS STEEL - 1 1090000
281473 2022-Mar-12 18:01:17 nbgro.wam AIR CLAY CLAY HEAT - 1 1330000
281472 2022-Mar-12 17:53:53 .akuc.wam CLOUD ENERGY SKY TREE - 1 1720000
281471 2022-Mar-12 17:51:05 .akuc.wam AIR CLOUD EARTH ENERGY - 1 370000
281470 2022-Mar-12 17:20:52 wzmas.wam CABBAGE CARROT EARTH TIME - 1 5140000
281465 2022-Mar-12 16:21:47 12222222222u AIR FIRE RAIN SUN - 1 670000
281462 2022-Mar-12 15:21:18 3yk5c.wam CLAY FIRE HEAT SAND - 1 1150000
281461 2022-Mar-12 15:16:44 heqb.wam EARTH ELECTRC SKY STORM - 1 2740000
281460 2022-Mar-12 15:13:13 jfequ.wam AIR EARTH HEAT PLASMA - 1 790000
281459 2022-Mar-12 15:04:35 jfequ.wam EARTH LIGHT PLASMA STORM - 1 10540000
281457 2022-Mar-12 14:35:45 dyqqy.wam CLAY HEAT POT PRESS - 1 2380000
281456 2022-Mar-12 14:33:31 dyqqy.wam CLAY FIRE HEAT POT - 1 2350000
281455 2022-Mar-12 13:53:20 ninjawaxtime EARTH ELECTRC SOUND STORM - 1 2980000
281454 2022-Mar-12 13:50:45 ninjawaxtime EARTH ELECTRC PLASMA STORM - 1 2890000
281453 2022-Mar-12 13:47:23 5wme4.wam CLOUD ELECTRC ENERGY PLASMA - 2 2500000
281452 2022-Mar-12 13:44:44 5wme4.wam ELECTRC ENERGY PLASMA STORM - 1 2920000
281451 2022-Mar-12 13:40:24 5wme4.wam CLOUD ELECTRC PLASMA STORM - 1 3190000
281450 2022-Mar-12 13:37:13 f4bri.wam LINEN LINEN LINEN PRESS - 1 3220000
281449 2022-Mar-12 13:36:10 f4bri.wam WIND WIND WIND WINDMIL - 1 1360000
281446 2022-Mar-12 13:19:16 5wme4.wam CLOUD ELECTRC LIGHT PLASMA - 1 11530000
281444 2022-Mar-12 13:06:54 5wme4.wam BLADE BLADE BLADE BLADE - 1 4480000
281443 2022-Mar-12 13:00:58 wzmas.wam BRICK FLOUR TILING WINDMIL - 1 4930000
281441 2022-Mar-12 12:31:17 jfequ.wam AIR CLOUD EARTH PLASMA - 1 1060000
281439 2022-Mar-12 12:29:12 jfequ.wam CLOUD EARTH LIGHT PLASMA - 1 10120000
281438 2022-Mar-12 12:27:05 nanibahaniwx EARTH ENERGY RAIN STORM - 1 820000
281437 2022-Mar-12 11:44:57 jfequ.wam CLOUD EARTH ELECTRC LIGHT - 1 10810000
281436 2022-Mar-12 11:22:03 gpfay.wam PRESS WHEAT WHEAT WINDMIL - 1 2650000
281435 2022-Mar-12 11:07:57 jfequ.wam ATOM CLOUD EARTH ELECTRC - 2 4720000
281434 2022-Mar-12 10:51:10 xqjam.wam BUILDNG PRESS WIND WINDMIL - 1 9670000
281433 2022-Mar-12 10:50:17 xqjam.wam BUILDNG PRESS WHEAT WINDMIL - 1 10360000
281432 2022-Mar-12 10:44:09 ktjqq.wam BRICK CLAY FIRE WATER - 1 760000
281431 2022-Mar-12 10:39:32 xqjam.wam BUILDNG ENERGY WIND WINDMIL - 2 9670000
281428 2022-Mar-12 10:35:37 ktjqq.wam BOTTLE BUBBLES PRESS WATER - 1 1570000
281427 2022-Mar-12 10:30:41 4k5qq.wam FLOUR TREE WHEAT WIND - 1 4240000
281426 2022-Mar-12 10:29:58 hgfqq.wam CLAY CLAY CLAY PRESS - 2 1960000
281425 2022-Mar-12 10:29:55 4k5qq.wam FLOUR TREE WIND WIND - 1 3550000
281424 2022-Mar-12 10:27:39 4k5qq.wam TREE TREE WHEAT WIND - 1 2530000
281423 2022-Mar-12 10:26:31 4k5qq.wam TREE WHEAT WIND WIND - 1 1870000
281421 2022-Mar-12 10:02:38 irosfearwax1 BOILER GAS WATER WATER - 1 1690000
281420 2022-Mar-12 09:58:47 irosfearwax1 BOILER BUBBLES PRESS PRESS - 1 1810000
281419 2022-Mar-12 09:58:25 irosfearwax1 BOILER BUBBLES BUBBLES PRESS - 1 2740000
281418 2022-Mar-12 09:46:41 xqjam.wam FLOUR WHEAT WHEAT WINDMIL - 1 5110000
281417 2022-Mar-12 09:43:56 xqjam.wam BUILDNG FLOUR TREE WINDMIL - 1 12790000
281416 2022-Mar-12 09:42:52 xqjam.wam FLOUR TREE WIND WINDMIL - 1 4390000
281415 2022-Mar-12 09:39:02 xqjam.wam BUILDNG ENERGY FLOUR WINDMIL - 1 12040000
281414 2022-Mar-12 09:36:10 xqjam.wam BUILDNG ENERGY TREE WIND - 1 9490000
281413 2022-Mar-12 09:32:44 xqjam.wam BUILDNG FLOUR WHEAT WINDMIL - 1 12820000
281410 2022-Mar-12 09:24:03 xqjam.wam BUILDNG FLOUR TREE WIND - 1 11950000
281409 2022-Mar-12 09:17:29 xqjam.wam BUILDNG FLOUR WIND WINDMIL - 1 12130000
281408 2022-Mar-12 07:30:31 tvsba.wam BRICK TILING WIND WIND - 1 1720000
281407 2022-Mar-12 07:00:37 nbgro.wam CLOUD ELECTRC EXPLOSN RAIN - 1 2080000
281406 2022-Mar-12 06:47:42 nbgro.wam CLOUD EARTH ELECTRC EXPLOSN - 1 2050000
281405 2022-Mar-12 06:08:21 ftcri.wam EARTH FROST SEED SUN - 1 2230000
281404 2022-Mar-12 06:03:42 ftcri.wam FROST MUD SEED SUN - 1 2260000
281403 2022-Mar-12 05:22:12 ge3r2.wam CLOTH PRESS WHEAT WINDMIL - 1 6130000
281402 2022-Mar-12 05:19:01 ftcri.wam CLAY GLASS HEAT WATER - 1 1180000
281401 2022-Mar-12 05:11:50 ge3r2.wam ENERGY PRESS WATER WINDMIL - 1 1060000
281400 2022-Mar-12 04:51:24 ge3r2.wam CLOTH PRESS PRESS STEEL - 1 5350000
281399 2022-Mar-12 04:21:12 ijar.wam CHAIN DIAMOND RING WLDMACH - 1 5470000
281398 2022-Mar-12 04:17:55 phbb4.wam TREE WHEAT WIND WINDMIL - 2 2710000
281397 2022-Mar-12 04:15:03 ge3r2.wam CLAY CLAY WATER WATER - 2 1300000
281396 2022-Mar-12 04:11:18 phbb4.wam CLOUD EARTH ENERGY ENERGY - 1 400000
281394 2022-Mar-12 04:07:40 ijar.wam BULLET BULLET LINEN LINEN - 1 5320000
281393 2022-Mar-12 04:00:45 ijar.wam CHAIN DIAMOND METAL WLDMACH - 1 4270000
281392 2022-Mar-12 04:00:38 phbb4.wam ENERGY TREE WIND WINDMIL - 1 1930000
281391 2022-Mar-12 03:59:47 phbb4.wam TREE WATER WHEAT WINDMIL - 1 2590000
281390 2022-Mar-12 03:56:51 jfequ.wam AIR CLOUD EARTH ELECTRC - 1 1750000
281389 2022-Mar-12 03:55:10 jfequ.wam AIR EARTH ELECTRC STORM - 1 2170000
281388 2022-Mar-12 03:47:18 ijar.wam BULLET LIFE LINEN LINEN - 1 4000000
281387 2022-Mar-12 03:32:25 gpfay.wam ELECTRC PLASMA PLASMA PLASMA - 1 3610000
281386 2022-Mar-12 03:29:12 gpfay.wam ELECTRC EXPLOSN EXPLOSN EXPLOSN - 1 2350000
281385 2022-Mar-12 03:25:28 4pdqw.wam MNTAIN RIVER SOUND STONE - 1 2590000
281384 2022-Mar-12 03:12:08 tpar4.wam ELECTRC EXPLOSN HEAT STORM - 1 2500000
281383 2022-Mar-12 03:11:19 nbgro.wam CLOUD ELECTRC EXPLOSN SKY - 1 2620000
281382 2022-Mar-12 03:09:08 tpar4.wam ATMSPHE ELECTRC EXPLOSN STORM - 1 2590000
281381 2022-Mar-12 02:58:26 jfequ.wam CLOUD ELECTRC ELECTRC EXPLOSN - 1 3460000
281379 2022-Mar-12 02:41:31 wissdfghjklp LAVA LAVA RAIN STEAM - 1 160000
281378 2022-Mar-12 02:28:11 jfequ.wam ELECTRC ELECTRC EXPLOSN SKY - 1 3730000
281377 2022-Mar-12 02:25:03 jfequ.wam CLOUD ELECTRC EXPLOSN EXPLOSN - 1 2350000
281376 2022-Mar-12 02:06:30 noway.gm ENERGY HEAT RAIN SKY - 1 700000
281375 2022-Mar-12 02:02:25 noway.gm CLAY TILING WIND WIND - 1 2260000
281374 2022-Mar-12 01:59:06 5qupe.wam LIGHT SOUND STORM STORM - 1 11350000
281373 2022-Mar-12 01:57:37 5qupe.wam ELECTRC LIGHT STORM STORM - 1 11950000
281371 2022-Mar-12 01:56:20 5qupe.wam BULLET CLOTH GUN LIFE - 1 10660000
281370 2022-Mar-12 01:51:37 5qupe.wam ENERGY ENERGY STORM STORM - 2 1540000
281369 2022-Mar-12 01:50:32 5qupe.wam ELECTRC ENERGY STORM STORM - 1 2920000
281366 2022-Mar-12 01:44:30 5qupe.wam BUBBLES MNTAIN MNTAIN RIVER - 1 3280000
281365 2022-Mar-12 01:42:10 5qupe.wam BUBBLES BUBBLES MNTAIN RIVER - 1 3610000
281364 2022-Mar-12 01:42:02 5czbk.wam AIR BUBBLES BUBBLES WATER - 1 1960000
281362 2022-Mar-12 00:07:24 1f4aw.wam BRICK CEMENT WIND WINDMIL - 1 7360000
281361 2022-Mar-12 00:03:46 1glqy.wam BACTERI LIFE SEED SWAMP - 1 2320000
281360 2022-Mar-11 23:56:56 1f4aw.wam ENERGY IDEA METAL WLDMACH - 1 24610000
281359 2022-Mar-11 23:55:45 1f4aw.wam ELECTRC METAL PRESS WLDMACH - 1 4300000
281358 2022-Mar-11 23:47:47 1glqy.wam ENERGY WATER WATER WINDMIL - 1 1030000
281357 2022-Mar-11 23:28:12 ninjawaxtime ELECTRC PLASMA PLASMA SOUND - 1 3700000
281356 2022-Mar-11 23:19:25 dp4b2.wam BRICK BRICK TILING WINDMIL - 1 2530000
281354 2022-Mar-11 22:41:46 nbgro.wam ENERGY ENERGY SEED SEED - 1 2500000
281353 2022-Mar-11 22:41:29 eawcq.wam BRICK ENERGY WIND WINDMIL - 2 1240000
281352 2022-Mar-11 22:20:26 tpar4.wam ATMSPHE ELECTRC HURRCAN STORM - 1 2800000
281351 2022-Mar-11 22:15:02 tpar4.wam ELECTRC HEAT HEAT STORM - 1 2230000
281350 2022-Mar-11 22:12:43 4k5qq.wam ENERGY TREE TREE WIND - 1 1750000
281349 2022-Mar-11 22:12:14 tpar4.wam CLOUD ELECTRC HEAT STORM - 1 2500000
281348 2022-Mar-11 22:07:53 3yk5c.wam EARTH ELECTRC RAIN STORM - 1 2200000
281347 2022-Mar-11 21:54:57 tpar4.wam CLOUD ELECTRC PLANET STORM - 1 8260000
281345 2022-Mar-11 21:41:05 tpar4.wam ATMSPHE EARTH ELECTRC STORM - 1 2290000
281344 2022-Mar-11 21:33:46 tpar4.wam CLOUD CLOUD ELECTRC STORM - 1 2770000
281343 2022-Mar-11 21:30:51 tpar4.wam ELECTRC RAIN SKY STORM - 1 2770000
281342 2022-Mar-11 21:07:43 .akuc.wam CLAY GLASS HEAT PRESS - 1 1210000
281341 2022-Mar-11 20:34:45 nbgro.wam CLAY FIRE FIRE PRESS - 1 700000
281340 2022-Mar-11 20:28:41 dyqqy.wam CABBAGE CARROT EARTH WATER - 1 430000
281337 2022-Mar-11 20:27:09 dyqqy.wam CARROT EARTH RAIN SUN - 1 880000
281335 2022-Mar-11 20:20:38 lsfqw.wam HILL MNTAIN RIVER WATER - 1 3100000
281334 2022-Mar-11 20:18:06 nbgro.wam CLAY FIRE FIRE HEAT - 1 700000
281331 2022-Mar-11 20:11:20 dyqqy.wam PLANT SEED TIME TREE - 1 6880000
281330 2022-Mar-11 20:07:07 dyqqy.wam SEED SUN TIME TREE - 1 7330000
281329 2022-Mar-11 20:02:09 ninjawaxtime CLOUD EARTH ELECTRC SOUND - 1 2560000
281328 2022-Mar-11 19:55:35 jfequ.wam ENERGY PLYWOOD RIVER RIVER - 1 4510000
281327 2022-Mar-11 19:54:49 4pdqw.wam CLAY ENERGY FIRE PRESS - 1 730000
281326 2022-Mar-11 19:51:42 4pdqw.wam ENERGY TREE TREE WINDMIL - 1 2590000
281325 2022-Mar-11 19:44:34 nbgro.wam CLAY FIRE FIRE STONE - 1 760000
281320 2022-Mar-11 19:32:52 4pdqw.wam CLAY ENERGY FIRE WATER - 1 700000
281319 2022-Mar-11 19:32:43 nbgro.wam CLAY HEAT HEAT PAINT - 4 3520000
281316 2022-Mar-11 19:07:51 nbgro.wam CLAY FIRE HEAT HEAT - 1 730000
281315 2022-Mar-11 19:07:24 nbgro.wam CLAY HEAT HEAT STONE - 1 820000
281314 2022-Mar-11 18:40:09 nbgro.wam CLAY FIRE MUD MUD - 1 730000
281313 2022-Mar-11 18:37:43 nbgro.wam CLAY FIRE FIRE MUD - 2 700000
281312 2022-Mar-11 18:36:54 nbgro.wam CLAY CLAY FIRE MUD - 1 1330000
281311 2022-Mar-11 18:34:59 nbgro.wam CLAY HEAT HEAT MUD - 1 760000
281310 2022-Mar-11 18:24:47 q1pb4.wam ENERGY ENERGY ENERGY SEED - 1 1330000
281308 2022-Mar-11 18:13:53 hgfqq.wam ELECTRC PRESS WHEAT WINDMIL - 1 3250000
281307 2022-Mar-11 18:05:14 5fvbg.wam BUILDNG WHEAT WIND WINDMIL - 2 10450000
281306 2022-Mar-11 17:58:22 nbgro.wam CLAY FIRE MUD STONE - 1 790000
281305 2022-Mar-11 17:56:07 5fvbg.wam BUILDNG BUILDNG WINDMIL WINDMIL - 1 19000000
281304 2022-Mar-11 17:54:26 lv5b.wam SCISSOR THREAD THREAD THREAD - 1 11500000
281303 2022-Mar-11 17:51:49 hgfqq.wam FLOUR WHEAT WIND WINDMIL - 2 4420000
281302 2022-Mar-11 17:44:33 nbgro.wam CLAY HEAT MUD STONE - 1 820000
281300 2022-Mar-11 17:43:39 i.lr2.wam MNTAIN RAIN STONE WATER - 2 790000
281299 2022-Mar-11 17:43:20 hgfqq.wam BRICK TILING TREE WINDMIL - 1 3220000
281298 2022-Mar-11 17:42:33 lv5b.wam FIRE PRESS TNPLT WATER - 1 850000
281296 2022-Mar-11 17:40:41 i.lr2.wam MNTAIN RAIN WATER WATER - 1 700000
281295 2022-Mar-11 17:37:54 hgfqq.wam TREE WIND WIND WINDMIL - 1 2020000
281294 2022-Mar-11 17:34:46 hgfqq.wam BRICK TREE WIND WINDMIL - 1 1990000
281293 2022-Mar-11 17:28:46 nbgro.wam CLAY CLAY HEAT STONE - 1 1420000
281292 2022-Mar-11 17:26:03 lv5b.wam PRESS PRESS STEEL WATER - 1 1060000
281288 2022-Mar-11 17:15:13 ktjqq.wam PRESS THREAD THREAD TREE - 1 5230000
281287 2022-Mar-11 17:10:01 it5s4.wam ENERGY RAIN SKY STORM - 1 1390000
281285 2022-Mar-11 17:06:54 tvsba.wam CLOUD ENERGY SKY WIND - 1 1060000
281284 2022-Mar-11 17:03:28 i.lr2.wam CLAY TILING WHEAT WIND - 1 2950000
281282 2022-Mar-11 16:54:28 1glqy.wam EARTH GRASS RAIN TREE - 1 1090000
281281 2022-Mar-11 16:52:32 gpfay.wam ENERGY ENERGY THREAD THREAD - 2 4480000
281280 2022-Mar-11 16:50:33 1glqy.wam GRASS MOSS RAIN TREE - 1 1360000
281279 2022-Mar-11 16:50:17 1glqy.wam GRASS RAIN TREE TREE - 1 1870000
281278 2022-Mar-11 16:49:20 ktjqq.wam ENERGY PRESS THREAD THREAD - 1 4480000
281277 2022-Mar-11 16:42:19 ktjqq.wam THREAD THREAD THREAD WIRE - 1 9400000
281276 2022-Mar-11 16:35:12 nbgro.wam CLAY FIRE MUD WATER - 1 700000
281275 2022-Mar-11 16:34:39 i.lr2.wam FLOUR METAL TILING WIND - 1 4660000
281273 2022-Mar-11 16:18:41 nbgro.wam ENERGY PRESS WIND WINDMIL - 1 1180000
281272 2022-Mar-11 16:12:49 nbgro.wam FLOUR PRESS WHEAT WINDMIL - 3 4330000
281271 2022-Mar-11 16:11:55 ninjawaxtime CLOUD CLOUD HEAT WIND - 1 790000
281270 2022-Mar-11 16:10:25 .akuc.wam ATMSPHE CLOUD CLOUD ELECTRC - 1